Time,TemperatureF,DewpointF,PressureIn,WindDirection,WindDirectionDegrees,WindSpeedMPH,WindSpeedGustMPH,Humidity,HourlyPrecipIn,Conditions,Clouds,dailyrainin,SoftwareType,DateUTC
2013-03-08 00:00:00,38.9,29.6,30.25,SE,144,0.0,0.0,69,0.00,,---,0.00,VWS V14.00,2013-03-08 06:00:00,
2013-03-08 00:01:00,40.3,30.2,30.24,SE,144,0.0,0.0,67,0.00,,---,0.00,VWS V14.00,2013-03-08 06:01:00,
2013-03-08 00:02:00,38.9,29.6,30.25,SE,144,0.0,0.0,69,0.00,,---,0.00,VWS V14.00,2013-03-08 06:02:00,
2013-03-08 00:03:00,38.9,29.6,30.25,SE,144,0.0,0.0,69,0.00,,---,0.00,VWS V14.00,2013-03-08 06:03:00,
2013-03-08 00:04:00,38.9,29.6,30.25,SE,144,0.0,0.0,69,0.00,,---,0.00,VWS V14.00,2013-03-08 06:04:00,
2013-03-08 00:05:00,38.8,29.5,30.25,SE,144,0.0,0.0,69,0.00,,---,0.00,VWS V14.00,2013-03-08 06:05:00,
2013-03-08 00:06:00,40.3,30.2,30.23,SE,144,0.0,0.0,67,0.00,,---,0.00,VWS V14.00,2013-03-08 06:06:00,
2013-03-08 00:07:00,38.8,29.5,30.25,SE,144,0.0,0.0,69,0.00,,---,0.00,VWS V14.00,2013-03-08 06:07:00,
2013-03-08 00:08:00,38.8,29.5,30.25,SE,144,0.0,0.0,69,0.00,,---,0.00,VWS V14.00,2013-03-08 06:08:00,
2013-03-08 00:09:00,38.8,29.5,30.25,SE,144,0.0,0.0,69,0.00,,---,0.00,VWS V14.00,2013-03-08 06:09:00,
2013-03-08 00:10:00,38.6,29.3,30.25,SE,144,0.0,0.0,69,0.00,,---,0.00,VWS V14.00,2013-03-08 06:10:00,
2013-03-08 00:11:00,40.3,30.2,30.23,SE,144,0.0,0.0,67,0.00,,---,0.00,VWS V14.00,2013-03-08 06:11:00,
2013-03-08 00:12:00,38.8,29.9,30.25,SE,144,0.0,0.0,70,0.00,,---,0.00,VWS V14.00,2013-03-08 06:12:00,
2013-03-08 00:13:00,38.8,29.5,30.25,SE,144,0.0,0.0,69,0.00,,---,0.00,VWS V14.00,2013-03-08 06:13:00,
2013-03-08 00:14:00,38.8,29.5,30.25,SE,144,0.0,0.0,69,0.00,,---,0.00,VWS V14.00,2013-03-08 06:14:00,
2013-03-08 00:15:00,38.8,29.5,30.25,SE,144,0.0,0.0,69,0.00,,---,0.00,VWS V14.00,2013-03-08 06:15:00,
2013-03-08 00:16:00,40.2,30.1,30.23,SE,144,0.0,0.0,67,0.00,,---,0.00,VWS V14.00,2013-03-08 06:16:00,
2013-03-08 00:17:00,38.8,29.5,30.25,SE,144,0.0,0.0,69,0.00,,---,0.00,VWS V14.00,2013-03-08 06:17:00,
2013-03-08 00:18:00,38.9,29.6,30.25,SE,144,0.0,0.0,69,0.00,,---,0.00,VWS V14.00,2013-03-08 06:18:00,
2013-03-08 00:19:00,38.9,29.6,30.25,SE,144,0.0,0.0,69,0.00,,---,0.00,VWS V14.00,2013-03-08 06:19:00,
2013-03-08 00:20:00,38.9,29.6,30.25,SE,144,0.0,0.0,69,0.00,,---,0.00,VWS V14.00,2013-03-08 06:20:00,
2013-03-08 00:21:00,40.2,30.1,30.23,SE,144,0.0,0.0,67,0.00,,---,0.00,VWS V14.00,2013-03-08 06:21:00,
2013-03-08 00:22:00,38.8,29.5,30.25,SE,144,0.0,0.0,69,0.00,,---,0.00,VWS V14.00,2013-03-08 06:22:00,
2013-03-08 00:23:00,38.8,29.9,30.25,SE,144,0.0,0.0,70,0.00,,---,0.00,VWS V14.00,2013-03-08 06:23:00,
2013-03-08 00:24:00,38.8,29.9,30.25,SE,144,0.0,0.0,70,0.00,,---,0.00,VWS V14.00,2013-03-08 06:24:00,
2013-03-08 00:25:00,38.8,29.9,30.25,SE,144,0.0,0.0,70,0.00,,---,0.00,VWS V14.00,2013-03-08 06:25:00,
2013-03-08 00:26:00,40.2,30.1,30.24,SE,144,0.0,0.0,67,0.00,,---,0.00,VWS V14.00,2013-03-08 06:26:00,
2013-03-08 00:27:00,38.6,29.7,30.25,SE,144,0.0,0.0,70,0.00,,---,0.00,VWS V14.00,2013-03-08 06:27:00,
2013-03-08 00:28:00,38.6,29.7,30.25,SE,144,0.0,0.0,70,0.00,,---,0.00,VWS V14.00,2013-03-08 06:28:00,
2013-03-08 00:29:00,38.5,29.6,30.25,SE,144,0.0,0.0,70,0.00,,---,0.00,VWS V14.00,2013-03-08 06:29:00,
2013-03-08 00:30:00,38.5,29.6,30.25,SE,144,0.0,0.0,70,0.00,,---,0.00,VWS V14.00,2013-03-08 06:30:00,
2013-03-08 00:31:00,40.1,30.0,30.24,SE,144,0.0,0.0,67,0.00,,---,0.00,VWS V14.00,2013-03-08 06:31:00,
2013-03-08 00:32:00,38.5,29.9,30.25,SE,144,0.0,0.0,71,0.00,,---,0.00,VWS V14.00,2013-03-08 06:32:00,
2013-03-08 00:33:00,38.5,29.9,30.25,SE,144,0.0,0.0,71,0.00,,---,0.00,VWS V14.00,2013-03-08 06:33:00,
2013-03-08 00:34:00,38.5,29.9,30.26,SE,144,0.0,0.0,71,0.00,,---,0.00,VWS V14.00,2013-03-08 06:34:00,
2013-03-08 00:35:00,38.5,29.9,30.26,SE,144,0.0,0.0,71,0.00,,---,0.00,VWS V14.00,2013-03-08 06:35:00,
2013-03-08 00:36:00,39.9,30.2,30.24,SE,144,0.0,0.0,68,0.00,,---,0.00,VWS V14.00,2013-03-08 06:36:00,
2013-03-08 00:37:00,38.3,29.7,30.26,SE,144,0.0,0.0,71,0.00,,---,0.00,VWS V14.00,2013-03-08 06:37:00,
2013-03-08 00:38:00,38.3,29.7,30.26,SE,144,0.0,0.0,71,0.00,,---,0.00,VWS V14.00,2013-03-08 06:38:00,
2013-03-08 00:39:00,38.3,29.4,30.26,SE,144,0.0,0.0,70,0.00,,---,0.00,VWS V14.00,2013-03-08 06:39:00,
2013-03-08 00:40:00,38.3,29.4,30.26,SE,144,0.0,0.0,70,0.00,,---,0.00,VWS V14.00,2013-03-08 06:40:00,
2013-03-08 00:41:00,39.9,30.2,30.25,SE,144,0.0,0.0,68,0.00,,---,0.00,VWS V14.00,2013-03-08 06:41:00,
2013-03-08 00:42:00,38.2,29.3,30.26,SE,144,0.0,0.0,70,0.00,,---,0.00,VWS V14.00,2013-03-08 06:42:00,
2013-03-08 00:43:00,38.2,29.6,30.26,SE,144,0.0,0.0,71,0.00,,---,0.00,VWS V14.00,2013-03-08 06:43:00,
2013-03-08 00:44:00,38.2,29.6,30.26,SE,144,0.0,0.0,71,0.00,,---,0.00,VWS V14.00,2013-03-08 06:44:00,
2013-03-08 00:45:00,38.2,29.6,30.26,SE,144,0.0,0.0,71,0.00,,---,0.00,VWS V14.00,2013-03-08 06:45:00,
2013-03-08 00:46:00,39.8,30.1,30.25,SE,144,0.0,0.0,68,0.00,,---,0.00,VWS V14.00,2013-03-08 06:46:00,
2013-03-08 00:47:00,38.2,29.6,30.26,SE,144,0.0,0.0,71,0.00,,---,0.00,VWS V14.00,2013-03-08 06:47:00,
2013-03-08 00:48:00,38.2,29.6,30.26,SE,144,0.0,0.0,71,0.00,,---,0.00,VWS V14.00,2013-03-08 06:48:00,
2013-03-08 00:49:00,38.0,29.5,30.26,SE,144,0.0,0.0,71,0.00,,---,0.00,VWS V14.00,2013-03-08 06:49:00,
2013-03-08 00:50:00,38.0,29.5,30.26,SE,144,0.0,0.0,71,0.00,,---,0.00,VWS V14.00,2013-03-08 06:50:00,
2013-03-08 00:51:00,39.6,29.9,30.25,SE,144,0.0,0.0,68,0.00,,---,0.00,VWS V14.00,2013-03-08 06:51:00,
2013-03-08 00:52:00,38.0,29.5,30.26,SE,144,0.0,0.0,71,0.00,,---,0.00,VWS V14.00,2013-03-08 06:52:00,
2013-03-08 00:53:00,38.0,29.5,30.26,SE,144,0.0,0.0,71,0.00,,---,0.00,VWS V14.00,2013-03-08 06:53:00,
2013-03-08 00:54:00,38.0,29.5,30.26,SE,144,0.0,0.0,71,0.00,,---,0.00,VWS V14.00,2013-03-08 06:54:00,
2013-03-08 00:55:00,38.0,29.8,30.26,SE,144,0.0,0.0,72,0.00,,---,0.00,VWS V14.00,2013-03-08 06:55:00,
2013-03-08 00:56:00,39.1,29.8,30.25,SE,144,0.0,0.0,69,0.00,,---,0.00,VWS V14.00,2013-03-08 06:56:00,
2013-03-08 00:57:00,38.0,29.8,30.26,SE,144,0.0,0.0,72,0.00,,---,0.00,VWS V14.00,2013-03-08 06:57:00,
2013-03-08 00:58:00,38.0,29.8,30.26,SE,144,0.0,0.0,72,0.00,,---,0.00,VWS V14.00,2013-03-08 06:58:00,
2013-03-08 00:59:00,38.0,29.8,30.26,SE,144,0.0,0.0,72,0.00,,---,0.00,VWS V14.00,2013-03-08 06:59:00,
2013-03-08 01:00:00,38.0,30.1,30.26,SE,144,0.0,0.0,73,0.00,,---,0.00,VWS V14.00,2013-03-08 07:00:00,
2013-03-08 01:01:00,38.9,29.6,30.25,SE,144,0.0,0.0,69,0.00,,---,0.00,VWS V14.00,2013-03-08 07:01:00,
2013-03-08 01:02:00,38.0,30.1,30.26,SE,144,0.0,0.0,73,0.00,,---,0.00,VWS V14.00,2013-03-08 07:02:00,
2013-03-08 01:03:00,38.0,30.1,30.26,SE,144,0.0,0.0,73,0.00,,---,0.00,VWS V14.00,2013-03-08 07:03:00,
2013-03-08 01:04:00,37.9,30.0,30.26,SE,144,0.0,0.0,73,0.00,,---,0.00,VWS V14.00,2013-03-08 07:04:00,
2013-03-08 01:05:00,37.9,30.0,30.26,SE,144,0.0,0.0,73,0.00,,---,0.00,VWS V14.00,2013-03-08 07:05:00,
2013-03-08 01:06:00,38.8,29.5,30.25,SE,144,0.0,0.0,69,0.00,,---,0.00,VWS V14.00,2013-03-08 07:06:00,
2013-03-08 01:07:00,37.9,30.0,30.26,SE,144,0.0,0.0,73,0.00,,---,0.00,VWS V14.00,2013-03-08 07:07:00,
2013-03-08 01:08:00,37.8,29.9,30.26,SE,144,0.0,0.0,73,0.00,,---,0.00,VWS V14.00,2013-03-08 07:08:00,
2013-03-08 01:09:00,37.8,29.9,30.26,SE,144,0.0,0.0,73,0.00,,---,0.00,VWS V14.00,2013-03-08 07:09:00,
2013-03-08 01:10:00,37.9,30.0,30.26,SE,144,0.0,0.0,73,0.00,,---,0.00,VWS V14.00,2013-03-08 07:10:00,
2013-03-08 01:11:00,38.6,29.3,30.25,SE,144,0.0,0.0,69,0.00,,---,0.00,VWS V14.00,2013-03-08 07:11:00,
2013-03-08 01:12:00,37.9,30.0,30.25,SE,144,0.0,0.0,73,0.00,,---,0.00,VWS V14.00,2013-03-08 07:12:00,
2013-03-08 01:13:00,37.8,29.9,30.25,SE,144,0.0,0.0,73,0.00,,---,0.00,VWS V14.00,2013-03-08 07:13:00,
2013-03-08 01:14:00,37.8,29.9,30.25,SE,144,0.0,0.0,73,0.00,,---,0.00,VWS V14.00,2013-03-08 07:14:00,
2013-03-08 01:15:00,37.8,29.6,30.25,SE,144,0.0,0.0,72,0.00,,---,0.00,VWS V14.00,2013-03-08 07:15:00,
2013-03-08 01:16:00,38.8,29.5,30.25,SE,144,0.0,0.0,69,0.00,,---,0.00,VWS V14.00,2013-03-08 07:16:00,
2013-03-08 01:17:00,37.8,29.6,30.25,SE,144,0.0,0.0,72,0.00,,---,0.00,VWS V14.00,2013-03-08 07:17:00,
2013-03-08 01:18:00,37.8,29.6,30.25,SE,144,0.0,0.0,72,0.00,,---,0.00,VWS V14.00,2013-03-08 07:18:00,
2013-03-08 01:19:00,37.8,29.6,30.25,SE,144,0.0,0.0,72,0.00,,---,0.00,VWS V14.00,2013-03-08 07:19:00,
2013-03-08 01:20:00,37.8,29.9,30.25,SE,144,0.0,0.0,73,0.00,,---,0.00,VWS V14.00,2013-03-08 07:20:00,
2013-03-08 01:21:00,38.8,29.5,30.25,SE,144,0.0,0.0,69,0.00,,---,0.00,VWS V14.00,2013-03-08 07:21:00,
2013-03-08 01:22:00,37.8,29.9,30.25,SE,144,0.0,0.0,73,0.00,,---,0.00,VWS V14.00,2013-03-08 07:22:00,
2013-03-08 01:23:00,37.8,29.9,30.25,SE,144,0.0,0.0,73,0.00,,---,0.00,VWS V14.00,2013-03-08 07:23:00,
2013-03-08 01:24:00,37.8,29.9,30.25,SE,144,0.0,0.0,73,0.00,,---,0.00,VWS V14.00,2013-03-08 07:24:00,
2013-03-08 01:25:00,37.6,29.7,30.25,SE,144,0.0,0.0,73,0.00,,---,0.00,VWS V14.00,2013-03-08 07:25:00,
2013-03-08 01:26:00,38.6,29.7,30.25,SE,144,0.0,0.0,70,0.00,,---,0.00,VWS V14.00,2013-03-08 07:26:00,
2013-03-08 01:27:00,37.6,29.7,30.25,SE,144,0.0,0.0,73,0.00,,---,0.00,VWS V14.00,2013-03-08 07:27:00,
2013-03-08 01:28:00,37.6,29.7,30.25,SE,144,0.0,0.0,73,0.00,,---,0.00,VWS V14.00,2013-03-08 07:28:00,
2013-03-08 01:29:00,37.6,29.7,30.25,SE,144,0.0,0.0,73,0.00,,---,0.00,VWS V14.00,2013-03-08 07:29:00,
2013-03-08 01:30:00,37.6,29.7,30.25,SE,144,0.0,0.0,73,0.00,,---,0.00,VWS V14.00,2013-03-08 07:30:00,
2013-03-08 01:31:00,38.5,29.9,30.25,SE,144,0.0,0.0,71,0.00,,---,0.00,VWS V14.00,2013-03-08 07:31:00,
2013-03-08 01:32:00,37.5,29.6,30.25,SE,144,0.0,0.0,73,0.00,,---,0.00,VWS V14.00,2013-03-08 07:32:00,
2013-03-08 01:33:00,37.5,29.6,30.25,SE,144,0.0,0.0,73,0.00,,---,0.00,VWS V14.00,2013-03-08 07:33:00,
2013-03-08 01:34:00,37.5,30.0,30.25,SE,144,0.0,0.0,74,0.00,,---,0.00,VWS V14.00,2013-03-08 07:34:00,
2013-03-08 01:35:00,37.5,30.0,30.25,SE,144,0.0,0.0,74,0.00,,---,0.00,VWS V14.00,2013-03-08 07:35:00,
2013-03-08 01:36:00,38.3,29.7,30.26,SE,144,0.0,0.0,71,0.00,,---,0.00,VWS V14.00,2013-03-08 07:36:00,
2013-03-08 01:37:00,37.5,30.0,30.25,SE,144,0.0,0.0,74,0.00,,---,0.00,VWS V14.00,2013-03-08 07:37:00,
2013-03-08 01:38:00,37.5,30.0,30.25,SE,144,0.0,0.0,74,0.00,,---,0.00,VWS V14.00,2013-03-08 07:38:00,
2013-03-08 01:39:00,37.5,30.0,30.25,SE,144,0.0,0.0,74,0.00,,---,0.00,VWS V14.00,2013-03-08 07:39:00,
2013-03-08 01:40:00,37.5,30.0,30.25,SE,144,0.0,0.0,74,0.00,,---,0.00,VWS V14.00,2013-03-08 07:40:00,
2013-03-08 01:41:00,38.2,29.3,30.26,SE,144,0.0,0.0,70,0.00,,---,0.00,VWS V14.00,2013-03-08 07:41:00,
2013-03-08 01:42:00,37.5,30.0,30.25,SE,144,0.0,0.0,74,0.00,,---,0.00,VWS V14.00,2013-03-08 07:42:00,
2013-03-08 01:43:00,37.3,29.8,30.25,SE,144,0.0,0.0,74,0.00,,---,0.00,VWS V14.00,2013-03-08 07:43:00,
2013-03-08 01:44:00,37.3,29.8,30.25,SE,144,0.0,0.0,74,0.00,,---,0.00,VWS V14.00,2013-03-08 07:44:00,
2013-03-08 01:45:00,37.3,29.8,30.25,SE,144,0.0,0.0,74,0.00,,---,0.00,VWS V14.00,2013-03-08 07:45:00,
2013-03-08 01:46:00,38.2,29.6,30.26,SE,144,0.0,0.0,71,0.00,,---,0.00,VWS V14.00,2013-03-08 07:46:00,
2013-03-08 01:47:00,37.2,29.7,30.25,SE,144,0.0,0.0,74,0.00,,---,0.00,VWS V14.00,2013-03-08 07:47:00,
2013-03-08 01:48:00,37.2,29.7,30.25,SE,144,0.0,0.0,74,0.00,,---,0.00,VWS V14.00,2013-03-08 07:48:00,
2013-03-08 01:49:00,37.0,29.5,30.25,SE,144,0.0,0.0,74,0.00,,---,0.00,VWS V14.00,2013-03-08 07:49:00,
2013-03-08 01:50:00,37.0,29.5,30.25,SE,144,0.0,0.0,74,0.00,,---,0.00,VWS V14.00,2013-03-08 07:50:00,
2013-03-08 01:51:00,38.0,29.5,30.26,SE,144,0.0,0.0,71,0.00,,---,0.00,VWS V14.00,2013-03-08 07:51:00,
2013-03-08 01:52:00,37.0,29.5,30.25,SE,144,0.0,0.0,74,0.00,,---,0.00,VWS V14.00,2013-03-08 07:52:00,
2013-03-08 01:53:00,37.0,29.5,30.25,SE,144,0.0,0.0,74,0.00,,---,0.00,VWS V14.00,2013-03-08 07:53:00,
2013-03-08 01:54:00,36.9,29.4,30.25,SE,144,0.0,0.0,74,0.00,,---,0.00,VWS V14.00,2013-03-08 07:54:00,
2013-03-08 01:55:00,36.9,29.4,30.25,SE,144,0.0,0.0,74,0.00,,---,0.00,VWS V14.00,2013-03-08 07:55:00,
2013-03-08 01:56:00,38.0,29.8,30.26,SE,144,0.0,0.0,72,0.00,,---,0.00,VWS V14.00,2013-03-08 07:56:00,
2013-03-08 01:57:00,36.8,29.6,30.25,SE,144,0.0,0.0,75,0.00,,---,0.00,VWS V14.00,2013-03-08 07:57:00,
2013-03-08 01:58:00,36.8,29.6,30.25,SE,144,0.0,0.0,75,0.00,,---,0.00,VWS V14.00,2013-03-08 07:58:00,
2013-03-08 01:59:00,36.8,29.6,30.25,SE,144,0.0,0.0,75,0.00,,---,0.00,VWS V14.00,2013-03-08 07:59:00,
2013-03-08 02:00:00,36.8,29.6,30.25,SE,144,0.0,0.0,75,0.00,,---,0.00,VWS V14.00,2013-03-08 08:00:00,
2013-03-08 02:01:00,38.0,30.1,30.26,SE,144,0.0,0.0,73,0.00,,---,0.00,VWS V14.00,2013-03-08 08:01:00,
2013-03-08 02:02:00,36.8,29.6,30.25,SE,144,0.0,0.0,75,0.00,,---,0.00,VWS V14.00,2013-03-08 08:02:00,
2013-03-08 02:03:00,36.8,29.6,30.25,SE,144,0.0,0.0,75,0.00,,---,0.00,VWS V14.00,2013-03-08 08:03:00,
2013-03-08 02:04:00,36.8,29.6,30.25,SE,144,0.0,0.0,75,0.00,,---,0.00,VWS V14.00,2013-03-08 08:04:00,
2013-03-08 02:05:00,36.8,29.6,30.25,SE,144,0.0,0.0,75,0.00,,---,0.00,VWS V14.00,2013-03-08 08:05:00,
2013-03-08 02:06:00,37.9,30.0,30.26,SE,144,0.0,0.0,73,0.00,,---,0.00,VWS V14.00,2013-03-08 08:06:00,
2013-03-08 02:07:00,36.9,30.0,30.25,SE,144,0.0,0.0,76,0.00,,---,0.00,VWS V14.00,2013-03-08 08:07:00,
2013-03-08 02:08:00,36.9,30.0,30.25,SE,144,0.0,0.0,76,0.00,,---,0.00,VWS V14.00,2013-03-08 08:08:00,
2013-03-08 02:09:00,36.9,30.0,30.25,SE,144,0.0,0.0,76,0.00,,---,0.00,VWS V14.00,2013-03-08 08:09:00,
2013-03-08 02:10:00,36.9,29.7,30.25,SE,144,0.0,0.0,75,0.00,,---,0.00,VWS V14.00,2013-03-08 08:10:00,
2013-03-08 02:11:00,37.9,30.0,30.26,SE,144,0.0,0.0,73,0.00,,---,0.00,VWS V14.00,2013-03-08 08:11:00,
2013-03-08 02:12:00,36.9,29.7,30.25,SE,144,0.0,0.0,75,0.00,,---,0.00,VWS V14.00,2013-03-08 08:12:00,
2013-03-08 02:13:00,36.9,29.7,30.25,SE,144,0.0,0.0,75,0.00,,---,0.00,VWS V14.00,2013-03-08 08:13:00,
2013-03-08 02:14:00,36.9,30.0,30.25,SE,144,0.0,0.0,76,0.00,,---,0.00,VWS V14.00,2013-03-08 08:14:00,
2013-03-08 02:15:00,36.9,29.7,30.25,SE,144,0.0,0.0,75,0.00,,---,0.00,VWS V14.00,2013-03-08 08:15:00,
2013-03-08 02:16:00,37.8,29.6,30.25,SE,144,0.0,0.0,72,0.00,,---,0.00,VWS V14.00,2013-03-08 08:16:00,
2013-03-08 02:17:00,36.9,29.7,30.25,SE,144,0.0,0.0,75,0.00,,---,0.00,VWS V14.00,2013-03-08 08:17:00,
2013-03-08 02:18:00,36.9,29.7,30.25,SE,144,0.0,0.0,75,0.00,,---,0.00,VWS V14.00,2013-03-08 08:18:00,
2013-03-08 02:19:00,36.8,29.6,30.25,SE,144,0.0,0.0,75,0.00,,---,0.00,VWS V14.00,2013-03-08 08:19:00,
2013-03-08 02:20:00,36.8,29.6,30.25,SE,144,0.0,0.0,75,0.00,,---,0.00,VWS V14.00,2013-03-08 08:20:00,
2013-03-08 02:21:00,37.8,29.9,30.25,SE,144,0.0,0.0,73,0.00,,---,0.00,VWS V14.00,2013-03-08 08:21:00,
2013-03-08 02:22:00,36.8,30.0,30.24,SE,144,0.0,0.0,76,0.00,,---,0.00,VWS V14.00,2013-03-08 08:22:00,
2013-03-08 02:23:00,36.8,30.0,30.24,SE,144,0.0,0.0,76,0.00,,---,0.00,VWS V14.00,2013-03-08 08:23:00,
2013-03-08 02:24:00,36.8,30.0,30.24,SE,144,0.0,0.0,76,0.00,,---,0.00,VWS V14.00,2013-03-08 08:24:00,
2013-03-08 02:25:00,36.8,30.0,30.24,SE,144,0.0,0.0,76,0.00,,---,0.00,VWS V14.00,2013-03-08 08:25:00,
2013-03-08 02:26:00,37.6,29.7,30.25,SE,144,0.0,0.0,73,0.00,,---,0.00,VWS V14.00,2013-03-08 08:26:00,
2013-03-08 02:27:00,36.9,30.0,30.24,SE,144,0.0,0.0,76,0.00,,---,0.00,VWS V14.00,2013-03-08 08:27:00,
2013-03-08 02:28:00,36.9,30.0,30.24,SE,144,0.0,0.0,76,0.00,,---,0.00,VWS V14.00,2013-03-08 08:28:00,
2013-03-08 02:29:00,36.9,30.0,30.24,SE,144,0.0,0.0,76,0.00,,---,0.00,VWS V14.00,2013-03-08 08:29:00,
2013-03-08 02:30:00,37.0,30.1,30.24,SE,144,0.0,0.0,76,0.00,,---,0.00,VWS V14.00,2013-03-08 08:30:00,
2013-03-08 02:31:00,37.5,29.6,30.25,SE,144,0.0,0.0,73,0.00,,---,0.00,VWS V14.00,2013-03-08 08:31:00,
2013-03-08 02:32:00,37.0,30.1,30.24,SE,144,0.0,0.0,76,0.00,,---,0.00,VWS V14.00,2013-03-08 08:32:00,
2013-03-08 02:33:00,37.0,30.1,30.24,SE,144,0.0,0.0,76,0.00,,---,0.00,VWS V14.00,2013-03-08 08:33:00,
2013-03-08 02:34:00,37.0,30.1,30.24,SE,144,0.0,0.0,76,0.00,,---,0.00,VWS V14.00,2013-03-08 08:34:00,
2013-03-08 02:35:00,37.0,30.1,30.24,SE,144,0.0,0.0,76,0.00,,---,0.00,VWS V14.00,2013-03-08 08:35:00,
2013-03-08 02:36:00,37.5,30.0,30.25,SE,144,0.0,0.0,74,0.00,,---,0.00,VWS V14.00,2013-03-08 08:36:00,
2013-03-08 02:37:00,37.0,30.1,30.24,SE,144,0.0,0.0,76,0.00,,---,0.00,VWS V14.00,2013-03-08 08:37:00,
2013-03-08 02:38:00,37.2,30.4,30.24,SE,144,0.0,0.0,76,0.00,,---,0.00,VWS V14.00,2013-03-08 08:38:00,
2013-03-08 02:39:00,37.2,30.4,30.24,SE,144,0.0,0.0,76,0.00,,---,0.00,VWS V14.00,2013-03-08 08:39:00,
2013-03-08 02:40:00,37.2,30.4,30.24,SE,144,0.0,0.0,76,0.00,,---,0.00,VWS V14.00,2013-03-08 08:40:00,
2013-03-08 02:41:00,37.5,30.0,30.25,SE,144,0.0,0.0,74,0.00,,---,0.00,VWS V14.00,2013-03-08 08:41:00,
2013-03-08 02:42:00,37.0,30.1,30.25,SE,144,0.0,0.0,76,0.00,,---,0.00,VWS V14.00,2013-03-08 08:42:00,
2013-03-08 02:43:00,37.0,30.1,30.25,SE,144,0.0,0.0,76,0.00,,---,0.00,VWS V14.00,2013-03-08 08:43:00,
2013-03-08 02:44:00,37.0,30.1,30.25,SE,144,0.0,0.0,76,0.00,,---,0.00,VWS V14.00,2013-03-08 08:44:00,
2013-03-08 02:45:00,37.0,30.1,30.25,SE,144,0.0,0.0,76,0.00,,---,0.00,VWS V14.00,2013-03-08 08:45:00,
2013-03-08 02:46:00,37.2,29.7,30.25,SE,144,0.0,0.0,74,0.00,,---,0.00,VWS V14.00,2013-03-08 08:46:00,
2013-03-08 02:47:00,36.9,30.0,30.25,SE,144,0.0,0.0,76,0.00,,---,0.00,VWS V14.00,2013-03-08 08:47:00,
2013-03-08 02:48:00,36.9,30.0,30.25,SE,144,0.0,0.0,76,0.00,,---,0.00,VWS V14.00,2013-03-08 08:48:00,
2013-03-08 02:49:00,36.9,30.0,30.25,SE,144,0.0,0.0,76,0.00,,---,0.00,VWS V14.00,2013-03-08 08:49:00,
2013-03-08 02:50:00,36.8,30.0,30.25,SE,144,0.0,0.0,76,0.00,,---,0.00,VWS V14.00,2013-03-08 08:50:00,
2013-03-08 02:51:00,37.0,29.5,30.25,SE,144,0.0,0.0,74,0.00,,---,0.00,VWS V14.00,2013-03-08 08:51:00,
2013-03-08 02:52:00,36.8,30.0,30.25,SE,144,0.0,0.0,76,0.00,,---,0.00,VWS V14.00,2013-03-08 08:52:00,
2013-03-08 02:53:00,36.8,30.0,30.25,SE,144,0.0,0.0,76,0.00,,---,0.00,VWS V14.00,2013-03-08 08:53:00,
2013-03-08 02:54:00,36.8,30.0,30.25,SE,144,0.0,0.0,76,0.00,,---,0.00,VWS V14.00,2013-03-08 08:54:00,
2013-03-08 02:55:00,36.6,29.8,30.25,SE,144,0.0,0.0,76,0.00,,---,0.00,VWS V14.00,2013-03-08 08:55:00,
2013-03-08 02:56:00,36.8,29.6,30.25,SE,144,0.0,0.0,75,0.00,,---,0.00,VWS V14.00,2013-03-08 08:56:00,
2013-03-08 02:57:00,36.6,29.8,30.25,SE,144,0.0,0.0,76,0.00,,---,0.00,VWS V14.00,2013-03-08 08:57:00,
2013-03-08 02:58:00,36.6,29.8,30.25,SE,144,0.0,0.0,76,0.00,,---,0.00,VWS V14.00,2013-03-08 08:58:00,
2013-03-08 02:59:00,36.6,29.8,30.25,SE,144,0.0,0.0,76,0.00,,---,0.00,VWS V14.00,2013-03-08 08:59:00,
2013-03-08 03:00:00,36.6,29.8,30.25,SE,144,0.0,0.0,76,0.00,,---,0.00,VWS V14.00,2013-03-08 09:00:00,
2013-03-08 03:01:00,36.8,29.6,30.25,SE,144,0.0,0.0,75,0.00,,---,0.00,VWS V14.00,2013-03-08 09:01:00,
2013-03-08 03:02:00,36.5,29.7,30.25,SE,144,0.0,0.0,76,0.00,,---,0.00,VWS V14.00,2013-03-08 09:02:00,
2013-03-08 03:03:00,36.5,29.7,30.25,SE,144,0.0,0.0,76,0.00,,---,0.00,VWS V14.00,2013-03-08 09:03:00,
2013-03-08 03:04:00,36.5,29.7,30.25,SE,144,0.0,0.0,76,0.00,,---,0.00,VWS V14.00,2013-03-08 09:04:00,
2013-03-08 03:05:00,36.5,29.7,30.25,SE,144,0.0,0.0,76,0.00,,---,0.00,VWS V14.00,2013-03-08 09:05:00,
2013-03-08 03:06:00,36.9,29.7,30.25,SE,144,0.0,0.0,75,0.00,,---,0.00,VWS V14.00,2013-03-08 09:06:00,
2013-03-08 03:07:00,36.5,30.0,30.25,SE,144,0.0,0.0,77,0.00,,---,0.00,VWS V14.00,2013-03-08 09:07:00,
2013-03-08 03:08:00,36.5,30.0,30.25,SE,144,0.0,0.0,77,0.00,,---,0.00,VWS V14.00,2013-03-08 09:08:00,
2013-03-08 03:09:00,36.5,30.0,30.25,SE,144,0.0,0.0,77,0.00,,---,0.00,VWS V14.00,2013-03-08 09:09:00,
2013-03-08 03:10:00,36.5,30.0,30.25,SE,144,0.0,0.0,77,0.00,,---,0.00,VWS V14.00,2013-03-08 09:10:00,
2013-03-08 03:11:00,36.9,29.7,30.25,SE,144,0.0,0.0,75,0.00,,---,0.00,VWS V14.00,2013-03-08 09:11:00,
2013-03-08 03:12:00,36.3,29.8,30.25,SE,144,0.0,0.0,77,0.00,,---,0.00,VWS V14.00,2013-03-08 09:12:00,
2013-03-08 03:13:00,36.3,29.8,30.25,SE,144,0.0,0.0,77,0.00,,---,0.00,VWS V14.00,2013-03-08 09:13:00,
2013-03-08 03:14:00,36.3,29.8,30.25,SE,144,0.0,0.0,77,0.00,,---,0.00,VWS V14.00,2013-03-08 09:14:00,
2013-03-08 03:15:00,36.5,30.3,30.25,SE,144,0.0,0.0,78,0.00,,---,0.00,VWS V14.00,2013-03-08 09:15:00,
2013-03-08 03:16:00,36.9,29.7,30.25,SE,144,0.0,0.0,75,0.00,,---,0.00,VWS V14.00,2013-03-08 09:16:00,
2013-03-08 03:17:00,36.5,30.3,30.25,SE,144,0.0,0.0,78,0.00,,---,0.00,VWS V14.00,2013-03-08 09:17:00,
2013-03-08 03:18:00,36.5,30.3,30.25,SE,144,0.0,0.0,78,0.00,,---,0.00,VWS V14.00,2013-03-08 09:18:00,
2013-03-08 03:19:00,36.5,30.3,30.25,SE,144,0.0,0.0,78,0.00,,---,0.00,VWS V14.00,2013-03-08 09:19:00,
2013-03-08 03:20:00,36.5,30.3,30.25,SE,144,0.0,0.0,78,0.00,,---,0.00,VWS V14.00,2013-03-08 09:20:00,
2013-03-08 03:21:00,36.8,30.0,30.25,SE,144,0.0,0.0,76,0.00,,---,0.00,VWS V14.00,2013-03-08 09:21:00,
2013-03-08 03:22:00,36.5,30.0,30.25,SE,144,0.0,0.0,77,0.00,,---,0.00,VWS V14.00,2013-03-08 09:22:00,
2013-03-08 03:23:00,36.5,30.0,30.25,SE,144,0.0,0.0,77,0.00,,---,0.00,VWS V14.00,2013-03-08 09:23:00,
2013-03-08 03:24:00,36.3,29.8,30.25,SE,144,0.0,0.0,77,0.00,,---,0.00,VWS V14.00,2013-03-08 09:24:00,
2013-03-08 03:25:00,36.3,29.8,30.25,SE,144,0.0,0.0,77,0.00,,---,0.00,VWS V14.00,2013-03-08 09:25:00,
2013-03-08 03:26:00,36.8,30.0,30.24,SE,144,0.0,0.0,76,0.00,,---,0.00,VWS V14.00,2013-03-08 09:26:00,
2013-03-08 03:27:00,36.3,29.8,30.25,SE,144,0.0,0.0,77,0.00,,---,0.00,VWS V14.00,2013-03-08 09:27:00,
2013-03-08 03:28:00,36.3,29.8,30.25,SE,144,0.0,0.0,77,0.00,,---,0.00,VWS V14.00,2013-03-08 09:28:00,
2013-03-08 03:29:00,36.3,30.1,30.25,SE,144,0.0,0.0,78,0.00,,---,0.00,VWS V14.00,2013-03-08 09:29:00,
2013-03-08 03:30:00,36.2,30.0,30.25,SE,144,0.0,0.0,78,0.00,,---,0.00,VWS V14.00,2013-03-08 09:30:00,
2013-03-08 03:31:00,37.0,30.1,30.24,SE,144,0.0,0.0,76,0.00,,---,0.00,VWS V14.00,2013-03-08 09:31:00,
2013-03-08 03:32:00,36.2,30.0,30.26,SE,144,0.0,0.0,78,0.00,,---,0.00,VWS V14.00,2013-03-08 09:32:00,
2013-03-08 03:33:00,36.2,30.0,30.26,SE,144,0.0,0.0,78,0.00,,---,0.00,VWS V14.00,2013-03-08 09:33:00,
2013-03-08 03:34:00,36.0,29.8,30.26,SE,144,0.0,0.0,78,0.00,,---,0.00,VWS V14.00,2013-03-08 09:34:00,
2013-03-08 03:35:00,36.0,29.8,30.26,SE,144,0.0,0.0,78,0.00,,---,0.00,VWS V14.00,2013-03-08 09:35:00,
2013-03-08 03:36:00,37.0,30.1,30.24,SE,144,0.0,0.0,76,0.00,,---,0.00,VWS V14.00,2013-03-08 09:36:00,
2013-03-08 03:37:00,36.0,29.8,30.26,SE,144,0.0,0.0,78,0.00,,---,0.00,VWS V14.00,2013-03-08 09:37:00,
2013-03-08 03:38:00,36.0,30.1,30.26,SE,144,0.0,0.0,79,0.00,,---,0.00,VWS V14.00,2013-03-08 09:38:00,
2013-03-08 03:39:00,36.0,30.1,30.26,SE,144,0.0,0.0,79,0.00,,---,0.00,VWS V14.00,2013-03-08 09:39:00,
2013-03-08 03:40:00,36.0,30.1,30.26,SE,144,0.0,0.0,79,0.00,,---,0.00,VWS V14.00,2013-03-08 09:40:00,
2013-03-08 03:41:00,37.2,30.4,30.24,SE,144,0.0,0.0,76,0.00,,---,0.00,VWS V14.00,2013-03-08 09:41:00,
2013-03-08 03:42:00,36.0,30.1,30.26,SE,144,0.0,0.0,79,0.00,,---,0.00,VWS V14.00,2013-03-08 09:42:00,
2013-03-08 03:43:00,36.0,30.1,30.26,SE,144,0.0,0.0,79,0.00,,---,0.00,VWS V14.00,2013-03-08 09:43:00,
2013-03-08 03:44:00,36.0,30.1,30.26,SE,144,0.0,0.0,79,0.00,,---,0.00,VWS V14.00,2013-03-08 09:44:00,
2013-03-08 03:45:00,35.9,30.0,30.26,SE,144,0.0,0.0,79,0.00,,---,0.00,VWS V14.00,2013-03-08 09:45:00,
2013-03-08 03:46:00,36.9,30.0,30.25,SE,144,0.0,0.0,76,0.00,,---,0.00,VWS V14.00,2013-03-08 09:46:00,
2013-03-08 03:47:00,35.9,30.0,30.26,SE,144,0.0,0.0,79,0.00,,---,0.00,VWS V14.00,2013-03-08 09:47:00,
2013-03-08 03:48:00,35.9,30.0,30.26,SE,144,0.0,0.0,79,0.00,,---,0.00,VWS V14.00,2013-03-08 09:48:00,
2013-03-08 03:49:00,35.9,30.0,30.27,SE,144,0.0,0.0,79,0.00,,---,0.00,VWS V14.00,2013-03-08 09:49:00,
2013-03-08 03:50:00,35.9,30.0,30.27,SE,144,0.0,0.0,79,0.00,,---,0.00,VWS V14.00,2013-03-08 09:50:00,
2013-03-08 03:51:00,36.8,30.0,30.25,SE,144,0.0,0.0,76,0.00,,---,0.00,VWS V14.00,2013-03-08 09:51:00,
2013-03-08 03:52:00,35.9,30.0,30.27,SE,144,0.0,0.0,79,0.00,,---,0.00,VWS V14.00,2013-03-08 09:52:00,
2013-03-08 03:53:00,35.9,30.0,30.27,SE,144,0.0,0.0,79,0.00,,---,0.00,VWS V14.00,2013-03-08 09:53:00,
2013-03-08 03:54:00,36.0,30.1,30.27,SE,144,0.0,0.0,79,0.00,,---,0.00,VWS V14.00,2013-03-08 09:54:00,
2013-03-08 03:55:00,36.0,30.1,30.27,SE,144,0.0,0.0,79,0.00,,---,0.00,VWS V14.00,2013-03-08 09:55:00,
2013-03-08 03:56:00,36.6,29.8,30.25,SE,144,0.0,0.0,76,0.00,,---,0.00,VWS V14.00,2013-03-08 09:56:00,
2013-03-08 03:57:00,36.0,30.1,30.27,SE,144,0.0,0.0,79,0.00,,---,0.00,VWS V14.00,2013-03-08 09:57:00,
2013-03-08 03:58:00,36.0,30.1,30.27,SE,144,0.0,0.0,79,0.00,,---,0.00,VWS V14.00,2013-03-08 09:58:00,
2013-03-08 03:59:00,36.2,30.3,30.27,SE,144,0.0,0.0,79,0.00,,---,0.00,VWS V14.00,2013-03-08 09:59:00,
2013-03-08 04:00:00,36.2,30.3,30.27,SE,144,0.0,0.0,79,0.00,,---,0.00,VWS V14.00,2013-03-08 10:00:00,
2013-03-08 04:01:00,36.5,29.7,30.25,SE,144,0.0,0.0,76,0.00,,---,0.00,VWS V14.00,2013-03-08 10:01:00,
2013-03-08 04:02:00,36.3,30.4,30.27,SE,144,0.0,0.0,79,0.00,,---,0.00,VWS V14.00,2013-03-08 10:02:00,
2013-03-08 04:03:00,36.3,30.4,30.27,SE,144,0.0,0.0,79,0.00,,---,0.00,VWS V14.00,2013-03-08 10:03:00,
2013-03-08 04:04:00,36.3,30.4,30.27,SE,144,0.0,0.0,79,0.00,,---,0.00,VWS V14.00,2013-03-08 10:04:00,
2013-03-08 04:05:00,36.5,30.6,30.27,SE,144,0.0,0.0,79,0.00,,---,0.00,VWS V14.00,2013-03-08 10:05:00,
2013-03-08 04:06:00,36.5,30.0,30.25,SE,144,0.0,0.0,77,0.00,,---,0.00,VWS V14.00,2013-03-08 10:06:00,
2013-03-08 04:07:00,36.5,30.6,30.27,SE,144,0.0,0.0,79,0.00,,---,0.00,VWS V14.00,2013-03-08 10:07:00,
2013-03-08 04:08:00,36.6,30.7,30.27,SE,144,0.0,0.0,79,0.00,,---,0.00,VWS V14.00,2013-03-08 10:08:00,
2013-03-08 04:10:00,36.6,30.7,30.27,SE,144,0.0,0.0,79,0.00,,---,0.00,VWS V14.00,2013-03-08 10:10:00,
2013-03-08 04:11:00,36.3,29.8,30.25,SE,144,0.0,0.0,77,0.00,,---,0.00,VWS V14.00,2013-03-08 10:11:00,
2013-03-08 04:12:00,36.8,30.9,30.27,SE,144,0.0,0.0,79,0.00,,---,0.00,VWS V14.00,2013-03-08 10:12:00,
2013-03-08 04:13:00,36.8,30.9,30.27,SE,144,0.0,0.0,79,0.00,,---,0.00,VWS V14.00,2013-03-08 10:13:00,
2013-03-08 04:14:00,36.9,31.3,30.27,SE,144,0.0,0.0,80,0.00,,---,0.00,VWS V14.00,2013-03-08 10:14:00,
2013-03-08 04:15:00,36.9,31.3,30.27,SE,144,0.0,0.0,80,0.00,,---,0.00,VWS V14.00,2013-03-08 10:15:00,
2013-03-08 04:16:00,36.5,30.3,30.25,SE,144,0.0,0.0,78,0.00,,---,0.00,VWS V14.00,2013-03-08 10:16:00,
2013-03-08 04:17:00,37.0,31.1,30.28,SE,144,0.0,0.0,79,0.00,,---,0.00,VWS V14.00,2013-03-08 10:17:00,
2013-03-08 04:18:00,37.0,31.1,30.28,SE,144,0.0,0.0,79,0.00,,---,0.00,VWS V14.00,2013-03-08 10:18:00,
2013-03-08 04:19:00,37.2,31.3,30.28,SE,144,0.0,0.0,79,0.00,,---,0.00,VWS V14.00,2013-03-08 10:19:00,
2013-03-08 04:20:00,37.2,31.6,30.28,SE,144,0.0,0.0,80,0.00,,---,0.00,VWS V14.00,2013-03-08 10:20:00,
2013-03-08 04:21:00,36.5,30.3,30.25,SE,144,0.0,0.0,78,0.00,,---,0.00,VWS V14.00,2013-03-08 10:21:00,
2013-03-08 04:22:00,37.3,31.7,30.28,SE,144,0.0,0.0,80,0.00,,---,0.00,VWS V14.00,2013-03-08 10:22:00,
2013-03-08 04:23:00,37.5,31.9,30.28,SE,144,0.0,0.0,80,0.00,,---,0.00,VWS V14.00,2013-03-08 10:23:00,
2013-03-08 04:24:00,37.5,31.6,30.28,SE,144,0.0,0.0,79,0.00,,---,0.00,VWS V14.00,2013-03-08 10:24:00,
2013-03-08 04:25:00,37.5,31.6,30.28,SE,144,0.0,0.0,79,0.00,,---,0.00,VWS V14.00,2013-03-08 10:25:00,
2013-03-08 04:26:00,36.3,29.8,30.25,SE,144,0.0,0.0,77,0.00,,---,0.00,VWS V14.00,2013-03-08 10:26:00,
2013-03-08 04:27:00,37.6,31.7,30.28,SE,144,0.0,0.0,79,0.00,,---,0.00,VWS V14.00,2013-03-08 10:27:00,
2013-03-08 04:28:00,37.6,31.7,30.28,SE,144,0.0,0.0,79,0.00,,---,0.00,VWS V14.00,2013-03-08 10:28:00,
2013-03-08 04:29:00,37.6,31.7,30.28,SE,144,0.0,0.0,79,0.00,,---,0.00,VWS V14.00,2013-03-08 10:29:00,
2013-03-08 04:30:00,37.6,31.7,30.28,SE,144,0.0,0.0,79,0.00,,---,0.00,VWS V14.00,2013-03-08 10:30:00,
2013-03-08 04:31:00,36.2,30.0,30.25,SE,144,0.0,0.0,78,0.00,,---,0.00,VWS V14.00,2013-03-08 10:31:00,
2013-03-08 04:32:00,37.6,31.7,30.28,SE,144,0.0,0.0,79,0.00,,---,0.00,VWS V14.00,2013-03-08 10:32:00,
2013-03-08 04:33:00,37.6,31.7,30.28,SE,144,0.0,0.0,79,0.00,,---,0.00,VWS V14.00,2013-03-08 10:33:00,
2013-03-08 04:34:00,37.8,31.9,30.28,SE,144,0.0,0.0,79,0.00,,---,0.00,VWS V14.00,2013-03-08 10:34:00,
2013-03-08 04:35:00,37.8,31.9,30.28,SE,144,0.0,0.0,79,0.00,,---,0.00,VWS V14.00,2013-03-08 10:35:00,
2013-03-08 04:36:00,36.0,29.8,30.26,SE,144,0.0,0.0,78,0.00,,---,0.00,VWS V14.00,2013-03-08 10:36:00,
2013-03-08 04:37:00,37.6,31.4,30.28,SE,144,0.0,0.0,78,0.00,,---,0.00,VWS V14.00,2013-03-08 10:37:00,
2013-03-08 04:38:00,37.6,31.4,30.28,SE,144,0.0,0.0,78,0.00,,---,0.00,VWS V14.00,2013-03-08 10:38:00,
2013-03-08 04:39:00,37.6,31.7,30.28,SE,144,0.0,0.0,79,0.00,,---,0.00,VWS V14.00,2013-03-08 10:39:00,
2013-03-08 04:40:00,37.6,31.7,30.28,SE,144,0.0,0.0,79,0.00,,---,0.00,VWS V14.00,2013-03-08 10:40:00,
2013-03-08 04:41:00,36.0,30.1,30.26,SE,144,0.0,0.0,79,0.00,,---,0.00,VWS V14.00,2013-03-08 10:41:00,
2013-03-08 04:42:00,37.5,31.6,30.28,SE,144,0.0,0.0,79,0.00,,---,0.00,VWS V14.00,2013-03-08 10:42:00,
2013-03-08 04:43:00,37.5,31.6,30.28,SE,144,0.0,0.0,79,0.00,,---,0.00,VWS V14.00,2013-03-08 10:43:00,
2013-03-08 04:44:00,37.5,31.6,30.28,SE,144,0.0,0.0,79,0.00,,---,0.00,VWS V14.00,2013-03-08 10:44:00,
2013-03-08 04:45:00,37.5,31.6,30.28,SE,144,0.0,0.0,79,0.00,,---,0.00,VWS V14.00,2013-03-08 10:45:00,
2013-03-08 04:46:00,35.9,30.0,30.26,SE,144,0.0,0.0,79,0.00,,---,0.00,VWS V14.00,2013-03-08 10:46:00,
2013-03-08 04:47:00,37.5,31.6,30.28,SE,144,0.0,0.0,79,0.00,,---,0.00,VWS V14.00,2013-03-08 10:47:00,
2013-03-08 04:48:00,37.5,31.9,30.28,SE,144,0.0,0.0,80,0.00,,---,0.00,VWS V14.00,2013-03-08 10:48:00,
2013-03-08 04:49:00,37.6,32.0,30.28,SE,144,0.0,0.0,80,0.00,,---,0.00,VWS V14.00,2013-03-08 10:49:00,
2013-03-08 04:50:00,37.6,32.0,30.28,SE,144,0.0,0.0,80,0.00,,---,0.00,VWS V14.00,2013-03-08 10:50:00,
2013-03-08 04:51:00,35.9,30.0,30.27,SE,144,0.0,0.0,79,0.00,,---,0.00,VWS V14.00,2013-03-08 10:51:00,
2013-03-08 04:52:00,37.6,31.7,30.28,SE,144,0.0,0.0,79,0.00,,---,0.00,VWS V14.00,2013-03-08 10:52:00,
2013-03-08 04:53:00,37.6,31.7,30.28,SE,144,0.0,0.0,79,0.00,,---,0.00,VWS V14.00,2013-03-08 10:53:00,
2013-03-08 04:54:00,37.8,31.9,30.28,SE,144,0.0,0.0,79,0.00,,---,0.00,VWS V14.00,2013-03-08 10:54:00,
2013-03-08 04:55:00,37.8,31.9,30.28,SE,144,0.0,0.0,79,0.00,,---,0.00,VWS V14.00,2013-03-08 10:55:00,
2013-03-08 04:56:00,36.0,30.1,30.27,SE,144,0.0,0.0,79,0.00,,---,0.00,VWS V14.00,2013-03-08 10:56:00,
2013-03-08 04:57:00,37.8,31.9,30.28,SE,144,0.0,0.0,79,0.00,,---,0.00,VWS V14.00,2013-03-08 10:57:00,
2013-03-08 04:58:00,37.9,32.0,30.28,SE,144,0.0,0.0,79,0.00,,---,0.00,VWS V14.00,2013-03-08 10:58:00,
2013-03-08 04:59:00,37.9,32.0,30.28,SE,144,0.0,0.0,79,0.00,,---,0.00,VWS V14.00,2013-03-08 10:59:00,
2013-03-08 05:00:00,38.0,32.1,30.27,SE,144,0.0,0.0,79,0.00,,---,0.00,VWS V14.00,2013-03-08 11:00:00,
2013-03-08 05:01:00,36.2,30.3,30.27,SE,144,0.0,0.0,79,0.00,,---,0.00,VWS V14.00,2013-03-08 11:01:00,
2013-03-08 05:02:00,38.0,32.1,30.28,SE,144,0.0,0.0,79,0.00,,---,0.00,VWS V14.00,2013-03-08 11:02:00,
2013-03-08 05:03:00,38.0,31.8,30.28,SE,144,0.0,0.0,78,0.00,,---,0.00,VWS V14.00,2013-03-08 11:03:00,
2013-03-08 05:04:00,38.0,31.8,30.28,SE,144,0.0,0.0,78,0.00,,---,0.00,VWS V14.00,2013-03-08 11:04:00,
2013-03-08 05:05:00,38.2,32.0,30.28,SE,144,0.0,0.0,78,0.00,,---,0.00,VWS V14.00,2013-03-08 11:05:00,
2013-03-08 05:06:00,36.5,30.6,30.27,SE,144,0.0,0.0,79,0.00,,---,0.00,VWS V14.00,2013-03-08 11:06:00,
2013-03-08 05:07:00,38.2,32.0,30.27,SE,144,0.0,0.0,78,0.00,,---,0.00,VWS V14.00,2013-03-08 11:07:00,
2013-03-08 05:08:00,38.2,32.0,30.27,SE,144,0.0,0.0,78,0.00,,---,0.00,VWS V14.00,2013-03-08 11:08:00,
2013-03-08 05:09:00,38.2,32.0,30.27,SE,144,0.0,0.0,78,0.00,,---,0.00,VWS V14.00,2013-03-08 11:09:00,
2013-03-08 05:10:00,38.2,32.0,30.27,SE,144,0.0,0.0,78,0.00,,---,0.00,VWS V14.00,2013-03-08 11:10:00,
2013-03-08 05:11:00,36.8,30.9,30.27,SE,144,0.0,0.0,79,0.00,,---,0.00,VWS V14.00,2013-03-08 11:11:00,
2013-03-08 05:12:00,38.0,31.8,30.28,SE,144,0.0,0.0,78,0.00,,---,0.00,VWS V14.00,2013-03-08 11:12:00,
2013-03-08 05:13:00,38.0,31.8,30.28,SE,144,0.0,0.0,78,0.00,,---,0.00,VWS V14.00,2013-03-08 11:13:00,
2013-03-08 05:14:00,38.0,31.8,30.29,SE,144,0.0,0.0,78,0.00,,---,0.00,VWS V14.00,2013-03-08 11:14:00,
2013-03-08 05:15:00,38.0,31.8,30.29,SE,144,0.0,0.0,78,0.00,,---,0.00,VWS V14.00,2013-03-08 11:15:00,
2013-03-08 05:16:00,36.9,31.0,30.27,SE,144,0.0,0.0,79,0.00,,---,0.00,VWS V14.00,2013-03-08 11:16:00,
2013-03-08 05:17:00,38.2,32.0,30.29,SE,144,0.0,0.0,78,0.00,,---,0.00,VWS V14.00,2013-03-08 11:17:00,
2013-03-08 05:18:00,38.2,32.0,30.29,SE,144,0.0,0.0,78,0.00,,---,0.00,VWS V14.00,2013-03-08 11:18:00,
2013-03-08 05:19:00,38.2,31.6,30.29,SE,144,0.0,0.0,77,0.00,,---,0.00,VWS V14.00,2013-03-08 11:19:00,
2013-03-08 05:20:00,38.2,31.6,30.29,SE,144,0.0,0.0,77,0.00,,---,0.00,VWS V14.00,2013-03-08 11:20:00,
2013-03-08 05:21:00,37.2,31.3,30.28,SE,144,0.0,0.0,79,0.00,,---,0.00,VWS V14.00,2013-03-08 11:21:00,
2013-03-08 05:22:00,38.2,31.6,30.29,SE,144,0.0,0.0,77,0.00,,---,0.00,VWS V14.00,2013-03-08 11:22:00,
2013-03-08 05:23:00,38.2,31.6,30.29,SE,144,0.0,0.0,77,0.00,,---,0.00,VWS V14.00,2013-03-08 11:23:00,
2013-03-08 05:24:00,38.2,31.6,30.29,SE,144,0.0,0.0,77,0.00,,---,0.00,VWS V14.00,2013-03-08 11:24:00,
2013-03-08 05:25:00,38.2,31.6,30.28,SE,144,0.0,0.0,77,0.00,,---,0.00,VWS V14.00,2013-03-08 11:25:00,
2013-03-08 05:26:00,37.6,31.7,30.28,SE,144,0.0,0.0,79,0.00,,---,0.00,VWS V14.00,2013-03-08 11:26:00,
2013-03-08 05:27:00,38.0,31.8,30.28,SE,144,0.0,0.0,78,0.00,,---,0.00,VWS V14.00,2013-03-08 11:27:00,
2013-03-08 05:28:00,38.0,31.8,30.29,SE,144,0.0,0.0,78,0.00,,---,0.00,VWS V14.00,2013-03-08 11:28:00,
2013-03-08 05:29:00,38.0,31.8,30.29,SE,144,0.0,0.0,78,0.00,,---,0.00,VWS V14.00,2013-03-08 11:29:00,
2013-03-08 05:30:00,37.9,31.7,30.29,SE,144,0.0,0.0,78,0.00,,---,0.00,VWS V14.00,2013-03-08 11:30:00,
2013-03-08 05:31:00,37.6,31.7,30.28,SE,144,0.0,0.0,79,0.00,,---,0.00,VWS V14.00,2013-03-08 11:31:00,
2013-03-08 05:32:00,37.9,31.7,30.28,SE,144,0.0,0.0,78,0.00,,---,0.00,VWS V14.00,2013-03-08 11:32:00,
2013-03-08 05:33:00,37.8,31.9,30.28,SE,144,0.0,0.0,79,0.00,,---,0.00,VWS V14.00,2013-03-08 11:33:00,
2013-03-08 05:34:00,37.8,31.9,30.28,SE,144,0.0,0.0,79,0.00,,---,0.00,VWS V14.00,2013-03-08 11:34:00,
2013-03-08 05:35:00,37.8,31.9,30.28,SE,144,0.0,0.0,79,0.00,,---,0.00,VWS V14.00,2013-03-08 11:35:00,
2013-03-08 05:36:00,37.6,31.7,30.28,SE,144,0.0,0.0,79,0.00,,---,0.00,VWS V14.00,2013-03-08 11:36:00,
2013-03-08 05:37:00,37.6,31.7,30.28,SE,144,0.0,0.0,79,0.00,,---,0.00,VWS V14.00,2013-03-08 11:37:00,
2013-03-08 05:38:00,37.6,31.7,30.28,SE,144,0.0,0.0,79,0.00,,---,0.00,VWS V14.00,2013-03-08 11:38:00,
2013-03-08 05:39:00,37.6,31.7,30.28,SE,144,0.0,0.0,79,0.00,,---,0.00,VWS V14.00,2013-03-08 11:39:00,
2013-03-08 05:40:00,37.6,31.7,30.28,SE,144,0.0,0.0,79,0.00,,---,0.00,VWS V14.00,2013-03-08 11:40:00,
2013-03-08 05:41:00,37.6,31.7,30.28,SE,144,0.0,0.0,79,0.00,,---,0.00,VWS V14.00,2013-03-08 11:41:00,
2013-03-08 05:42:00,37.6,31.7,30.27,SE,144,0.0,0.0,79,0.00,,---,0.00,VWS V14.00,2013-03-08 11:42:00,
2013-03-08 05:43:00,37.5,31.6,30.28,SE,144,0.0,0.0,79,0.00,,---,0.00,VWS V14.00,2013-03-08 11:43:00,
2013-03-08 05:44:00,37.5,31.6,30.28,SE,144,0.0,0.0,79,0.00,,---,0.00,VWS V14.00,2013-03-08 11:44:00,
2013-03-08 05:45:00,37.5,31.6,30.28,SE,144,0.0,0.0,79,0.00,,---,0.00,VWS V14.00,2013-03-08 11:45:00,
2013-03-08 05:46:00,37.5,31.6,30.28,SE,144,0.0,0.0,79,0.00,,---,0.00,VWS V14.00,2013-03-08 11:46:00,
2013-03-08 05:47:00,37.5,31.6,30.29,SE,144,0.0,0.0,79,0.00,,---,0.00,VWS V14.00,2013-03-08 11:47:00,
2013-03-08 05:48:00,37.5,31.6,30.29,SE,144,0.0,0.0,79,0.00,,---,0.00,VWS V14.00,2013-03-08 11:48:00,
2013-03-08 05:49:00,37.3,31.4,30.29,SE,144,0.0,0.0,79,0.00,,---,0.00,VWS V14.00,2013-03-08 11:49:00,
2013-03-08 05:50:00,37.3,31.4,30.29,SE,144,0.0,0.0,79,0.00,,---,0.00,VWS V14.00,2013-03-08 11:50:00,
2013-03-08 05:51:00,37.6,32.0,30.28,SE,144,0.0,0.0,80,0.00,,---,0.00,VWS V14.00,2013-03-08 11:51:00,
2013-03-08 05:52:00,37.3,31.4,30.29,SE,144,0.0,0.0,79,0.00,,---,0.00,VWS V14.00,2013-03-08 11:52:00,
2013-03-08 05:53:00,37.3,31.4,30.29,SE,144,0.0,0.0,79,0.00,,---,0.00,VWS V14.00,2013-03-08 11:53:00,
2013-03-08 05:54:00,37.3,31.4,30.29,SE,144,0.0,0.0,79,0.00,,---,0.00,VWS V14.00,2013-03-08 11:54:00,
2013-03-08 05:55:00,37.2,31.3,30.29,SE,144,0.0,0.0,79,0.00,,---,0.00,VWS V14.00,2013-03-08 11:55:00,
2013-03-08 05:56:00,37.8,31.9,30.28,SE,144,0.0,0.0,79,0.00,,---,0.00,VWS V14.00,2013-03-08 11:56:00,
2013-03-08 05:57:00,37.2,31.3,30.29,SE,144,0.0,0.0,79,0.00,,---,0.00,VWS V14.00,2013-03-08 11:57:00,
2013-03-08 05:58:00,37.2,31.3,30.29,SE,144,0.0,0.0,79,0.00,,---,0.00,VWS V14.00,2013-03-08 11:58:00,
2013-03-08 05:59:00,37.2,31.3,30.29,SE,144,0.0,0.0,79,0.00,,---,0.00,VWS V14.00,2013-03-08 11:59:00,
2013-03-08 06:00:00,37.2,31.3,30.29,SE,144,0.0,0.0,79,0.00,,---,0.00,VWS V14.00,2013-03-08 12:00:00,
2013-03-08 06:01:00,38.0,32.1,30.27,SE,144,0.0,0.0,79,0.00,,---,0.00,VWS V14.00,2013-03-08 12:01:00,
2013-03-08 06:02:00,37.2,31.3,30.29,SE,144,0.0,0.0,79,0.00,,---,0.00,VWS V14.00,2013-03-08 12:02:00,
2013-03-08 06:03:00,37.2,31.3,30.29,SE,144,0.0,0.0,79,0.00,,---,0.00,VWS V14.00,2013-03-08 12:03:00,
2013-03-08 06:04:00,37.2,31.3,30.29,SE,144,0.0,0.0,79,0.00,,---,0.00,VWS V14.00,2013-03-08 12:04:00,
2013-03-08 06:05:00,37.2,31.3,30.28,SE,144,0.0,0.0,79,0.00,,---,0.00,VWS V14.00,2013-03-08 12:05:00,
2013-03-08 06:06:00,38.2,32.0,30.27,SE,144,0.0,0.0,78,0.00,,---,0.00,VWS V14.00,2013-03-08 12:06:00,
2013-03-08 06:07:00,37.2,31.3,30.28,SE,144,0.0,0.0,79,0.00,,---,0.00,VWS V14.00,2013-03-08 12:07:00,
2013-03-08 06:08:00,37.2,31.3,30.28,SE,144,0.0,0.0,79,0.00,,---,0.00,VWS V14.00,2013-03-08 12:08:00,
2013-03-08 06:09:00,37.2,31.3,30.28,SE,144,0.0,0.0,79,0.00,,---,0.00,VWS V14.00,2013-03-08 12:09:00,
2013-03-08 06:10:00,37.2,31.3,30.28,SE,144,0.0,0.0,79,0.00,,---,0.00,VWS V14.00,2013-03-08 12:10:00,
2013-03-08 06:11:00,38.2,32.0,30.28,SE,144,0.0,0.0,78,0.00,,---,0.00,VWS V14.00,2013-03-08 12:11:00,
2013-03-08 06:12:00,37.2,31.3,30.28,SE,144,0.0,0.0,79,0.00,,---,0.00,VWS V14.00,2013-03-08 12:12:00,
2013-03-08 06:13:00,37.2,31.3,30.28,SE,144,0.0,0.0,79,0.00,,---,0.00,VWS V14.00,2013-03-08 12:13:00,
2013-03-08 06:14:00,37.2,31.3,30.28,SE,144,0.0,0.0,79,0.00,,---,0.00,VWS V14.00,2013-03-08 12:14:00,
2013-03-08 06:15:00,37.2,31.3,30.28,SE,144,0.0,0.0,79,0.00,,---,0.00,VWS V14.00,2013-03-08 12:15:00,
2013-03-08 06:16:00,38.0,31.8,30.29,SE,144,0.0,0.0,78,0.00,,---,0.00,VWS V14.00,2013-03-08 12:16:00,
2013-03-08 06:17:00,37.2,31.3,30.28,SE,144,0.0,0.0,79,0.00,,---,0.00,VWS V14.00,2013-03-08 12:17:00,
2013-03-08 06:18:00,37.2,31.3,30.28,SE,144,0.0,0.0,79,0.00,,---,0.00,VWS V14.00,2013-03-08 12:18:00,
2013-03-08 06:19:00,37.2,31.3,30.28,SE,144,0.0,0.0,79,0.00,,---,0.00,VWS V14.00,2013-03-08 12:19:00,
2013-03-08 06:20:00,37.2,31.3,30.28,SE,144,0.0,0.0,79,0.00,,---,0.00,VWS V14.00,2013-03-08 12:20:00,
2013-03-08 06:21:00,38.2,31.6,30.29,SE,144,0.0,0.0,77,0.00,,---,0.00,VWS V14.00,2013-03-08 12:21:00,
2013-03-08 06:22:00,37.3,31.4,30.28,SE,144,0.0,0.0,79,0.00,,---,0.00,VWS V14.00,2013-03-08 12:22:00,
2013-03-08 06:23:00,37.3,31.4,30.28,SE,144,0.0,0.0,79,0.00,,---,0.00,VWS V14.00,2013-03-08 12:23:00,
2013-03-08 06:24:00,37.5,31.6,30.28,SE,144,0.0,0.0,79,0.00,,---,0.00,VWS V14.00,2013-03-08 12:24:00,
2013-03-08 06:25:00,37.5,31.6,30.28,SE,144,0.0,0.0,79,0.00,,---,0.00,VWS V14.00,2013-03-08 12:25:00,
2013-03-08 06:26:00,38.2,31.6,30.28,SE,144,0.0,0.0,77,0.00,,---,0.00,VWS V14.00,2013-03-08 12:26:00,
2013-03-08 06:27:00,37.6,32.0,30.28,SE,144,0.0,0.0,80,0.00,,---,0.00,VWS V14.00,2013-03-08 12:27:00,
2013-03-08 06:28:00,37.6,32.0,30.28,SE,144,0.0,0.0,80,0.00,,---,0.00,VWS V14.00,2013-03-08 12:28:00,
2013-03-08 06:29:00,37.8,32.2,30.28,SE,144,0.0,0.0,80,0.00,,---,0.00,VWS V14.00,2013-03-08 12:29:00,
2013-03-08 06:30:00,37.9,32.3,30.28,SE,144,0.0,0.0,80,0.00,,---,0.00,VWS V14.00,2013-03-08 12:30:00,
2013-03-08 06:31:00,37.9,31.7,30.29,SE,144,0.0,0.0,78,0.00,,---,0.00,VWS V14.00,2013-03-08 12:31:00,
2013-03-08 06:32:00,38.2,32.9,30.28,SE,144,0.0,0.0,81,0.00,,---,0.00,VWS V14.00,2013-03-08 12:32:00,
2013-03-08 06:33:00,38.2,32.9,30.28,SE,144,0.0,0.0,81,0.00,,---,0.00,VWS V14.00,2013-03-08 12:33:00,
2013-03-08 06:34:00,38.3,33.0,30.28,SE,144,0.0,0.0,81,0.00,,---,0.00,VWS V14.00,2013-03-08 12:34:00,
2013-03-08 06:35:00,38.5,33.2,30.28,SE,144,0.0,0.0,81,0.00,,---,0.00,VWS V14.00,2013-03-08 12:35:00,
2013-03-08 06:36:00,37.8,31.9,30.28,SE,144,0.0,0.0,79,0.00,,---,0.00,VWS V14.00,2013-03-08 12:36:00,
2013-03-08 06:37:00,38.6,33.3,30.28,SE,144,0.0,0.0,81,0.00,,---,0.00,VWS V14.00,2013-03-08 12:37:00,
2013-03-08 06:38:00,38.8,33.5,30.27,SE,144,0.0,0.0,81,0.00,,---,0.00,VWS V14.00,2013-03-08 12:38:00,
2013-03-08 06:39:00,38.9,33.6,30.27,SE,144,0.0,0.0,81,0.00,,---,0.00,VWS V14.00,2013-03-08 12:39:00,
2013-03-08 06:40:00,39.1,33.8,30.27,SE,144,0.0,0.0,81,0.00,,---,0.00,VWS V14.00,2013-03-08 12:40:00,
2013-03-08 06:41:00,37.6,31.7,30.27,SE,144,0.0,0.0,79,0.00,,---,0.00,VWS V14.00,2013-03-08 12:41:00,
2013-03-08 06:42:00,39.3,34.0,30.27,SE,144,0.0,0.0,81,0.00,,---,0.00,VWS V14.00,2013-03-08 12:42:00,
2013-03-08 06:43:00,39.5,34.2,30.27,SE,144,0.0,0.0,81,0.00,,---,0.00,VWS V14.00,2013-03-08 12:43:00,
2013-03-08 06:44:00,39.6,34.3,30.28,SE,144,0.0,0.0,81,0.00,,---,0.00,VWS V14.00,2013-03-08 12:44:00,
2013-03-08 06:45:00,39.8,34.5,30.28,SE,144,0.0,0.0,81,0.00,,---,0.00,VWS V14.00,2013-03-08 12:45:00,
2013-03-08 06:46:00,37.5,31.6,30.28,SE,144,0.0,0.0,79,0.00,,---,0.00,VWS V14.00,2013-03-08 12:46:00,
2013-03-08 06:47:00,40.1,34.4,30.28,SE,144,0.0,0.0,80,0.00,,---,0.00,VWS V14.00,2013-03-08 12:47:00,
2013-03-08 06:48:00,40.2,34.5,30.28,SE,144,0.0,0.0,80,0.00,,---,0.00,VWS V14.00,2013-03-08 12:48:00,
2013-03-08 06:49:00,40.3,34.6,30.28,SE,144,0.0,0.0,80,0.00,,---,0.00,VWS V14.00,2013-03-08 12:49:00,
2013-03-08 06:50:00,40.5,34.5,30.27,SE,144,0.0,0.0,79,0.00,,---,0.00,VWS V14.00,2013-03-08 12:50:00,
2013-03-08 06:51:00,37.3,31.4,30.29,SE,144,0.0,0.0,79,0.00,,---,0.00,VWS V14.00,2013-03-08 12:51:00,
2013-03-08 06:52:00,40.8,34.8,30.27,SE,144,0.0,0.0,79,0.00,,---,0.00,VWS V14.00,2013-03-08 12:52:00,
2013-03-08 06:53:00,40.8,34.8,30.27,SE,144,0.0,0.0,79,0.00,,---,0.00,VWS V14.00,2013-03-08 12:53:00,
2013-03-08 06:54:00,40.9,34.9,30.27,SE,144,0.0,0.0,79,0.00,,---,0.00,VWS V14.00,2013-03-08 12:54:00,
2013-03-08 06:55:00,40.9,34.9,30.27,SE,144,0.0,0.0,79,0.00,,---,0.00,VWS V14.00,2013-03-08 12:55:00,
2013-03-08 06:56:00,37.2,31.3,30.29,SE,144,0.0,0.0,79,0.00,,---,0.00,VWS V14.00,2013-03-08 12:56:00,
2013-03-08 06:57:00,41.1,34.8,30.27,SE,144,0.0,0.0,78,0.00,,---,0.00,VWS V14.00,2013-03-08 12:57:00,
2013-03-08 06:58:00,41.2,34.9,30.27,SE,144,0.0,0.0,78,0.00,,---,0.00,VWS V14.00,2013-03-08 12:58:00,
2013-03-08 06:59:00,41.3,35.0,30.27,SE,144,0.0,0.0,78,0.00,,---,0.00,VWS V14.00,2013-03-08 12:59:00,
2013-03-08 07:00:00,41.5,35.2,30.27,SE,144,0.0,0.0,78,0.00,,---,0.00,VWS V14.00,2013-03-08 13:00:00,
2013-03-08 07:01:00,37.2,31.3,30.29,SE,144,0.0,0.0,79,0.00,,---,0.00,VWS V14.00,2013-03-08 13:01:00,
2013-03-08 07:02:00,41.9,35.5,30.27,SE,144,0.0,0.0,78,0.00,,---,0.00,VWS V14.00,2013-03-08 13:02:00,
2013-03-08 07:03:00,42.2,35.8,30.27,SE,144,0.0,0.0,78,0.00,,---,0.00,VWS V14.00,2013-03-08 13:03:00,
2013-03-08 07:04:00,42.5,35.8,30.27,SE,144,0.0,0.0,77,0.00,,---,0.00,VWS V14.00,2013-03-08 13:04:00,
2013-03-08 07:05:00,42.8,36.1,30.27,SE,144,0.0,0.0,77,0.00,,---,0.00,VWS V14.00,2013-03-08 13:05:00,
2013-03-08 07:06:00,37.2,31.3,30.28,SE,144,0.0,0.0,79,0.00,,---,0.00,VWS V14.00,2013-03-08 13:06:00,
2013-03-08 07:07:00,43.2,36.2,30.28,SE,144,0.0,0.0,76,0.00,,---,0.00,VWS V14.00,2013-03-08 13:07:00,
2013-03-08 07:08:00,43.3,35.9,30.28,SE,144,0.0,0.0,75,0.00,,---,0.00,VWS V14.00,2013-03-08 13:08:00,
2013-03-08 07:09:00,43.5,36.1,30.28,SE,144,0.0,0.0,75,0.00,,---,0.00,VWS V14.00,2013-03-08 13:09:00,
2013-03-08 07:10:00,43.6,36.2,30.28,SE,144,0.0,0.0,75,0.00,,---,0.00,VWS V14.00,2013-03-08 13:10:00,
2013-03-08 07:11:00,37.2,31.3,30.28,SE,144,0.0,0.0,79,0.00,,---,0.00,VWS V14.00,2013-03-08 13:11:00,
2013-03-08 07:12:00,43.9,36.2,30.28,SE,144,0.0,0.0,74,0.00,,---,0.00,VWS V14.00,2013-03-08 13:12:00,
2013-03-08 07:13:00,44.1,36.4,30.28,SE,144,0.0,0.0,74,0.00,,---,0.00,VWS V14.00,2013-03-08 13:13:00,
2013-03-08 07:14:00,44.2,36.5,30.28,SE,146,0.0,0.0,74,0.00,,---,0.00,VWS V14.00,2013-03-08 13:14:00,
2013-03-08 07:15:00,44.3,36.2,30.28,SE,146,0.0,0.0,73,0.00,,---,0.00,VWS V14.00,2013-03-08 13:15:00,
2013-03-08 07:16:00,37.2,31.3,30.28,SE,144,0.0,0.0,79,0.00,,---,0.00,VWS V14.00,2013-03-08 13:16:00,
2013-03-08 07:17:00,44.6,36.5,30.28,SE,146,0.0,0.0,73,0.00,,---,0.00,VWS V14.00,2013-03-08 13:17:00,
2013-03-08 07:18:00,44.8,36.3,30.28,SE,146,0.0,0.0,72,0.00,,---,0.00,VWS V14.00,2013-03-08 13:18:00,
2013-03-08 07:19:00,44.9,36.4,30.28,SE,146,0.0,0.0,72,0.00,,---,0.00,VWS V14.00,2013-03-08 13:19:00,
2013-03-08 07:20:00,45.1,36.6,30.28,SE,146,0.0,0.0,72,0.00,,---,0.00,VWS V14.00,2013-03-08 13:20:00,
2013-03-08 07:21:00,37.3,31.4,30.28,SE,144,0.0,0.0,79,0.00,,---,0.00,VWS V14.00,2013-03-08 13:21:00,
2013-03-08 07:22:00,45.2,36.4,30.28,SE,146,0.0,0.0,71,0.00,,---,0.00,VWS V14.00,2013-03-08 13:22:00,
2013-03-08 07:23:00,45.4,36.2,30.28,SE,146,0.0,0.0,70,0.00,,---,0.00,VWS V14.00,2013-03-08 13:23:00,
2013-03-08 07:24:00,45.5,36.3,30.28,SE,146,0.0,0.0,70,0.00,,---,0.00,VWS V14.00,2013-03-08 13:24:00,
2013-03-08 07:25:00,45.5,36.3,30.28,SE,146,0.0,0.0,70,0.00,,---,0.00,VWS V14.00,2013-03-08 13:25:00,
2013-03-08 07:26:00,37.5,31.6,30.28,SE,144,0.0,0.0,79,0.00,,---,0.00,VWS V14.00,2013-03-08 13:26:00,
2013-03-08 07:27:00,45.8,35.8,30.28,SE,146,0.0,0.0,68,0.00,,---,0.00,VWS V14.00,2013-03-08 13:27:00,
2013-03-08 07:28:00,46.1,35.8,30.28,SE,146,0.0,3.0,67,0.00,,---,0.00,VWS V14.00,2013-03-08 13:28:00,
2013-03-08 07:29:00,46.4,36.0,30.28,SE,146,1.0,1.0,67,0.00,,---,0.00,VWS V14.00,2013-03-08 13:29:00,
2013-03-08 07:30:00,46.5,35.4,30.28,SE,146,2.0,2.0,65,0.00,,---,0.00,VWS V14.00,2013-03-08 13:30:00,
2013-03-08 07:31:00,37.9,32.6,30.28,SE,144,0.0,0.0,81,0.00,,---,0.00,VWS V14.00,2013-03-08 13:31:00,
2013-03-08 07:32:00,47.0,35.9,30.28,SE,146,4.0,4.0,65,0.00,,---,0.00,VWS V14.00,2013-03-08 13:32:00,
2013-03-08 07:33:00,47.1,35.6,30.28,SE,146,2.0,4.0,64,0.00,,---,0.00,VWS V14.00,2013-03-08 13:33:00,
2013-03-08 07:34:00,47.3,35.8,30.28,SE,146,3.0,3.0,64,0.00,,---,0.00,VWS V14.00,2013-03-08 13:34:00,
2013-03-08 07:35:00,47.4,35.5,30.28,SE,146,4.0,4.0,63,0.00,,---,0.00,VWS V14.00,2013-03-08 13:35:00,
2013-03-08 07:36:00,38.5,33.2,30.28,SE,144,0.0,0.0,81,0.00,,---,0.00,VWS V14.00,2013-03-08 13:36:00,
2013-03-08 07:37:00,47.7,35.7,30.28,SE,146,2.0,3.0,63,0.00,,---,0.00,VWS V14.00,2013-03-08 13:37:00,
2013-03-08 07:38:00,47.9,35.9,30.28,SE,146,3.0,4.0,63,0.00,,---,0.00,VWS V14.00,2013-03-08 13:38:00,
2013-03-08 07:39:00,48.0,35.6,30.28,SE,146,0.0,3.0,62,0.00,,---,0.00,VWS V14.00,2013-03-08 13:39:00,
2013-03-08 07:40:00,48.2,35.8,30.28,SE,146,3.0,3.0,62,0.00,,---,0.00,VWS V14.00,2013-03-08 13:40:00,
2013-03-08 07:41:00,39.2,33.9,30.27,SE,144,0.0,0.0,81,0.00,,---,0.00,VWS V14.00,2013-03-08 13:41:00,
2013-03-08 07:42:00,48.6,35.8,30.28,SE,146,7.0,7.0,61,0.00,,---,0.00,VWS V14.00,2013-03-08 13:42:00,
2013-03-08 07:43:00,48.9,36.1,30.28,SE,146,3.0,7.0,61,0.00,,---,0.00,VWS V14.00,2013-03-08 13:43:00,
2013-03-08 07:44:00,49.2,36.3,30.28,SE,146,4.0,6.0,61,0.00,,---,0.00,VWS V14.00,2013-03-08 13:44:00,
2013-03-08 07:45:00,49.4,36.1,30.28,SE,146,6.0,7.0,60,0.00,,---,0.00,VWS V14.00,2013-03-08 13:45:00,
2013-03-08 07:46:00,39.9,34.5,30.28,SE,144,0.0,0.0,81,0.00,,---,0.00,VWS V14.00,2013-03-08 13:46:00,
2013-03-08 07:47:00,49.8,35.6,30.28,SE,146,3.0,7.0,58,0.00,,---,0.00,VWS V14.00,2013-03-08 13:47:00,
2013-03-08 07:48:00,49.9,35.3,30.28,SE,144,7.0,11.0,57,0.00,,---,0.00,VWS V14.00,2013-03-08 13:48:00,
2013-03-08 07:49:00,50.1,35.0,30.28,SE,144,7.0,10.0,56,0.00,,---,0.00,VWS V14.00,2013-03-08 13:49:00,
2013-03-08 07:50:00,50.4,35.3,30.28,SE,144,4.0,7.0,56,0.00,,---,0.00,VWS V14.00,2013-03-08 13:50:00,
2013-03-08 07:51:00,40.6,34.6,30.27,SE,144,0.0,0.0,79,0.00,,---,0.00,VWS V14.00,2013-03-08 13:51:00,
2013-03-08 07:52:00,50.5,35.4,30.28,SE,144,9.0,10.0,56,0.00,,---,0.00,VWS V14.00,2013-03-08 13:52:00,
2013-03-08 07:53:00,50.7,35.6,30.28,SE,143,7.0,10.0,56,0.00,,---,0.00,VWS V14.00,2013-03-08 13:53:00,
2013-03-08 07:54:00,50.7,35.1,30.28,SE,142,5.0,10.0,55,0.00,,---,0.00,VWS V14.00,2013-03-08 13:54:00,
2013-03-08 07:55:00,50.8,35.2,30.28,SE,138,10.0,12.0,55,0.00,,---,0.00,VWS V14.00,2013-03-08 13:55:00,
2013-03-08 07:56:00,41.1,35.1,30.27,SE,144,0.0,0.0,79,0.00,,---,0.00,VWS V14.00,2013-03-08 13:56:00,
2013-03-08 07:57:00,50.8,34.8,30.28,SE,138,11.0,11.0,54,0.00,,---,0.00,VWS V14.00,2013-03-08 13:57:00,
2013-03-08 07:58:00,51.0,35.4,30.28,SE,140,6.0,11.0,55,0.00,,---,0.00,VWS V14.00,2013-03-08 13:58:00,
2013-03-08 07:59:00,51.0,35.4,30.28,SE,139,6.0,9.0,55,0.00,,---,0.00,VWS V14.00,2013-03-08 13:59:00,
2013-03-08 08:00:00,51.1,35.5,30.28,SE,138,7.0,10.0,55,0.00,,---,0.00,VWS V14.00,2013-03-08 14:00:00,
2013-03-08 08:01:00,41.6,35.3,30.27,SE,144,0.0,0.0,78,0.00,,---,0.00,VWS V14.00,2013-03-08 14:01:00,
2013-03-08 08:02:00,51.1,35.5,30.28,SE,136,5.0,10.0,55,0.00,,---,0.00,VWS V14.00,2013-03-08 14:02:00,
2013-03-08 08:03:00,51.3,35.7,30.29,SE,139,5.0,11.0,55,0.00,,---,0.00,VWS V14.00,2013-03-08 14:03:00,
2013-03-08 08:04:00,51.4,35.3,30.29,SE,141,7.0,9.0,54,0.00,,---,0.00,VWS V14.00,2013-03-08 14:04:00,
2013-03-08 08:05:00,51.6,35.5,30.29,SE,140,6.0,10.0,54,0.00,,---,0.00,VWS V14.00,2013-03-08 14:05:00,
2013-03-08 08:06:00,42.9,36.2,30.27,SE,144,0.0,0.0,77,0.00,,---,0.00,VWS V14.00,2013-03-08 14:06:00,
2013-03-08 08:07:00,51.9,35.3,30.29,SE,138,7.0,11.0,53,0.00,,---,0.00,VWS V14.00,2013-03-08 14:07:00,
2013-03-08 08:08:00,51.9,35.3,30.29,SE,136,9.0,11.0,53,0.00,,---,0.00,VWS V14.00,2013-03-08 14:08:00,
2013-03-08 08:09:00,51.9,35.3,30.28,SE,134,8.0,12.0,53,0.00,,---,0.00,VWS V14.00,2013-03-08 14:09:00,
2013-03-08 08:10:00,52.0,35.4,30.29,SE,129,10.0,14.0,53,0.00,,---,0.00,VWS V14.00,2013-03-08 14:10:00,
2013-03-08 08:11:00,43.8,36.4,30.28,SE,144,0.0,0.0,75,0.00,,---,0.00,VWS V14.00,2013-03-08 14:11:00,
2013-03-08 08:12:00,52.2,35.1,30.28,SE,128,9.0,12.0,52,0.00,,---,0.00,VWS V14.00,2013-03-08 14:12:00,
2013-03-08 08:13:00,52.2,35.1,30.28,SE,128,11.0,11.0,52,0.00,,---,0.00,VWS V14.00,2013-03-08 14:13:00,
2013-03-08 08:14:00,52.3,35.2,30.28,SE,128,9.0,11.0,52,0.00,,---,0.00,VWS V14.00,2013-03-08 14:14:00,
2013-03-08 08:15:00,52.3,35.2,30.28,SE,126,7.0,10.0,52,0.00,,---,0.00,VWS V14.00,2013-03-08 14:15:00,
2013-03-08 08:16:00,44.5,36.4,30.28,SE,146,0.0,0.0,73,0.00,,---,0.00,VWS V14.00,2013-03-08 14:16:00,
2013-03-08 08:17:00,52.6,35.5,30.28,ESE,122,13.0,13.0,52,0.00,,---,0.00,VWS V14.00,2013-03-08 14:17:00,
2013-03-08 08:18:00,52.8,35.2,30.27,ESE,123,13.0,13.0,51,0.00,,---,0.00,VWS V14.00,2013-03-08 14:18:00,
2013-03-08 08:19:00,53.1,34.5,30.27,ESE,122,10.0,13.0,49,0.00,,---,0.00,VWS V14.00,2013-03-08 14:19:00,
2013-03-08 08:20:00,53.1,35.0,30.27,SE,125,11.0,12.0,50,0.00,,---,0.00,VWS V14.00,2013-03-08 14:20:00,
2013-03-08 08:21:00,45.1,35.9,30.28,SE,146,0.0,0.0,70,0.00,,---,0.00,VWS V14.00,2013-03-08 14:21:00,
2013-03-08 08:22:00,53.2,34.5,30.27,SE,131,14.0,14.0,49,0.00,,---,0.00,VWS V14.00,2013-03-08 14:22:00,
2013-03-08 08:23:00,53.2,34.0,30.27,SE,134,11.0,14.0,48,0.00,,---,0.00,VWS V14.00,2013-03-08 14:23:00,
2013-03-08 08:24:00,53.3,34.1,30.27,SE,128,11.0,13.0,48,0.00,,---,0.00,VWS V14.00,2013-03-08 14:24:00,
2013-03-08 08:25:00,53.3,34.1,30.27,SE,143,15.0,15.0,48,0.00,,---,0.00,VWS V14.00,2013-03-08 14:25:00,
2013-03-08 08:26:00,45.7,36.1,30.28,SE,146,0.0,0.0,69,0.00,,---,0.00,VWS V14.00,2013-03-08 14:26:00,
2013-03-08 08:27:00,53.5,34.3,30.27,SE,132,16.0,16.0,48,0.00,,---,0.00,VWS V14.00,2013-03-08 14:27:00,
2013-03-08 08:28:00,53.5,34.3,30.27,SE,125,9.0,16.0,48,0.00,,---,0.00,VWS V14.00,2013-03-08 14:28:00,
2013-03-08 08:29:00,53.6,34.4,30.27,SE,132,3.0,9.0,48,0.00,,---,0.00,VWS V14.00,2013-03-08 14:29:00,
2013-03-08 08:30:00,53.8,34.6,30.27,SSE,155,7.0,9.0,48,0.00,,---,0.00,VWS V14.00,2013-03-08 14:30:00,
2013-03-08 08:31:00,46.7,35.6,30.28,SE,146,1.0,3.0,65,0.00,,---,0.00,VWS V14.00,2013-03-08 14:31:00,
2013-03-08 08:32:00,54.1,34.9,30.27,SSE,155,7.0,14.0,48,0.00,,---,0.00,VWS V14.00,2013-03-08 14:32:00,
2013-03-08 08:33:00,54.1,34.3,30.27,SSE,152,7.0,12.0,47,0.00,,---,0.00,VWS V14.00,2013-03-08 14:33:00,
2013-03-08 08:34:00,54.1,34.3,30.27,SE,134,13.0,13.0,47,0.00,,---,0.00,VWS V14.00,2013-03-08 14:34:00,
2013-03-08 08:35:00,54.1,33.8,30.27,SSE,155,8.0,13.0,46,0.00,,---,0.00,VWS V14.00,2013-03-08 14:35:00,
2013-03-08 08:36:00,47.6,35.6,30.28,SE,146,2.0,5.0,63,0.00,,---,0.00,VWS V14.00,2013-03-08 14:36:00,
2013-03-08 08:37:00,54.1,34.3,30.27,SE,124,11.0,15.0,47,0.00,,---,0.00,VWS V14.00,2013-03-08 14:37:00,
2013-03-08 08:38:00,53.9,33.6,30.27,SSE,158,8.0,14.0,46,0.00,,---,0.00,VWS V14.00,2013-03-08 14:38:00,
2013-03-08 08:39:00,54.1,34.3,30.27,SE,144,7.0,14.0,47,0.00,,---,0.00,VWS V14.00,2013-03-08 14:39:00,
2013-03-08 08:40:00,54.1,34.3,30.27,SSE,151,10.0,17.0,47,0.00,,---,0.00,VWS V14.00,2013-03-08 14:40:00,
2013-03-08 08:41:00,48.3,35.9,30.28,SE,146,4.0,5.0,62,0.00,,---,0.00,VWS V14.00,2013-03-08 14:41:00,
2013-03-08 08:42:00,54.1,33.8,30.27,SSE,159,1.0,15.0,46,0.00,,---,0.00,VWS V14.00,2013-03-08 14:42:00,
2013-03-08 08:43:00,54.2,33.9,30.27,SSE,158,12.0,12.0,46,0.00,,---,0.00,VWS V14.00,2013-03-08 14:43:00,
2013-03-08 08:44:00,54.2,33.9,30.27,SSE,166,5.0,14.0,46,0.00,,---,0.00,VWS V14.00,2013-03-08 14:44:00,
2013-03-08 08:45:00,54.4,34.1,30.27,SE,142,10.0,12.0,46,0.00,,---,0.00,VWS V14.00,2013-03-08 14:45:00,
2013-03-08 08:46:00,49.5,36.2,30.28,SE,146,4.0,6.0,60,0.00,,---,0.00,VWS V14.00,2013-03-08 14:46:00,
2013-03-08 08:47:00,54.2,33.9,30.27,SE,126,10.0,14.0,46,0.00,,---,0.00,VWS V14.00,2013-03-08 14:47:00,
2013-03-08 08:48:00,54.1,34.3,30.27,SE,126,11.0,13.0,47,0.00,,---,0.00,VWS V14.00,2013-03-08 14:48:00,
2013-03-08 08:49:00,54.1,34.3,30.27,SE,135,10.0,17.0,47,0.00,,---,0.00,VWS V14.00,2013-03-08 14:49:00,
2013-03-08 08:50:00,54.1,33.8,30.27,SE,134,12.0,15.0,46,0.00,,---,0.00,VWS V14.00,2013-03-08 14:50:00,
2013-03-08 08:51:00,50.4,35.3,30.28,SE,144,6.0,7.0,56,0.00,,---,0.00,VWS V14.00,2013-03-08 14:51:00,
2013-03-08 08:52:00,54.1,33.2,30.27,SE,132,15.0,15.0,45,0.00,,---,0.00,VWS V14.00,2013-03-08 14:52:00,
2013-03-08 08:53:00,54.1,33.2,30.27,SSE,150,12.0,15.0,45,0.00,,---,0.00,VWS V14.00,2013-03-08 14:53:00,
2013-03-08 08:54:00,54.1,33.2,30.27,SSE,150,10.0,17.0,45,0.00,,---,0.00,VWS V14.00,2013-03-08 14:54:00,
2013-03-08 08:55:00,54.2,33.3,30.27,SE,131,9.0,12.0,45,0.00,,---,0.00,VWS V14.00,2013-03-08 14:55:00,
2013-03-08 08:56:00,50.8,35.2,30.28,SE,138,6.0,11.0,55,0.00,,---,0.00,VWS V14.00,2013-03-08 14:56:00,
2013-03-08 08:57:00,54.4,33.5,30.27,SE,136,10.0,16.0,45,0.00,,---,0.00,VWS V14.00,2013-03-08 14:57:00,
2013-03-08 08:58:00,54.4,33.5,30.27,SE,138,10.0,16.0,45,0.00,,---,0.00,VWS V14.00,2013-03-08 14:58:00,
2013-03-08 08:59:00,54.5,33.0,30.26,SE,135,10.0,16.0,44,0.00,,---,0.00,VWS V14.00,2013-03-08 14:59:00,
2013-03-08 09:00:00,54.5,33.6,30.26,SE,129,14.0,17.0,45,0.00,,---,0.00,VWS V14.00,2013-03-08 15:00:00,
2013-03-08 09:01:00,51.1,35.5,30.28,SE,138,9.0,9.0,55,0.00,,---,0.00,VWS V14.00,2013-03-08 15:01:00,
2013-03-08 09:02:00,54.2,33.9,30.27,SE,124,14.0,15.0,46,0.00,,---,0.00,VWS V14.00,2013-03-08 15:02:00,
2013-03-08 09:03:00,54.2,33.9,30.27,SE,134,8.0,15.0,46,0.00,,---,0.00,VWS V14.00,2013-03-08 15:03:00,
2013-03-08 09:04:00,54.4,33.5,30.27,ESE,122,11.0,20.0,45,0.00,,---,0.00,VWS V14.00,2013-03-08 15:04:00,
2013-03-08 09:05:00,54.5,33.6,30.27,SE,130,10.0,20.0,45,0.00,,---,0.00,VWS V14.00,2013-03-08 15:05:00,
2013-03-08 09:06:00,51.7,35.6,30.29,SE,140,9.0,10.0,54,0.00,,---,0.00,VWS V14.00,2013-03-08 15:06:00,
2013-03-08 09:07:00,54.7,33.8,30.27,SE,139,13.0,17.0,45,0.00,,---,0.00,VWS V14.00,2013-03-08 15:07:00,
2013-03-08 09:08:00,54.8,33.3,30.27,SE,140,9.0,18.0,44,0.00,,---,0.00,VWS V14.00,2013-03-08 15:08:00,
2013-03-08 09:09:00,54.8,33.3,30.27,ESE,122,18.0,18.0,44,0.00,,---,0.00,VWS V14.00,2013-03-08 15:09:00,
2013-03-08 09:10:00,54.8,32.8,30.27,SE,124,12.0,18.0,43,0.00,,---,0.00,VWS V14.00,2013-03-08 15:10:00,
2013-03-08 09:11:00,52.0,34.9,30.28,SE,129,6.0,10.0,52,0.00,,---,0.00,VWS V14.00,2013-03-08 15:11:00,
2013-03-08 09:12:00,54.8,33.3,30.27,SE,136,8.0,16.0,44,0.00,,---,0.00,VWS V14.00,2013-03-08 15:12:00,
2013-03-08 09:13:00,55.0,33.5,30.27,SE,134,12.0,15.0,44,0.00,,---,0.00,VWS V14.00,2013-03-08 15:13:00,
2013-03-08 09:14:00,55.1,33.6,30.27,SE,128,14.0,15.0,44,0.00,,---,0.00,VWS V14.00,2013-03-08 15:14:00,
2013-03-08 09:15:00,55.3,33.8,30.27,SE,134,9.0,18.0,44,0.00,,---,0.00,VWS V14.00,2013-03-08 15:15:00,
2013-03-08 09:16:00,52.3,35.2,30.28,SE,125,12.0,12.0,52,0.00,,---,0.00,VWS V14.00,2013-03-08 15:16:00,
2013-03-08 09:17:00,55.4,33.3,30.27,SE,133,6.0,11.0,43,0.00,,---,0.00,VWS V14.00,2013-03-08 15:17:00,
2013-03-08 09:18:00,55.7,34.1,30.27,SSE,148,9.0,15.0,44,0.00,,---,0.00,VWS V14.00,2013-03-08 15:18:00,
2013-03-08 09:19:00,55.9,34.3,30.27,South,186,10.0,15.0,44,0.00,,---,0.00,VWS V14.00,2013-03-08 15:19:00,
2013-03-08 09:20:00,56.2,34.0,30.27,SE,128,11.0,12.0,43,0.00,,---,0.00,VWS V14.00,2013-03-08 15:20:00,
2013-03-08 09:21:00,53.2,35.1,30.27,ESE,122,8.0,14.0,50,0.00,,---,0.00,VWS V14.00,2013-03-08 15:21:00,
2013-03-08 09:22:00,56.5,33.7,30.27,SSE,147,6.0,15.0,42,0.00,,---,0.00,VWS V14.00,2013-03-08 15:22:00,
2013-03-08 09:23:00,56.5,33.7,30.27,SSE,153,11.0,16.0,42,0.00,,---,0.00,VWS V14.00,2013-03-08 15:23:00,
2013-03-08 09:24:00,56.3,33.5,30.26,SSE,153,6.0,13.0,42,0.00,,---,0.00,VWS V14.00,2013-03-08 15:24:00,
2013-03-08 09:25:00,56.5,33.7,30.27,SSE,150,10.0,13.0,42,0.00,,---,0.00,VWS V14.00,2013-03-08 15:25:00,
2013-03-08 09:26:00,53.3,34.1,30.27,SE,133,12.0,15.0,48,0.00,,---,0.00,VWS V14.00,2013-03-08 15:26:00,
2013-03-08 09:27:00,56.7,33.9,30.26,SE,134,15.0,15.0,42,0.00,,---,0.00,VWS V14.00,2013-03-08 15:27:00,
2013-03-08 09:28:00,56.7,33.9,30.26,SE,128,15.0,16.0,42,0.00,,---,0.00,VWS V14.00,2013-03-08 15:28:00,
2013-03-08 09:29:00,56.6,33.2,30.26,SE,145,17.0,19.0,41,0.00,,---,0.00,VWS V14.00,2013-03-08 15:29:00,
2013-03-08 09:30:00,56.5,33.1,30.26,SE,131,11.0,20.0,41,0.00,,---,0.00,VWS V14.00,2013-03-08 15:30:00,
2013-03-08 09:31:00,53.9,34.7,30.27,SSE,159,7.0,9.0,48,0.00,,---,0.00,VWS V14.00,2013-03-08 15:31:00,
2013-03-08 09:32:00,56.5,33.7,30.26,SE,144,6.0,13.0,42,0.00,,---,0.00,VWS V14.00,2013-03-08 15:32:00,
2013-03-08 09:33:00,56.7,33.9,30.26,SSE,154,9.0,11.0,42,0.00,,---,0.00,VWS V14.00,2013-03-08 15:33:00,
2013-03-08 09:34:00,56.9,34.1,30.26,SSE,150,12.0,14.0,42,0.00,,---,0.00,VWS V14.00,2013-03-08 15:34:00,
2013-03-08 09:35:00,57.0,33.5,30.26,SSE,160,2.0,12.0,41,0.00,,---,0.00,VWS V14.00,2013-03-08 15:35:00,
2013-03-08 09:36:00,54.1,34.3,30.27,SE,124,6.0,14.0,47,0.00,,---,0.00,VWS V14.00,2013-03-08 15:36:00,
2013-03-08 09:37:00,57.2,33.7,30.26,SE,141,13.0,13.0,41,0.00,,---,0.00,VWS V14.00,2013-03-08 15:37:00,
2013-03-08 09:38:00,57.2,33.7,30.27,SSE,160,10.0,14.0,41,0.00,,---,0.00,VWS V14.00,2013-03-08 15:38:00,
2013-03-08 09:39:00,57.2,33.7,30.27,South,184,7.0,11.0,41,0.00,,---,0.00,VWS V14.00,2013-03-08 15:39:00,
2013-03-08 09:40:00,57.3,33.8,30.27,SSW,198,6.0,12.0,41,0.00,,---,0.00,VWS V14.00,2013-03-08 15:40:00,
2013-03-08 09:41:00,54.1,34.3,30.27,SE,145,9.0,17.0,47,0.00,,---,0.00,VWS V14.00,2013-03-08 15:41:00,
2013-03-08 09:42:00,57.5,34.0,30.27,SSE,162,10.0,11.0,41,0.00,,---,0.00,VWS V14.00,2013-03-08 15:42:00,
2013-03-08 09:43:00,57.6,34.1,30.27,SSE,149,9.0,12.0,41,0.00,,---,0.00,VWS V14.00,2013-03-08 15:43:00,
2013-03-08 09:44:00,57.6,34.1,30.27,SSE,159,5.0,10.0,41,0.00,,---,0.00,VWS V14.00,2013-03-08 15:44:00,
2013-03-08 09:45:00,57.6,33.5,30.27,SE,127,13.0,14.0,40,0.00,,---,0.00,VWS V14.00,2013-03-08 15:45:00,
2013-03-08 09:46:00,54.4,33.5,30.27,ESE,123,12.0,14.0,45,0.00,,---,0.00,VWS V14.00,2013-03-08 15:46:00,
2013-03-08 09:47:00,57.5,34.0,30.27,SE,144,10.0,15.0,41,0.00,,---,0.00,VWS V14.00,2013-03-08 15:47:00,
2013-03-08 09:48:00,57.3,33.8,30.27,SE,126,12.0,17.0,41,0.00,,---,0.00,VWS V14.00,2013-03-08 15:48:00,
2013-03-08 09:49:00,57.2,33.1,30.27,ESE,119,13.0,13.0,40,0.00,,---,0.00,VWS V14.00,2013-03-08 15:49:00,
2013-03-08 09:50:00,56.9,33.5,30.27,SE,124,11.0,14.0,41,0.00,,---,0.00,VWS V14.00,2013-03-08 15:50:00,
2013-03-08 09:51:00,54.1,33.8,30.27,SE,142,15.0,15.0,46,0.00,,---,0.00,VWS V14.00,2013-03-08 15:51:00,
2013-03-08 09:52:00,56.3,32.9,30.26,ESE,121,11.0,17.0,41,0.00,,---,0.00,VWS V14.00,2013-03-08 15:52:00,
2013-03-08 09:53:00,56.3,32.9,30.27,SE,131,11.0,12.0,41,0.00,,---,0.00,VWS V14.00,2013-03-08 15:53:00,
2013-03-08 09:54:00,56.5,33.1,30.27,SE,132,11.0,19.0,41,0.00,,---,0.00,VWS V14.00,2013-03-08 15:54:00,
2013-03-08 09:55:00,56.6,33.2,30.26,SE,138,12.0,12.0,41,0.00,,---,0.00,VWS V14.00,2013-03-08 15:55:00,
2013-03-08 09:56:00,54.2,33.3,30.27,SE,128,12.0,12.0,45,0.00,,---,0.00,VWS V14.00,2013-03-08 15:56:00,
2013-03-08 09:57:00,56.6,33.2,30.26,SE,125,11.0,14.0,41,0.00,,---,0.00,VWS V14.00,2013-03-08 15:57:00,
2013-03-08 09:58:00,56.7,33.3,30.26,SE,138,6.0,11.0,41,0.00,,---,0.00,VWS V14.00,2013-03-08 15:58:00,
2013-03-08 09:59:00,56.9,34.1,30.26,SE,136,9.0,9.0,42,0.00,,---,0.00,VWS V14.00,2013-03-08 15:59:00,
2013-03-08 10:00:00,57.2,33.7,30.26,SSE,151,13.0,13.0,41,0.00,,---,0.00,VWS V14.00,2013-03-08 16:00:00,
2013-03-08 10:01:00,54.4,33.5,30.26,ESE,119,14.0,14.0,45,0.00,,---,0.00,VWS V14.00,2013-03-08 16:01:00,
2013-03-08 10:02:00,57.5,34.0,30.27,ESE,121,12.0,12.0,41,0.00,,---,0.00,VWS V14.00,2013-03-08 16:02:00,
2013-03-08 10:03:00,57.6,34.1,30.27,SE,130,11.0,17.0,41,0.00,,---,0.00,VWS V14.00,2013-03-08 16:03:00,
2013-03-08 10:04:00,57.6,34.1,30.26,SE,134,9.0,13.0,41,0.00,,---,0.00,VWS V14.00,2013-03-08 16:04:00,
2013-03-08 10:05:00,57.6,34.1,30.26,ESE,115,15.0,16.0,41,0.00,,---,0.00,VWS V14.00,2013-03-08 16:05:00,
2013-03-08 10:06:00,54.5,33.0,30.27,SE,133,13.0,17.0,44,0.00,,---,0.00,VWS V14.00,2013-03-08 16:06:00,
2013-03-08 10:07:00,57.6,33.5,30.26,ESE,113,15.0,16.0,40,0.00,,---,0.00,VWS V14.00,2013-03-08 16:07:00,
2013-03-08 10:08:00,57.6,33.5,30.26,SE,135,9.0,17.0,40,0.00,,---,0.00,VWS V14.00,2013-03-08 16:08:00,
2013-03-08 10:09:00,57.6,33.5,30.26,SE,124,12.0,16.0,40,0.00,,---,0.00,VWS V14.00,2013-03-08 16:09:00,
2013-03-08 10:10:00,57.8,34.3,30.26,SE,127,11.0,14.0,41,0.00,,---,0.00,VWS V14.00,2013-03-08 16:10:00,
2013-03-08 10:11:00,54.8,33.3,30.27,ESE,117,15.0,15.0,44,0.00,,---,0.00,VWS V14.00,2013-03-08 16:11:00,
2013-03-08 10:12:00,58.0,34.5,30.26,ESE,122,8.0,13.0,41,0.00,,---,0.00,VWS V14.00,2013-03-08 16:12:00,
2013-03-08 10:13:00,58.1,34.5,30.26,ESE,121,5.0,10.0,41,0.00,,---,0.00,VWS V14.00,2013-03-08 16:13:00,
2013-03-08 10:14:00,58.1,34.5,30.26,ESE,121,7.0,7.0,41,0.00,,---,0.00,VWS V14.00,2013-03-08 16:14:00,
2013-03-08 10:15:00,58.3,34.1,30.26,SE,136,7.0,13.0,40,0.00,,---,0.00,VWS V14.00,2013-03-08 16:15:00,
2013-03-08 10:16:00,55.3,33.8,30.27,SE,143,9.0,10.0,44,0.00,,---,0.00,VWS V14.00,2013-03-08 16:16:00,
2013-03-08 10:17:00,58.4,34.8,30.26,SSE,151,10.0,15.0,41,0.00,,---,0.00,VWS V14.00,2013-03-08 16:17:00,
2013-03-08 10:18:00,58.6,35.0,30.26,SSE,152,3.0,13.0,41,0.00,,---,0.00,VWS V14.00,2013-03-08 16:18:00,
2013-03-08 10:19:00,58.7,34.5,30.26,SSE,150,12.0,12.0,40,0.00,,---,0.00,VWS V14.00,2013-03-08 16:19:00,
2013-03-08 10:20:00,58.9,34.6,30.26,SE,133,6.0,12.0,40,0.00,,---,0.00,VWS V14.00,2013-03-08 16:20:00,
2013-03-08 10:21:00,56.3,34.1,30.27,SSE,153,10.0,16.0,43,0.00,,---,0.00,VWS V14.00,2013-03-08 16:21:00,
2013-03-08 10:22:00,59.2,35.5,30.26,SE,130,12.0,13.0,41,0.00,,---,0.00,VWS V14.00,2013-03-08 16:22:00,
2013-03-08 10:23:00,59.2,34.9,30.26,SE,146,10.0,15.0,40,0.00,,---,0.00,VWS V14.00,2013-03-08 16:23:00,
2013-03-08 10:24:00,59.3,35.0,30.26,SE,134,9.0,12.0,40,0.00,,---,0.00,VWS V14.00,2013-03-08 16:24:00,
2013-03-08 10:25:00,59.3,35.0,30.26,SE,134,12.0,13.0,40,0.00,,---,0.00,VWS V14.00,2013-03-08 16:25:00,
2013-03-08 10:26:00,56.6,34.4,30.26,South,173,6.0,13.0,43,0.00,,---,0.00,VWS V14.00,2013-03-08 16:26:00,
2013-03-08 10:27:00,59.2,34.9,30.26,SE,133,7.0,11.0,40,0.00,,---,0.00,VWS V14.00,2013-03-08 16:27:00,
2013-03-08 10:28:00,59.2,34.9,30.25,ESE,123,4.0,13.0,40,0.00,,---,0.00,VWS V14.00,2013-03-08 16:28:00,
2013-03-08 10:29:00,59.5,35.8,30.26,SSE,147,4.0,10.0,41,0.00,,---,0.00,VWS V14.00,2013-03-08 16:29:00,
2013-03-08 10:30:00,59.8,36.1,30.25,SSE,148,5.0,6.0,41,0.00,,---,0.00,VWS V14.00,2013-03-08 16:30:00,
2013-03-08 10:31:00,56.5,33.1,30.26,SE,138,10.0,13.0,41,0.00,,---,0.00,VWS V14.00,2013-03-08 16:31:00,
2013-03-08 10:32:00,59.9,35.5,30.25,SE,146,5.0,6.0,40,0.00,,---,0.00,VWS V14.00,2013-03-08 16:32:00,
2013-03-08 10:33:00,60.1,35.7,30.25,SSE,154,8.0,12.0,40,0.00,,---,0.00,VWS V14.00,2013-03-08 16:33:00,
2013-03-08 10:34:00,60.1,35.7,30.25,SSE,147,7.0,10.0,40,0.00,,---,0.00,VWS V14.00,2013-03-08 16:34:00,
2013-03-08 10:35:00,60.2,35.8,30.25,SSE,147,3.0,7.0,40,0.00,,---,0.00,VWS V14.00,2013-03-08 16:35:00,
2013-03-08 10:36:00,57.0,34.2,30.26,SSE,161,9.0,9.0,42,0.00,,---,0.00,VWS V14.00,2013-03-08 16:36:00,
2013-03-08 10:37:00,60.2,35.8,30.26,South,180,7.0,11.0,40,0.00,,---,0.00,VWS V14.00,2013-03-08 16:37:00,
2013-03-08 10:38:00,60.4,36.0,30.25,SE,143,13.0,13.0,40,0.00,,---,0.00,VWS V14.00,2013-03-08 16:38:00,
2013-03-08 10:39:00,60.2,35.2,30.26,SE,130,14.0,14.0,39,0.00,,---,0.00,VWS V14.00,2013-03-08 16:39:00,
2013-03-08 10:40:00,60.1,35.1,30.26,SSE,153,11.0,14.0,39,0.00,,---,0.00,VWS V14.00,2013-03-08 16:40:00,
2013-03-08 10:41:00,57.3,33.8,30.27,South,177,6.0,12.0,41,0.00,,---,0.00,VWS V14.00,2013-03-08 16:41:00,
2013-03-08 10:42:00,59.8,35.5,30.25,SSE,150,6.0,14.0,40,0.00,,---,0.00,VWS V14.00,2013-03-08 16:42:00,
2013-03-08 10:43:00,59.8,34.8,30.25,SSE,157,13.0,15.0,39,0.00,,---,0.00,VWS V14.00,2013-03-08 16:43:00,
2013-03-08 10:44:00,59.6,34.6,30.26,SE,141,6.0,15.0,39,0.00,,---,0.00,VWS V14.00,2013-03-08 16:44:00,
2013-03-08 10:45:00,59.6,35.3,30.26,SE,141,3.0,6.0,40,0.00,,---,0.00,VWS V14.00,2013-03-08 16:45:00,
2013-03-08 10:46:00,57.6,33.5,30.27,ESE,111,18.0,18.0,40,0.00,,---,0.00,VWS V14.00,2013-03-08 16:46:00,
2013-03-08 10:47:00,59.9,36.2,30.26,SE,141,0.0,5.0,41,0.00,,---,0.00,VWS V14.00,2013-03-08 16:47:00,
2013-03-08 10:48:00,60.1,35.7,30.26,SSE,155,11.0,15.0,40,0.00,,---,0.00,VWS V14.00,2013-03-08 16:48:00,
2013-03-08 10:49:00,60.2,35.8,30.26,SE,141,6.0,11.0,40,0.00,,---,0.00,VWS V14.00,2013-03-08 16:49:00,
2013-03-08 10:50:00,60.2,35.8,30.26,SE,132,9.0,10.0,40,0.00,,---,0.00,VWS V14.00,2013-03-08 16:50:00,
2013-03-08 10:51:00,56.6,33.2,30.26,ESE,114,17.0,17.0,41,0.00,,---,0.00,VWS V14.00,2013-03-08 16:51:00,
2013-03-08 10:52:00,60.1,35.7,30.26,ESE,123,10.0,15.0,40,0.00,,---,0.00,VWS V14.00,2013-03-08 16:52:00,
2013-03-08 10:53:00,60.1,35.7,30.26,SE,138,6.0,11.0,40,0.00,,---,0.00,VWS V14.00,2013-03-08 16:53:00,
2013-03-08 10:54:00,59.9,35.5,30.26,ESE,122,11.0,17.0,40,0.00,,---,0.00,VWS V14.00,2013-03-08 16:54:00,
2013-03-08 10:55:00,59.8,35.5,30.26,SE,140,10.0,15.0,40,0.00,,---,0.00,VWS V14.00,2013-03-08 16:55:00,
2013-03-08 10:56:00,56.6,33.8,30.26,SE,136,9.0,12.0,42,0.00,,---,0.00,VWS V14.00,2013-03-08 16:56:00,
2013-03-08 10:57:00,60.1,36.3,30.26,SSE,161,11.0,15.0,41,0.00,,---,0.00,VWS V14.00,2013-03-08 16:57:00,
2013-03-08 10:58:00,60.2,35.8,30.26,SE,125,12.0,14.0,40,0.00,,---,0.00,VWS V14.00,2013-03-08 16:58:00,
2013-03-08 10:59:00,60.2,35.8,30.26,SE,126,15.0,16.0,40,0.00,,---,0.00,VWS V14.00,2013-03-08 16:59:00,
2013-03-08 11:00:00,60.1,35.7,30.26,SSE,151,11.0,16.0,40,0.00,,---,0.00,VWS V14.00,2013-03-08 17:00:00,
2013-03-08 11:01:00,57.2,33.7,30.26,SSE,150,10.0,12.0,41,0.00,,---,0.00,VWS V14.00,2013-03-08 17:01:00,
2013-03-08 11:02:00,60.1,35.7,30.26,SSE,155,9.0,16.0,40,0.00,,---,0.00,VWS V14.00,2013-03-08 17:02:00,
2013-03-08 11:03:00,60.1,35.7,30.26,ESE,121,11.0,16.0,40,0.00,,---,0.00,VWS V14.00,2013-03-08 17:03:00,
2013-03-08 11:04:00,60.1,35.7,30.26,SE,125,5.0,15.0,40,0.00,,---,0.00,VWS V14.00,2013-03-08 17:04:00,
2013-03-08 11:05:00,60.2,36.4,30.26,SE,127,10.0,13.0,41,0.00,,---,0.00,VWS V14.00,2013-03-08 17:05:00,
2013-03-08 11:06:00,57.6,33.5,30.26,ESE,119,10.0,15.0,40,0.00,,---,0.00,VWS V14.00,2013-03-08 17:06:00,
2013-03-08 11:07:00,60.4,36.6,30.26,ESE,117,11.0,16.0,41,0.00,,---,0.00,VWS V14.00,2013-03-08 17:07:00,
2013-03-08 11:08:00,60.2,36.4,30.26,SE,146,12.0,15.0,41,0.00,,---,0.00,VWS V14.00,2013-03-08 17:08:00,
2013-03-08 11:09:00,60.4,36.0,30.26,SE,138,10.0,14.0,40,0.00,,---,0.00,VWS V14.00,2013-03-08 17:09:00,
2013-03-08 11:10:00,60.4,36.0,30.26,SE,132,12.0,15.0,40,0.00,,---,0.00,VWS V14.00,2013-03-08 17:10:00,
2013-03-08 11:11:00,57.8,33.7,30.26,SSE,147,3.0,11.0,40,0.00,,---,0.00,VWS V14.00,2013-03-08 17:11:00,
2013-03-08 11:12:00,60.2,35.8,30.26,SSE,151,11.0,11.0,40,0.00,,---,0.00,VWS V14.00,2013-03-08 17:12:00,
2013-03-08 11:13:00,60.4,36.0,30.26,SE,138,7.0,13.0,40,0.00,,---,0.00,VWS V14.00,2013-03-08 17:13:00,
2013-03-08 11:14:00,60.4,36.6,30.26,SE,141,13.0,14.0,41,0.00,,---,0.00,VWS V14.00,2013-03-08 17:14:00,
2013-03-08 11:15:00,60.4,36.0,30.26,SE,136,15.0,15.0,40,0.00,,---,0.00,VWS V14.00,2013-03-08 17:15:00,
2013-03-08 11:16:00,58.4,34.2,30.26,ESE,113,18.0,18.0,40,0.00,,---,0.00,VWS V14.00,2013-03-08 17:16:00,
2013-03-08 11:17:00,60.2,35.8,30.25,SSE,150,7.0,12.0,40,0.00,,---,0.00,VWS V14.00,2013-03-08 17:17:00,
2013-03-08 11:18:00,60.4,36.6,30.26,SE,139,13.0,14.0,41,0.00,,---,0.00,VWS V14.00,2013-03-08 17:18:00,
2013-03-08 11:19:00,60.4,36.6,30.26,SSE,156,4.0,13.0,41,0.00,,---,0.00,VWS V14.00,2013-03-08 17:19:00,
2013-03-08 11:20:00,60.5,36.1,30.25,SSE,156,3.0,6.0,40,0.00,,---,0.00,VWS V14.00,2013-03-08 17:20:00,
2013-03-08 11:21:00,58.9,34.6,30.26,SE,142,9.0,11.0,40,0.00,,---,0.00,VWS V14.00,2013-03-08 17:21:00,
2013-03-08 11:22:00,60.9,36.4,30.25,South,184,7.0,12.0,40,0.00,,---,0.00,VWS V14.00,2013-03-08 17:22:00,
2013-03-08 11:23:00,60.9,36.4,30.25,SSW,199,11.0,12.0,40,0.00,,---,0.00,VWS V14.00,2013-03-08 17:23:00,
2013-03-08 11:24:00,60.9,36.4,30.25,South,170,6.0,12.0,40,0.00,,---,0.00,VWS V14.00,2013-03-08 17:24:00,
2013-03-08 11:25:00,60.9,35.8,30.25,SE,128,11.0,16.0,39,0.00,,---,0.00,VWS V14.00,2013-03-08 17:25:00,
2013-03-08 11:26:00,59.2,34.9,30.26,SE,134,6.0,12.0,40,0.00,,---,0.00,VWS V14.00,2013-03-08 17:26:00,
2013-03-08 11:27:00,60.7,36.3,30.25,SE,146,9.0,9.0,40,0.00,,---,0.00,VWS V14.00,2013-03-08 17:27:00,
2013-03-08 11:28:00,60.7,36.3,30.25,SE,136,11.0,14.0,40,0.00,,---,0.00,VWS V14.00,2013-03-08 17:28:00,
2013-03-08 11:29:00,60.5,36.1,30.25,SSE,149,7.0,15.0,40,0.00,,---,0.00,VWS V14.00,2013-03-08 17:29:00,
2013-03-08 11:30:00,60.5,36.7,30.25,SSE,157,5.0,11.0,41,0.00,,---,0.00,VWS V14.00,2013-03-08 17:30:00,
2013-03-08 11:31:00,59.9,36.2,30.25,SE,146,6.0,11.0,41,0.00,,---,0.00,VWS V14.00,2013-03-08 17:31:00,
2013-03-08 11:32:00,60.5,36.1,30.24,SSE,153,3.0,10.0,40,0.00,,---,0.00,VWS V14.00,2013-03-08 17:32:00,
2013-03-08 11:33:00,60.5,36.1,30.24,South,176,5.0,11.0,40,0.00,,---,0.00,VWS V14.00,2013-03-08 17:33:00,
2013-03-08 11:34:00,60.7,36.3,30.24,South,182,0.0,8.0,40,0.00,,---,0.00,VWS V14.00,2013-03-08 17:34:00,
2013-03-08 11:35:00,60.7,36.3,30.24,SE,134,12.0,12.0,40,0.00,,---,0.00,VWS V14.00,2013-03-08 17:35:00,
2013-03-08 11:36:00,60.2,35.8,30.26,SE,132,7.0,13.0,40,0.00,,---,0.00,VWS V14.00,2013-03-08 17:36:00,
2013-03-08 11:37:00,60.7,35.6,30.23,SSE,161,6.0,18.0,39,0.00,,---,0.00,VWS V14.00,2013-03-08 17:37:00,
2013-03-08 11:38:00,60.5,35.4,30.23,SSE,152,9.0,17.0,39,0.00,,---,0.00,VWS V14.00,2013-03-08 17:38:00,
2013-03-08 11:39:00,60.4,35.3,30.23,SE,131,7.0,17.0,39,0.00,,---,0.00,VWS V14.00,2013-03-08 17:39:00,
2013-03-08 11:40:00,60.2,35.8,30.23,SE,143,6.0,10.0,40,0.00,,---,0.00,VWS V14.00,2013-03-08 17:40:00,
2013-03-08 11:41:00,59.9,34.9,30.26,SSE,147,13.0,14.0,39,0.00,,---,0.00,VWS V14.00,2013-03-08 17:41:00,
2013-03-08 11:42:00,60.2,35.2,30.23,SE,138,10.0,17.0,39,0.00,,---,0.00,VWS V14.00,2013-03-08 17:42:00,
2013-03-08 11:43:00,60.2,35.2,30.24,ESE,123,13.0,14.0,39,0.00,,---,0.00,VWS V14.00,2013-03-08 17:43:00,
2013-03-08 11:44:00,60.2,35.2,30.24,SSE,148,7.0,16.0,39,0.00,,---,0.00,VWS V14.00,2013-03-08 17:44:00,
2013-03-08 11:45:00,60.2,35.8,30.23,ESE,121,13.0,17.0,40,0.00,,---,0.00,VWS V14.00,2013-03-08 17:45:00,
2013-03-08 11:46:00,59.6,35.3,30.26,SE,140,7.0,9.0,40,0.00,,---,0.00,VWS V14.00,2013-03-08 17:46:00,
2013-03-08 11:47:00,60.1,35.1,30.23,ESE,122,16.0,17.0,39,0.00,,---,0.00,VWS V14.00,2013-03-08 17:47:00,
2013-03-08 11:48:00,59.9,35.5,30.23,SSE,159,12.0,17.0,40,0.00,,---,0.00,VWS V14.00,2013-03-08 17:48:00,
2013-03-08 11:49:00,59.9,35.5,30.23,SE,134,9.0,14.0,40,0.00,,---,0.00,VWS V14.00,2013-03-08 17:49:00,
2013-03-08 11:50:00,60.1,35.7,30.23,SSE,147,3.0,12.0,40,0.00,,---,0.00,VWS V14.00,2013-03-08 17:50:00,
2013-03-08 11:51:00,60.1,35.7,30.26,SE,131,9.0,11.0,40,0.00,,---,0.00,VWS V14.00,2013-03-08 17:51:00,
2013-03-08 11:52:00,60.4,35.3,30.23,SE,140,8.0,12.0,39,0.00,,---,0.00,VWS V14.00,2013-03-08 17:52:00,
2013-03-08 11:53:00,60.4,35.3,30.23,SE,143,6.0,15.0,39,0.00,,---,0.00,VWS V14.00,2013-03-08 17:53:00,
2013-03-08 11:54:00,60.4,35.3,30.23,SE,140,7.0,7.0,39,0.00,,---,0.00,VWS V14.00,2013-03-08 17:54:00,
2013-03-08 11:55:00,60.4,35.3,30.23,SE,136,6.0,12.0,39,0.00,,---,0.00,VWS V14.00,2013-03-08 17:55:00,
2013-03-08 11:56:00,59.8,35.5,30.26,SE,140,4.0,10.0,40,0.00,,---,0.00,VWS V14.00,2013-03-08 17:56:00,
2013-03-08 11:57:00,60.5,35.4,30.23,SE,138,6.0,8.0,39,0.00,,---,0.00,VWS V14.00,2013-03-08 17:57:00,
2013-03-08 11:58:00,60.5,35.4,30.23,SSE,149,10.0,12.0,39,0.00,,---,0.00,VWS V14.00,2013-03-08 17:58:00,
2013-03-08 11:59:00,60.5,35.4,30.23,SSE,148,5.0,10.0,39,0.00,,---,0.00,VWS V14.00,2013-03-08 17:59:00,
2013-03-08 12:00:00,60.5,35.4,30.23,SE,131,5.0,10.0,39,0.00,,---,0.00,VWS V14.00,2013-03-08 18:00:00,
2013-03-08 12:01:00,60.1,35.7,30.26,SE,146,10.0,14.0,40,0.00,,---,0.00,VWS V14.00,2013-03-08 18:01:00,
2013-03-08 12:02:00,60.4,35.3,30.23,SE,124,7.0,14.0,39,0.00,,---,0.00,VWS V14.00,2013-03-08 18:02:00,
2013-03-08 12:03:00,60.4,35.3,30.23,SE,129,6.0,9.0,39,0.00,,---,0.00,VWS V14.00,2013-03-08 18:03:00,
2013-03-08 12:04:00,60.4,35.3,30.22,SE,137,12.0,12.0,39,0.00,,---,0.00,VWS V14.00,2013-03-08 18:04:00,
2013-03-08 12:05:00,60.4,35.3,30.22,SSE,156,10.0,12.0,39,0.00,,---,0.00,VWS V14.00,2013-03-08 18:05:00,
2013-03-08 12:06:00,60.2,35.8,30.26,SE,138,12.0,14.0,40,0.00,,---,0.00,VWS V14.00,2013-03-08 18:06:00,
2013-03-08 12:07:00,60.2,35.2,30.22,SE,130,5.0,10.0,39,0.00,,---,0.00,VWS V14.00,2013-03-08 18:07:00,
2013-03-08 12:08:00,59.9,36.2,30.22,SE,132,9.0,10.0,41,0.00,,---,0.00,VWS V14.00,2013-03-08 18:08:00,
2013-03-08 12:09:00,59.9,35.5,30.21,SE,131,7.0,9.0,40,0.00,,---,0.00,VWS V14.00,2013-03-08 18:09:00,
2013-03-08 12:10:00,60.1,35.1,30.21,SE,131,6.0,7.0,39,0.00,,---,0.00,VWS V14.00,2013-03-08 18:10:00,
2013-03-08 12:11:00,60.2,35.8,30.26,ESE,123,11.0,12.0,40,0.00,,---,0.00,VWS V14.00,2013-03-08 18:11:00,
2013-03-08 12:12:00,60.2,35.2,30.20,ESE,122,6.0,13.0,39,0.00,,---,0.00,VWS V14.00,2013-03-08 18:12:00,
2013-03-08 12:13:00,60.1,35.1,30.20,ESE,122,10.0,11.0,39,0.00,,---,0.00,VWS V14.00,2013-03-08 18:13:00,
2013-03-08 12:14:00,60.1,35.1,30.20,ESE,119,9.0,11.0,39,0.00,,---,0.00,VWS V14.00,2013-03-08 18:14:00,
2013-03-08 12:15:00,60.1,35.1,30.20,ESE,119,5.0,9.0,39,0.00,,---,0.00,VWS V14.00,2013-03-08 18:15:00,
2013-03-08 12:16:00,60.4,36.0,30.26,SE,128,9.0,16.0,40,0.00,,---,0.00,VWS V14.00,2013-03-08 18:16:00,
2013-03-08 12:17:00,60.1,35.7,30.20,ESE,116,12.0,13.0,40,0.00,,---,0.00,VWS V14.00,2013-03-08 18:17:00,
2013-03-08 12:18:00,59.9,34.2,30.20,ESE,116,12.0,13.0,38,0.00,,---,0.00,VWS V14.00,2013-03-08 18:18:00,
2013-03-08 12:19:00,60.1,34.4,30.20,ESE,119,11.0,14.0,38,0.00,,---,0.00,VWS V14.00,2013-03-08 18:19:00,
2013-03-08 12:20:00,60.1,35.1,30.20,ESE,113,13.0,13.0,39,0.00,,---,0.00,VWS V14.00,2013-03-08 18:20:00,
2013-03-08 12:21:00,60.7,36.9,30.25,SSE,156,4.0,4.0,41,0.00,,---,0.00,VWS V14.00,2013-03-08 18:21:00,
2013-03-08 12:22:00,60.2,34.5,30.20,ESE,123,6.0,14.0,38,0.00,,---,0.00,VWS V14.00,2013-03-08 18:22:00,
2013-03-08 12:23:00,60.4,34.7,30.20,SSE,158,5.0,14.0,38,0.00,,---,0.00,VWS V14.00,2013-03-08 18:23:00,
2013-03-08 12:24:00,60.5,34.8,30.20,SE,133,13.0,13.0,38,0.00,,---,0.00,VWS V14.00,2013-03-08 18:24:00,
2013-03-08 12:25:00,60.5,34.8,30.20,SE,140,4.0,16.0,38,0.00,,---,0.00,VWS V14.00,2013-03-08 18:25:00,
2013-03-08 12:26:00,60.7,36.3,30.25,SSE,166,3.0,11.0,40,0.00,,---,0.00,VWS V14.00,2013-03-08 18:26:00,
2013-03-08 12:27:00,61.0,35.2,30.20,SSE,148,9.0,14.0,38,0.00,,---,0.00,VWS V14.00,2013-03-08 18:27:00,
2013-03-08 12:28:00,61.2,34.7,30.20,SE,140,5.0,11.0,37,0.00,,---,0.00,VWS V14.00,2013-03-08 18:28:00,
2013-03-08 12:29:00,61.0,34.6,30.20,SE,140,7.0,7.0,37,0.00,,---,0.00,VWS V14.00,2013-03-08 18:29:00,
2013-03-08 12:30:00,61.2,34.7,30.20,South,173,11.0,11.0,37,0.00,,---,0.00,VWS V14.00,2013-03-08 18:30:00,
2013-03-08 12:31:00,60.5,36.7,30.25,SSE,155,9.0,9.0,41,0.00,,---,0.00,VWS V14.00,2013-03-08 18:31:00,
2013-03-08 12:32:00,61.3,34.8,30.20,SSE,158,7.0,9.0,37,0.00,,---,0.00,VWS V14.00,2013-03-08 18:32:00,
2013-03-08 12:33:00,61.3,34.8,30.20,SE,146,5.0,12.0,37,0.00,,---,0.00,VWS V14.00,2013-03-08 18:33:00,
2013-03-08 12:34:00,61.3,34.8,30.20,SE,144,6.0,10.0,37,0.00,,---,0.00,VWS V14.00,2013-03-08 18:34:00,
2013-03-08 12:35:00,61.5,35.0,30.20,SE,139,10.0,11.0,37,0.00,,---,0.00,VWS V14.00,2013-03-08 18:35:00,
2013-03-08 12:36:00,60.9,36.4,30.24,SE,135,12.0,16.0,40,0.00,,---,0.00,VWS V14.00,2013-03-08 18:36:00,
2013-03-08 12:37:00,61.5,35.0,30.19,SE,135,10.0,11.0,37,0.00,,---,0.00,VWS V14.00,2013-03-08 18:37:00,
2013-03-08 12:38:00,61.5,35.0,30.19,SSE,150,9.0,11.0,37,0.00,,---,0.00,VWS V14.00,2013-03-08 18:38:00,
2013-03-08 12:39:00,61.6,35.1,30.19,SSE,152,4.0,14.0,37,0.00,,---,0.00,VWS V14.00,2013-03-08 18:39:00,
2013-03-08 12:40:00,61.6,34.4,30.19,SSE,159,7.0,8.0,36,0.00,,---,0.00,VWS V14.00,2013-03-08 18:40:00,
2013-03-08 12:41:00,60.2,35.8,30.24,SE,143,8.0,11.0,40,0.00,,---,0.00,VWS V14.00,2013-03-08 18:41:00,
2013-03-08 12:42:00,61.8,34.6,30.19,SSE,151,9.0,13.0,36,0.00,,---,0.00,VWS V14.00,2013-03-08 18:42:00,
2013-03-08 12:43:00,62.0,34.8,30.18,SSE,167,6.0,13.0,36,0.00,,---,0.00,VWS V14.00,2013-03-08 18:43:00,
2013-03-08 12:44:00,62.1,34.8,30.18,SSE,168,5.0,6.0,36,0.00,,---,0.00,VWS V14.00,2013-03-08 18:44:00,
2013-03-08 12:45:00,62.3,35.0,30.18,SSE,168,9.0,10.0,36,0.00,,---,0.00,VWS V14.00,2013-03-08 18:45:00,
2013-03-08 12:46:00,60.1,35.1,30.23,SE,134,12.0,14.0,39,0.00,,---,0.00,VWS V14.00,2013-03-08 18:46:00,
2013-03-08 12:47:00,62.4,34.4,30.18,SSE,147,10.0,13.0,35,0.00,,---,0.00,VWS V14.00,2013-03-08 18:47:00,
2013-03-08 12:48:00,62.6,34.6,30.18,SSE,148,2.0,10.0,35,0.00,,---,0.00,VWS V14.00,2013-03-08 18:48:00,
2013-03-08 12:49:00,62.7,34.7,30.18,SSE,153,6.0,10.0,35,0.00,,---,0.00,VWS V14.00,2013-03-08 18:49:00,
2013-03-08 12:50:00,62.7,34.7,30.18,SSE,150,6.0,11.0,35,0.00,,---,0.00,VWS V14.00,2013-03-08 18:50:00,
2013-03-08 12:51:00,60.2,35.8,30.23,SE,132,14.0,15.0,40,0.00,,---,0.00,VWS V14.00,2013-03-08 18:51:00,
2013-03-08 12:52:00,62.9,34.8,30.18,SSE,152,5.0,9.0,35,0.00,,---,0.00,VWS V14.00,2013-03-08 18:52:00,
2013-03-08 12:53:00,62.9,34.8,30.18,SE,146,12.0,13.0,35,0.00,,---,0.00,VWS V14.00,2013-03-08 18:53:00,
2013-03-08 12:54:00,62.9,34.1,30.18,SSE,160,6.0,15.0,34,0.00,,---,0.00,VWS V14.00,2013-03-08 18:54:00,
2013-03-08 12:56:00,60.4,35.3,30.23,SE,138,7.0,10.0,39,0.00,,---,0.00,VWS V14.00,2013-03-08 18:56:00,
2013-03-08 12:57:00,62.4,33.7,30.18,SSE,150,10.0,13.0,34,0.00,,---,0.00,VWS V14.00,2013-03-08 18:57:00,
2013-03-08 12:58:00,62.3,34.3,30.18,South,180,7.0,11.0,35,0.00,,---,0.00,VWS V14.00,2013-03-08 18:58:00,
2013-03-08 12:59:00,62.3,33.6,30.18,SSE,164,2.0,15.0,34,0.00,,---,0.00,VWS V14.00,2013-03-08 18:59:00,
2013-03-08 13:00:00,62.3,34.3,30.18,SSE,163,7.0,8.0,35,0.00,,---,0.00,VWS V14.00,2013-03-08 19:00:00,
2013-03-08 13:01:00,60.5,35.4,30.23,SE,132,7.0,9.0,39,0.00,,---,0.00,VWS V14.00,2013-03-08 19:01:00,
2013-03-08 13:02:00,62.1,33.4,30.18,SE,140,9.0,10.0,34,0.00,,---,0.00,VWS V14.00,2013-03-08 19:02:00,
2013-03-08 13:03:00,62.0,34.1,30.18,ESE,122,13.0,13.0,35,0.00,,---,0.00,VWS V14.00,2013-03-08 19:03:00,
2013-03-08 13:04:00,61.8,33.9,30.18,ESE,121,15.0,15.0,35,0.00,,---,0.00,VWS V14.00,2013-03-08 19:04:00,
2013-03-08 13:05:00,61.8,33.9,30.18,SE,134,8.0,16.0,35,0.00,,---,0.00,VWS V14.00,2013-03-08 19:05:00,
2013-03-08 13:06:00,60.4,35.3,30.22,ESE,122,10.0,13.0,39,0.00,,---,0.00,VWS V14.00,2013-03-08 19:06:00,
2013-03-08 13:07:00,61.8,33.9,30.18,SE,134,5.0,9.0,35,0.00,,---,0.00,VWS V14.00,2013-03-08 19:07:00,
2013-03-08 13:08:00,61.8,33.9,30.18,SE,133,12.0,12.0,35,0.00,,---,0.00,VWS V14.00,2013-03-08 19:08:00,
2013-03-08 13:09:00,61.6,33.7,30.17,SE,126,15.0,15.0,35,0.00,,---,0.00,VWS V14.00,2013-03-08 19:09:00,
2013-03-08 13:10:00,61.6,33.7,30.17,SSE,165,4.0,16.0,35,0.00,,---,0.00,VWS V14.00,2013-03-08 19:10:00,
2013-03-08 13:11:00,60.1,35.1,30.20,SE,131,2.0,7.0,39,0.00,,---,0.00,VWS V14.00,2013-03-08 19:11:00,
2013-03-08 13:12:00,61.6,33.7,30.17,ESE,123,12.0,16.0,35,0.00,,---,0.00,VWS V14.00,2013-03-08 19:12:00,
2013-03-08 13:13:00,61.3,34.1,30.17,ESE,123,13.0,14.0,36,0.00,,---,0.00,VWS V14.00,2013-03-08 19:13:00,
2013-03-08 13:14:00,61.2,34.1,30.17,SE,125,6.0,13.0,36,0.00,,---,0.00,VWS V14.00,2013-03-08 19:14:00,
2013-03-08 13:15:00,61.2,33.3,30.18,SE,144,6.0,11.0,35,0.00,,---,0.00,VWS V14.00,2013-03-08 19:15:00,
2013-03-08 13:16:00,60.1,35.7,30.20,ESE,114,7.0,9.0,40,0.00,,---,0.00,VWS V14.00,2013-03-08 19:16:00,
2013-03-08 13:17:00,61.3,33.4,30.17,SE,140,4.0,10.0,35,0.00,,---,0.00,VWS V14.00,2013-03-08 19:17:00,
2013-03-08 13:18:00,61.3,34.1,30.17,SE,131,11.0,11.0,36,0.00,,---,0.00,VWS V14.00,2013-03-08 19:18:00,
2013-03-08 13:19:00,61.3,33.4,30.17,SE,130,9.0,11.0,35,0.00,,---,0.00,VWS V14.00,2013-03-08 19:19:00,
2013-03-08 13:20:00,61.3,33.4,30.17,SE,134,9.0,10.0,35,0.00,,---,0.00,VWS V14.00,2013-03-08 19:20:00,
2013-03-08 13:21:00,60.1,35.1,30.20,SE,126,16.0,16.0,39,0.00,,---,0.00,VWS V14.00,2013-03-08 19:21:00,
2013-03-08 13:22:00,61.3,33.4,30.17,SE,133,7.0,11.0,35,0.00,,---,0.00,VWS V14.00,2013-03-08 19:22:00,
2013-03-08 13:23:00,61.3,33.4,30.17,SE,133,3.0,8.0,35,0.00,,---,0.00,VWS V14.00,2013-03-08 19:23:00,
2013-03-08 13:24:00,61.3,33.4,30.17,SE,133,5.0,5.0,35,0.00,,---,0.00,VWS V14.00,2013-03-08 19:24:00,
2013-03-08 13:25:00,61.3,34.1,30.17,SE,135,3.0,10.0,36,0.00,,---,0.00,VWS V14.00,2013-03-08 19:25:00,
2013-03-08 13:26:00,60.7,35.0,30.20,SE,142,5.0,9.0,38,0.00,,---,0.00,VWS V14.00,2013-03-08 19:26:00,
2013-03-08 13:27:00,61.3,33.4,30.17,SE,135,4.0,4.0,35,0.00,,---,0.00,VWS V14.00,2013-03-08 19:27:00,
2013-03-08 13:28:00,61.3,33.4,30.17,SE,135,2.0,6.0,35,0.00,,---,0.00,VWS V14.00,2013-03-08 19:28:00,
2013-03-08 13:29:00,61.2,33.3,30.17,SE,140,5.0,8.0,35,0.00,,---,0.00,VWS V14.00,2013-03-08 19:29:00,
2013-03-08 13:30:00,61.2,33.3,30.17,SE,140,4.0,6.0,35,0.00,,---,0.00,VWS V14.00,2013-03-08 19:30:00,
2013-03-08 13:31:00,61.2,34.7,30.20,South,173,4.0,11.0,37,0.00,,---,0.00,VWS V14.00,2013-03-08 19:31:00,
2013-03-08 13:32:00,61.2,33.3,30.17,SE,140,1.0,5.0,35,0.00,,---,0.00,VWS V14.00,2013-03-08 19:32:00,
2013-03-08 13:33:00,61.2,34.1,30.17,SE,140,6.0,7.0,36,0.00,,---,0.00,VWS V14.00,2013-03-08 19:33:00,
2013-03-08 13:34:00,61.2,33.3,30.17,SE,140,3.0,6.0,35,0.00,,---,0.00,VWS V14.00,2013-03-08 19:34:00,
2013-03-08 13:35:00,61.2,33.3,30.17,SE,142,5.0,5.0,35,0.00,,---,0.00,VWS V14.00,2013-03-08 19:35:00,
2013-03-08 13:36:00,61.5,35.0,30.19,SE,136,12.0,13.0,37,0.00,,---,0.00,VWS V14.00,2013-03-08 19:36:00,
2013-03-08 13:37:00,61.0,33.2,30.16,SE,142,5.0,9.0,35,0.00,,---,0.00,VWS V14.00,2013-03-08 19:37:00,
2013-03-08 13:38:00,61.0,33.2,30.16,SE,142,3.0,6.0,35,0.00,,---,0.00,VWS V14.00,2013-03-08 19:38:00,
2013-03-08 13:39:00,61.0,33.2,30.16,SE,142,1.0,5.0,35,0.00,,---,0.00,VWS V14.00,2013-03-08 19:39:00,
2013-03-08 13:40:00,61.0,33.2,30.16,SE,142,7.0,7.0,35,0.00,,---,0.00,VWS V14.00,2013-03-08 19:40:00,
2013-03-08 13:41:00,61.8,34.6,30.19,SSE,149,5.0,14.0,36,0.00,,---,0.00,VWS V14.00,2013-03-08 19:41:00,
2013-03-08 13:42:00,61.0,33.2,30.16,SE,143,4.0,6.0,35,0.00,,---,0.00,VWS V14.00,2013-03-08 19:42:00,
2013-03-08 13:43:00,61.0,33.2,30.16,SE,143,3.0,6.0,35,0.00,,---,0.00,VWS V14.00,2013-03-08 19:43:00,
2013-03-08 13:44:00,61.0,33.2,30.16,SE,143,4.0,7.0,35,0.00,,---,0.00,VWS V14.00,2013-03-08 19:44:00,
2013-03-08 13:45:00,61.0,33.2,30.16,SE,141,6.0,10.0,35,0.00,,---,0.00,VWS V14.00,2013-03-08 19:45:00,
2013-03-08 13:46:00,62.4,35.1,30.18,SSE,155,13.0,13.0,36,0.00,,---,0.00,VWS V14.00,2013-03-08 19:46:00,
2013-03-08 13:47:00,61.0,33.9,30.16,SE,140,7.0,7.0,36,0.00,,---,0.00,VWS V14.00,2013-03-08 19:47:00,
2013-03-08 13:48:00,61.0,33.2,30.16,SE,140,5.0,9.0,35,0.00,,---,0.00,VWS V14.00,2013-03-08 19:48:00,
2013-03-08 13:49:00,61.0,33.2,30.16,SE,139,8.0,11.0,35,0.00,,---,0.00,VWS V14.00,2013-03-08 19:49:00,
2013-03-08 13:50:00,60.9,33.1,30.16,ESE,122,10.0,13.0,35,0.00,,---,0.00,VWS V14.00,2013-03-08 19:50:00,
2013-03-08 13:51:00,62.9,34.8,30.18,SSE,151,6.0,6.0,35,0.00,,---,0.00,VWS V14.00,2013-03-08 19:51:00,
2013-03-08 13:52:00,60.9,33.1,30.16,SE,134,11.0,15.0,35,0.00,,---,0.00,VWS V14.00,2013-03-08 19:52:00,
2013-03-08 13:53:00,60.9,33.1,30.16,SE,129,7.0,12.0,35,0.00,,---,0.00,VWS V14.00,2013-03-08 19:53:00,
2013-03-08 13:54:00,60.7,32.9,30.16,SE,134,9.0,10.0,35,0.00,,---,0.00,VWS V14.00,2013-03-08 19:54:00,
2013-03-08 13:55:00,60.7,32.9,30.15,SE,127,13.0,15.0,35,0.00,,---,0.00,VWS V14.00,2013-03-08 19:55:00,
2013-03-08 13:56:00,62.7,34.0,30.18,SSE,156,7.0,14.0,34,0.00,,---,0.00,VWS V14.00,2013-03-08 19:56:00,
2013-03-08 13:57:00,60.5,34.1,30.15,SE,133,11.0,11.0,37,0.00,,---,0.00,VWS V14.00,2013-03-08 19:57:00,
2013-03-08 13:58:00,60.5,33.4,30.15,SE,128,10.0,12.0,36,0.00,,---,0.00,VWS V14.00,2013-03-08 19:58:00,
2013-03-08 13:59:00,60.5,33.4,30.15,SE,128,6.0,10.0,36,0.00,,---,0.00,VWS V14.00,2013-03-08 19:59:00,
2013-03-08 14:00:00,60.5,33.4,30.16,SE,137,6.0,12.0,36,0.00,,---,0.00,VWS V14.00,2013-03-08 20:00:00,
2013-03-08 14:01:00,62.1,34.2,30.18,SE,140,13.0,17.0,35,0.00,,---,0.00,VWS V14.00,2013-03-08 20:01:00,
2013-03-08 14:02:00,60.4,33.3,30.15,SE,130,11.0,11.0,36,0.00,,---,0.00,VWS V14.00,2013-03-08 20:02:00,
2013-03-08 14:03:00,60.4,33.3,30.15,SE,132,3.0,12.0,36,0.00,,---,0.00,VWS V14.00,2013-03-08 20:03:00,
2013-03-08 14:04:00,60.4,33.3,30.15,SE,133,7.0,7.0,36,0.00,,---,0.00,VWS V14.00,2013-03-08 20:04:00,
2013-03-08 14:05:00,60.4,33.3,30.15,SE,130,10.0,10.0,36,0.00,,---,0.00,VWS V14.00,2013-03-08 20:05:00,
2013-03-08 14:06:00,61.8,33.9,30.18,SE,134,6.0,11.0,35,0.00,,---,0.00,VWS V14.00,2013-03-08 20:06:00,
2013-03-08 14:07:00,60.4,33.3,30.15,SE,125,10.0,13.0,36,0.00,,---,0.00,VWS V14.00,2013-03-08 20:07:00,
2013-03-08 14:09:00,60.2,33.2,30.15,SE,124,11.0,11.0,36,0.00,,---,0.00,VWS V14.00,2013-03-08 20:09:00,
2013-03-08 14:10:00,60.1,33.1,30.15,SE,127,10.0,12.0,36,0.00,,---,0.00,VWS V14.00,2013-03-08 20:10:00,
2013-03-08 14:11:00,61.6,33.7,30.17,SSE,157,6.0,9.0,35,0.00,,---,0.00,VWS V14.00,2013-03-08 20:11:00,
2013-03-08 14:12:00,60.1,33.1,30.15,SE,126,7.0,11.0,36,0.00,,---,0.00,VWS V14.00,2013-03-08 20:12:00,
2013-03-08 14:13:00,60.1,33.1,30.15,SE,129,11.0,12.0,36,0.00,,---,0.00,VWS V14.00,2013-03-08 20:13:00,
2013-03-08 14:14:00,60.1,33.8,30.15,SE,129,10.0,11.0,37,0.00,,---,0.00,VWS V14.00,2013-03-08 20:14:00,
2013-03-08 14:15:00,59.9,33.6,30.15,SE,128,5.0,11.0,37,0.00,,---,0.00,VWS V14.00,2013-03-08 20:15:00,
2013-03-08 14:16:00,61.2,33.3,30.18,SE,144,6.0,6.0,35,0.00,,---,0.00,VWS V14.00,2013-03-08 20:16:00,
2013-03-08 14:17:00,59.9,33.6,30.15,SE,127,7.0,12.0,37,0.00,,---,0.00,VWS V14.00,2013-03-08 20:17:00,
2013-03-08 14:18:00,59.8,33.5,30.15,SE,127,9.0,11.0,37,0.00,,---,0.00,VWS V14.00,2013-03-08 20:18:00,
2013-03-08 14:19:00,59.8,34.2,30.15,SE,127,6.0,12.0,38,0.00,,---,0.00,VWS V14.00,2013-03-08 20:19:00,
2013-03-08 14:20:00,59.8,33.5,30.15,SE,126,6.0,12.0,37,0.00,,---,0.00,VWS V14.00,2013-03-08 20:20:00,
2013-03-08 14:21:00,61.3,33.4,30.17,SE,133,5.0,11.0,35,0.00,,---,0.00,VWS V14.00,2013-03-08 20:21:00,
2013-03-08 14:22:00,59.8,34.2,30.15,SE,126,8.0,12.0,38,0.00,,---,0.00,VWS V14.00,2013-03-08 20:22:00,
2013-03-08 14:23:00,59.8,33.5,30.15,SE,126,6.0,9.0,37,0.00,,---,0.00,VWS V14.00,2013-03-08 20:23:00,
2013-03-08 14:24:00,59.8,33.5,30.14,SE,126,4.0,6.0,37,0.00,,---,0.00,VWS V14.00,2013-03-08 20:24:00,
2013-03-08 14:25:00,59.9,32.9,30.15,SE,127,7.0,11.0,36,0.00,,---,0.00,VWS V14.00,2013-03-08 20:25:00,
2013-03-08 14:26:00,61.3,33.4,30.17,SE,135,5.0,5.0,35,0.00,,---,0.00,VWS V14.00,2013-03-08 20:26:00,
2013-03-08 14:27:00,59.9,33.6,30.14,SE,127,4.0,6.0,37,0.00,,---,0.00,VWS V14.00,2013-03-08 20:27:00,
2013-03-08 14:28:00,60.1,33.1,30.14,SSE,153,7.0,15.0,36,0.00,,---,0.00,VWS V14.00,2013-03-08 20:28:00,
2013-03-08 14:29:00,60.1,33.1,30.14,ESE,114,6.0,12.0,36,0.00,,---,0.00,VWS V14.00,2013-03-08 20:29:00,
2013-03-08 14:30:00,59.9,34.2,30.14,SE,137,9.0,11.0,38,0.00,,---,0.00,VWS V14.00,2013-03-08 20:30:00,
2013-03-08 14:31:00,61.2,33.3,30.17,SE,140,3.0,5.0,35,0.00,,---,0.00,VWS V14.00,2013-03-08 20:31:00,
2013-03-08 14:32:00,59.9,33.6,30.15,SE,135,7.0,11.0,37,0.00,,---,0.00,VWS V14.00,2013-03-08 20:32:00,
2013-03-08 14:33:00,59.8,34.2,30.15,SE,135,8.0,10.0,38,0.00,,---,0.00,VWS V14.00,2013-03-08 20:33:00,
2013-03-08 14:34:00,59.8,33.5,30.14,SE,136,5.0,8.0,37,0.00,,---,0.00,VWS V14.00,2013-03-08 20:34:00,
2013-03-08 14:35:00,59.9,33.6,30.15,SE,133,9.0,15.0,37,0.00,,---,0.00,VWS V14.00,2013-03-08 20:35:00,
2013-03-08 14:36:00,61.0,33.2,30.17,SE,142,6.0,7.0,35,0.00,,---,0.00,VWS V14.00,2013-03-08 20:36:00,
2013-03-08 14:37:00,59.9,33.6,30.15,SE,132,3.0,7.0,37,0.00,,---,0.00,VWS V14.00,2013-03-08 20:37:00,
2013-03-08 14:38:00,60.1,33.1,30.15,SE,146,9.0,13.0,36,0.00,,---,0.00,VWS V14.00,2013-03-08 20:38:00,
2013-03-08 14:39:00,60.1,33.1,30.15,SE,131,10.0,14.0,36,0.00,,---,0.00,VWS V14.00,2013-03-08 20:39:00,
2013-03-08 14:40:00,60.1,33.1,30.15,SE,137,7.0,11.0,36,0.00,,---,0.00,VWS V14.00,2013-03-08 20:40:00,
2013-03-08 14:41:00,61.0,33.2,30.16,SE,142,5.0,8.0,35,0.00,,---,0.00,VWS V14.00,2013-03-08 20:41:00,
2013-03-08 14:42:00,60.1,33.1,30.15,SE,140,5.0,13.0,36,0.00,,---,0.00,VWS V14.00,2013-03-08 20:42:00,
2013-03-08 14:43:00,60.1,33.8,30.15,SE,140,6.0,10.0,37,0.00,,---,0.00,VWS V14.00,2013-03-08 20:43:00,
2013-03-08 14:44:00,60.1,33.8,30.15,SE,140,6.0,10.0,37,0.00,,---,0.00,VWS V14.00,2013-03-08 20:44:00,
2013-03-08 14:45:00,60.1,33.1,30.15,SE,138,4.0,11.0,36,0.00,,---,0.00,VWS V14.00,2013-03-08 20:45:00,
2013-03-08 14:46:00,61.0,33.2,30.16,SE,140,9.0,10.0,35,0.00,,---,0.00,VWS V14.00,2013-03-08 20:46:00,
2013-03-08 14:47:00,60.1,33.1,30.15,SE,136,8.0,12.0,36,0.00,,---,0.00,VWS V14.00,2013-03-08 20:47:00,
2013-03-08 14:48:00,60.1,33.1,30.15,SE,134,7.0,12.0,36,0.00,,---,0.00,VWS V14.00,2013-03-08 20:48:00,
2013-03-08 14:49:00,60.1,33.1,30.15,SE,135,5.0,11.0,36,0.00,,---,0.00,VWS V14.00,2013-03-08 20:49:00,
2013-03-08 14:50:00,60.1,33.1,30.15,SE,134,3.0,10.0,36,0.00,,---,0.00,VWS V14.00,2013-03-08 20:50:00,
2013-03-08 14:51:00,60.9,33.1,30.16,ESE,123,4.0,11.0,35,0.00,,---,0.00,VWS V14.00,2013-03-08 20:51:00,
2013-03-08 14:52:00,60.1,33.1,30.15,SE,136,11.0,11.0,36,0.00,,---,0.00,VWS V14.00,2013-03-08 20:52:00,
2013-03-08 14:53:00,60.1,33.1,30.15,SE,132,5.0,12.0,36,0.00,,---,0.00,VWS V14.00,2013-03-08 20:53:00,
2013-03-08 14:54:00,60.1,33.1,30.15,SSE,154,9.0,14.0,36,0.00,,---,0.00,VWS V14.00,2013-03-08 20:54:00,
2013-03-08 14:55:00,60.1,33.1,30.15,SSE,158,10.0,12.0,36,0.00,,---,0.00,VWS V14.00,2013-03-08 20:55:00,
2013-03-08 14:56:00,60.7,32.9,30.15,SE,127,10.0,13.0,35,0.00,,---,0.00,VWS V14.00,2013-03-08 20:56:00,
2013-03-08 14:57:00,60.2,33.2,30.15,SSE,148,5.0,9.0,36,0.00,,---,0.00,VWS V14.00,2013-03-08 20:57:00,
2013-03-08 14:58:00,60.1,33.1,30.15,SE,145,9.0,9.0,36,0.00,,---,0.00,VWS V14.00,2013-03-08 20:58:00,
2013-03-08 14:59:00,60.1,32.4,30.15,SE,138,9.0,11.0,35,0.00,,---,0.00,VWS V14.00,2013-03-08 20:59:00,
2013-03-08 15:00:00,60.1,33.8,30.15,SE,138,5.0,10.0,37,0.00,,---,0.00,VWS V14.00,2013-03-08 21:00:00,
2013-03-08 15:01:00,60.5,33.4,30.16,SE,136,6.0,10.0,36,0.00,,---,0.00,VWS V14.00,2013-03-08 21:01:00,
2013-03-08 15:02:00,59.9,33.6,30.14,SE,128,5.0,8.0,37,0.00,,---,0.00,VWS V14.00,2013-03-08 21:02:00,
2013-03-08 15:03:00,59.6,33.3,30.14,SE,125,5.0,10.0,37,0.00,,---,0.00,VWS V14.00,2013-03-08 21:03:00,
2013-03-08 15:04:00,59.6,33.3,30.14,ESE,123,8.0,11.0,37,0.00,,---,0.00,VWS V14.00,2013-03-08 21:04:00,
2013-03-08 15:05:00,59.6,32.6,30.14,ESE,122,8.0,10.0,36,0.00,,---,0.00,VWS V14.00,2013-03-08 21:05:00,
2013-03-08 15:06:00,60.4,33.3,30.15,SE,128,10.0,11.0,36,0.00,,---,0.00,VWS V14.00,2013-03-08 21:06:00,
2013-03-08 15:07:00,59.6,33.3,30.14,ESE,122,6.0,10.0,37,0.00,,---,0.00,VWS V14.00,2013-03-08 21:07:00,
2013-03-08 15:08:00,59.6,33.3,30.14,ESE,122,4.0,6.0,37,0.00,,---,0.00,VWS V14.00,2013-03-08 21:08:00,
2013-03-08 15:09:00,59.6,33.3,30.14,ESE,122,5.0,6.0,37,0.00,,---,0.00,VWS V14.00,2013-03-08 21:09:00,
2013-03-08 15:10:00,59.6,33.3,30.14,ESE,122,6.0,7.0,37,0.00,,---,0.00,VWS V14.00,2013-03-08 21:10:00,
2013-03-08 15:11:00,60.1,33.1,30.15,SE,127,11.0,12.0,36,0.00,,---,0.00,VWS V14.00,2013-03-08 21:11:00,
2013-03-08 15:12:00,59.6,33.3,30.14,ESE,122,1.0,5.0,37,0.00,,---,0.00,VWS V14.00,2013-03-08 21:12:00,
2013-03-08 15:13:00,59.6,33.3,30.14,ESE,122,2.0,4.0,37,0.00,,---,0.00,VWS V14.00,2013-03-08 21:13:00,
2013-03-08 15:14:00,59.6,32.6,30.14,ESE,122,5.0,7.0,36,0.00,,---,0.00,VWS V14.00,2013-03-08 21:14:00,
2013-03-08 15:15:00,59.6,33.3,30.14,ESE,122,3.0,5.0,37,0.00,,---,0.00,VWS V14.00,2013-03-08 21:15:00,
2013-03-08 15:16:00,59.9,33.6,30.15,SE,128,3.0,6.0,37,0.00,,---,0.00,VWS V14.00,2013-03-08 21:16:00,
2013-03-08 15:17:00,59.6,33.3,30.14,ESE,122,3.0,5.0,37,0.00,,---,0.00,VWS V14.00,2013-03-08 21:17:00,
2013-03-08 15:18:00,59.8,33.5,30.14,ESE,122,3.0,4.0,37,0.00,,---,0.00,VWS V14.00,2013-03-08 21:18:00,
2013-03-08 15:19:00,59.6,33.3,30.14,ESE,122,3.0,5.0,37,0.00,,---,0.00,VWS V14.00,2013-03-08 21:19:00,
2013-03-08 15:20:00,59.6,33.3,30.14,ESE,122,4.0,4.0,37,0.00,,---,0.00,VWS V14.00,2013-03-08 21:20:00,
2013-03-08 15:21:00,59.8,33.5,30.15,SE,127,4.0,6.0,37,0.00,,---,0.00,VWS V14.00,2013-03-08 21:21:00,
2013-03-08 15:22:00,59.6,33.3,30.14,ESE,122,2.0,7.0,37,0.00,,---,0.00,VWS V14.00,2013-03-08 21:22:00,
2013-03-08 15:23:00,59.6,32.6,30.14,ESE,123,5.0,10.0,36,0.00,,---,0.00,VWS V14.00,2013-03-08 21:23:00,
2013-03-08 15:24:00,59.6,32.6,30.14,ESE,123,5.0,11.0,36,0.00,,---,0.00,VWS V14.00,2013-03-08 21:24:00,
2013-03-08 15:25:00,59.8,32.1,30.14,ESE,123,6.0,8.0,35,0.00,,---,0.00,VWS V14.00,2013-03-08 21:25:00,
2013-03-08 15:26:00,59.9,32.9,30.14,SE,127,6.0,7.0,36,0.00,,---,0.00,VWS V14.00,2013-03-08 21:26:00,
2013-03-08 15:27:00,59.9,32.2,30.14,SE,131,5.0,9.0,35,0.00,,---,0.00,VWS V14.00,2013-03-08 21:27:00,
2013-03-08 15:28:00,59.9,32.2,30.14,SE,131,5.0,9.0,35,0.00,,---,0.00,VWS V14.00,2013-03-08 21:28:00,
2013-03-08 15:29:00,59.9,32.2,30.14,SE,136,14.0,15.0,35,0.00,,---,0.00,VWS V14.00,2013-03-08 21:29:00,
2013-03-08 15:30:00,60.1,32.4,30.13,ESE,123,8.0,14.0,35,0.00,,---,0.00,VWS V14.00,2013-03-08 21:30:00,
2013-03-08 15:31:00,59.9,34.2,30.14,SE,141,7.0,13.0,38,0.00,,---,0.00,VWS V14.00,2013-03-08 21:31:00,
2013-03-08 15:32:00,59.9,32.2,30.13,SE,124,7.0,10.0,35,0.00,,---,0.00,VWS V14.00,2013-03-08 21:32:00,
2013-03-08 15:33:00,59.9,32.2,30.13,SE,124,6.0,12.0,35,0.00,,---,0.00,VWS V14.00,2013-03-08 21:33:00,
2013-03-08 15:34:00,59.9,32.9,30.13,SE,124,6.0,7.0,36,0.00,,---,0.00,VWS V14.00,2013-03-08 21:34:00,
2013-03-08 15:35:00,59.8,32.8,30.13,ESE,123,11.0,11.0,36,0.00,,---,0.00,VWS V14.00,2013-03-08 21:35:00,
2013-03-08 15:36:00,59.9,33.6,30.15,SE,132,8.0,11.0,37,0.00,,---,0.00,VWS V14.00,2013-03-08 21:36:00,
2013-03-08 15:37:00,59.8,31.4,30.13,ESE,116,7.0,14.0,34,0.00,,---,0.00,VWS V14.00,2013-03-08 21:37:00,
2013-03-08 15:38:00,59.8,32.1,30.13,ESE,116,8.0,9.0,35,0.00,,---,0.00,VWS V14.00,2013-03-08 21:38:00,
2013-03-08 15:39:00,59.8,32.1,30.13,ESE,115,3.0,10.0,35,0.00,,---,0.00,VWS V14.00,2013-03-08 21:39:00,
2013-03-08 15:40:00,59.6,32.6,30.13,ESE,115,7.0,10.0,36,0.00,,---,0.00,VWS V14.00,2013-03-08 21:40:00,
2013-03-08 15:41:00,60.1,33.1,30.15,SE,144,14.0,14.0,36,0.00,,---,0.00,VWS V14.00,2013-03-08 21:41:00,
2013-03-08 15:42:00,59.8,32.1,30.13,SE,138,11.0,11.0,35,0.00,,---,0.00,VWS V14.00,2013-03-08 21:42:00,
2013-03-08 15:43:00,59.8,32.1,30.13,SE,127,13.0,13.0,35,0.00,,---,0.00,VWS V14.00,2013-03-08 21:43:00,
2013-03-08 15:44:00,59.8,32.1,30.13,ESE,112,9.0,13.0,35,0.00,,---,0.00,VWS V14.00,2013-03-08 21:44:00,
2013-03-08 15:45:00,59.8,31.4,30.13,ESE,110,14.0,15.0,34,0.00,,---,0.00,VWS V14.00,2013-03-08 21:45:00,
2013-03-08 15:46:00,59.9,33.6,30.15,SE,138,5.0,5.0,37,0.00,,---,0.00,VWS V14.00,2013-03-08 21:46:00,
2013-03-08 15:47:00,59.8,31.4,30.12,ESE,113,10.0,13.0,34,0.00,,---,0.00,VWS V14.00,2013-03-08 21:47:00,
2013-03-08 15:48:00,59.8,32.1,30.12,ESE,113,14.0,15.0,35,0.00,,---,0.00,VWS V14.00,2013-03-08 21:48:00,
2013-03-08 15:49:00,59.8,31.4,30.12,ESE,103,10.0,14.0,34,0.00,,---,0.00,VWS V14.00,2013-03-08 21:49:00,
2013-03-08 15:50:00,59.8,32.1,30.12,ESE,114,11.0,16.0,35,0.00,,---,0.00,VWS V14.00,2013-03-08 21:50:00,
2013-03-08 15:51:00,60.1,33.1,30.15,SE,134,3.0,3.0,36,0.00,,---,0.00,VWS V14.00,2013-03-08 21:51:00,
2013-03-08 15:52:00,59.8,32.1,30.12,SE,128,10.0,17.0,35,0.00,,---,0.00,VWS V14.00,2013-03-08 21:52:00,
2013-03-08 15:53:00,59.8,32.1,30.12,SE,138,12.0,13.0,35,0.00,,---,0.00,VWS V14.00,2013-03-08 21:53:00,
2013-03-08 15:54:00,59.8,31.4,30.12,SE,129,13.0,13.0,34,0.00,,---,0.00,VWS V14.00,2013-03-08 21:54:00,
2013-03-08 15:55:00,59.8,31.4,30.12,ESE,122,11.0,15.0,34,0.00,,---,0.00,VWS V14.00,2013-03-08 21:55:00,
2013-03-08 15:56:00,60.1,33.1,30.15,SE,139,10.0,14.0,36,0.00,,---,0.00,VWS V14.00,2013-03-08 21:56:00,
2013-03-08 15:57:00,59.9,31.5,30.12,SE,129,12.0,12.0,34,0.00,,---,0.00,VWS V14.00,2013-03-08 21:57:00,
2013-03-08 15:58:00,59.8,31.4,30.12,SE,129,7.0,12.0,34,0.00,,---,0.00,VWS V14.00,2013-03-08 21:58:00,
2013-03-08 15:59:00,59.8,32.8,30.12,ESE,116,10.0,13.0,36,0.00,,---,0.00,VWS V14.00,2013-03-08 21:59:00,
2013-03-08 16:00:00,59.6,32.6,30.12,SE,124,7.0,13.0,36,0.00,,---,0.00,VWS V14.00,2013-03-08 22:00:00,
2013-03-08 16:01:00,59.9,33.6,30.15,SE,130,12.0,12.0,37,0.00,,---,0.00,VWS V14.00,2013-03-08 22:01:00,
2013-03-08 16:02:00,59.6,31.2,30.12,SE,132,9.0,14.0,34,0.00,,---,0.00,VWS V14.00,2013-03-08 22:02:00,
2013-03-08 16:03:00,59.6,31.9,30.12,SE,124,10.0,14.0,35,0.00,,---,0.00,VWS V14.00,2013-03-08 22:03:00,
2013-03-08 16:04:00,59.8,31.4,30.12,SE,132,10.0,13.0,34,0.00,,---,0.00,VWS V14.00,2013-03-08 22:04:00,
2013-03-08 16:05:00,59.8,32.1,30.12,SE,132,10.0,10.0,35,0.00,,---,0.00,VWS V14.00,2013-03-08 22:05:00,
2013-03-08 16:06:00,59.6,33.3,30.14,ESE,122,7.0,8.0,37,0.00,,---,0.00,VWS V14.00,2013-03-08 22:06:00,
2013-03-08 16:07:00,59.6,31.9,30.12,SE,130,10.0,12.0,35,0.00,,---,0.00,VWS V14.00,2013-03-08 22:07:00,
2013-03-08 16:08:00,59.5,31.9,30.12,SE,130,9.0,10.0,35,0.00,,---,0.00,VWS V14.00,2013-03-08 22:08:00,
2013-03-08 16:09:00,59.5,31.9,30.12,SE,130,3.0,10.0,35,0.00,,---,0.00,VWS V14.00,2013-03-08 22:09:00,
2013-03-08 16:10:00,59.5,31.9,30.12,SE,130,6.0,6.0,35,0.00,,---,0.00,VWS V14.00,2013-03-08 22:10:00,
2013-03-08 16:11:00,59.6,32.6,30.14,ESE,122,3.0,6.0,36,0.00,,---,0.00,VWS V14.00,2013-03-08 22:11:00,
2013-03-08 16:12:00,59.5,31.9,30.12,SE,130,4.0,9.0,35,0.00,,---,0.00,VWS V14.00,2013-03-08 22:12:00,
2013-03-08 16:13:00,59.6,31.9,30.12,SE,145,4.0,9.0,35,0.00,,---,0.00,VWS V14.00,2013-03-08 22:13:00,
2013-03-08 16:14:00,59.6,31.9,30.13,SSE,147,7.0,10.0,35,0.00,,---,0.00,VWS V14.00,2013-03-08 22:14:00,
2013-03-08 16:15:00,59.6,31.2,30.13,SE,144,4.0,10.0,34,0.00,,---,0.00,VWS V14.00,2013-03-08 22:15:00,
2013-03-08 16:16:00,59.6,32.6,30.14,ESE,122,1.0,4.0,36,0.00,,---,0.00,VWS V14.00,2013-03-08 22:16:00,
2013-03-08 16:17:00,59.8,32.1,30.13,SE,146,6.0,12.0,35,0.00,,---,0.00,VWS V14.00,2013-03-08 22:17:00,
2013-03-08 16:18:00,59.8,32.1,30.13,SE,146,6.0,7.0,35,0.00,,---,0.00,VWS V14.00,2013-03-08 22:18:00,
2013-03-08 16:19:00,59.6,31.9,30.14,SE,146,7.0,12.0,35,0.00,,---,0.00,VWS V14.00,2013-03-08 22:19:00,
2013-03-08 16:20:00,59.6,31.9,30.14,SSE,150,3.0,9.0,35,0.00,,---,0.00,VWS V14.00,2013-03-08 22:20:00,
2013-03-08 16:21:00,59.6,33.3,30.14,ESE,122,3.0,6.0,37,0.00,,---,0.00,VWS V14.00,2013-03-08 22:21:00,
2013-03-08 16:22:00,59.6,31.9,30.14,SSE,149,3.0,8.0,35,0.00,,---,0.00,VWS V14.00,2013-03-08 22:22:00,
2013-03-08 16:23:00,59.6,31.9,30.14,SSE,149,6.0,6.0,35,0.00,,---,0.00,VWS V14.00,2013-03-08 22:23:00,
2013-03-08 16:24:00,59.6,31.9,30.13,SSE,147,12.0,13.0,35,0.00,,---,0.00,VWS V14.00,2013-03-08 22:24:00,
2013-03-08 16:25:00,59.6,31.9,30.13,SE,139,5.0,12.0,35,0.00,,---,0.00,VWS V14.00,2013-03-08 22:25:00,
2013-03-08 16:26:00,59.8,32.1,30.14,ESE,123,8.0,8.0,35,0.00,,---,0.00,VWS V14.00,2013-03-08 22:26:00,
2013-03-08 16:27:00,59.6,31.9,30.13,SE,141,3.0,11.0,35,0.00,,---,0.00,VWS V14.00,2013-03-08 22:27:00,
2013-03-08 16:28:00,59.6,31.9,30.13,SE,141,4.0,8.0,35,0.00,,---,0.00,VWS V14.00,2013-03-08 22:28:00,
2013-03-08 16:29:00,59.6,31.9,30.13,SE,141,4.0,6.0,35,0.00,,---,0.00,VWS V14.00,2013-03-08 22:29:00,
2013-03-08 16:30:00,59.6,31.9,30.13,SE,139,5.0,11.0,35,0.00,,---,0.00,VWS V14.00,2013-03-08 22:30:00,
2013-03-08 16:31:00,59.9,32.2,30.13,ESE,123,6.0,8.0,35,0.00,,---,0.00,VWS V14.00,2013-03-08 22:31:00,
2013-03-08 16:32:00,59.5,31.9,30.14,SSE,168,7.0,10.0,35,0.00,,---,0.00,VWS V14.00,2013-03-08 22:32:00,
2013-03-08 16:33:00,59.5,31.9,30.14,SSE,148,9.0,13.0,35,0.00,,---,0.00,VWS V14.00,2013-03-08 22:33:00,
2013-03-08 16:34:00,59.5,32.5,30.14,SSE,148,6.0,9.0,36,0.00,,---,0.00,VWS V14.00,2013-03-08 22:34:00,
2013-03-08 16:35:00,59.3,33.0,30.13,SSE,158,9.0,9.0,37,0.00,,---,0.00,VWS V14.00,2013-03-08 22:35:00,
2013-03-08 16:36:00,59.8,32.8,30.13,ESE,122,9.0,11.0,36,0.00,,---,0.00,VWS V14.00,2013-03-08 22:36:00,
2013-03-08 16:37:00,59.2,31.6,30.14,SE,130,4.0,13.0,35,0.00,,---,0.00,VWS V14.00,2013-03-08 22:37:00,
2013-03-08 16:38:00,59.2,32.3,30.13,SE,124,6.0,8.0,36,0.00,,---,0.00,VWS V14.00,2013-03-08 22:38:00,
2013-03-08 16:39:00,59.2,31.6,30.13,ESE,123,8.0,10.0,35,0.00,,---,0.00,VWS V14.00,2013-03-08 22:39:00,
2013-03-08 16:40:00,59.2,32.3,30.14,ESE,123,5.0,10.0,36,0.00,,---,0.00,VWS V14.00,2013-03-08 22:40:00,
2013-03-08 16:41:00,59.6,31.9,30.13,ESE,114,5.0,9.0,35,0.00,,---,0.00,VWS V14.00,2013-03-08 22:41:00,
2013-03-08 16:42:00,59.2,32.3,30.14,ESE,123,4.0,5.0,36,0.00,,---,0.00,VWS V14.00,2013-03-08 22:42:00,
2013-03-08 16:43:00,59.2,32.3,30.14,ESE,119,13.0,13.0,36,0.00,,---,0.00,VWS V14.00,2013-03-08 22:43:00,
2013-03-08 16:44:00,59.0,32.1,30.14,ESE,117,6.0,14.0,36,0.00,,---,0.00,VWS V14.00,2013-03-08 22:44:00,
2013-03-08 16:45:00,59.0,32.1,30.14,ESE,123,3.0,11.0,36,0.00,,---,0.00,VWS V14.00,2013-03-08 22:45:00,
2013-03-08 16:46:00,59.8,31.4,30.13,ESE,123,11.0,14.0,34,0.00,,---,0.00,VWS V14.00,2013-03-08 22:46:00,
2013-03-08 16:47:00,58.9,32.7,30.14,ESE,121,11.0,13.0,37,0.00,,---,0.00,VWS V14.00,2013-03-08 22:47:00,
2013-03-08 16:48:00,58.7,32.5,30.14,ESE,123,9.0,13.0,37,0.00,,---,0.00,VWS V14.00,2013-03-08 22:48:00,
2013-03-08 16:50:00,58.6,32.4,30.13,SE,128,6.0,13.0,37,0.00,,---,0.00,VWS V14.00,2013-03-08 22:50:00,
2013-03-08 16:51:00,59.6,31.9,30.12,ESE,121,12.0,13.0,35,0.00,,---,0.00,VWS V14.00,2013-03-08 22:51:00,
2013-03-08 16:53:00,58.4,32.9,30.13,SE,144,6.0,14.0,38,0.00,,---,0.00,VWS V14.00,2013-03-08 22:53:00,
2013-03-08 16:54:00,58.6,32.4,30.13,SE,128,6.0,10.0,37,0.00,,---,0.00,VWS V14.00,2013-03-08 22:54:00,
2013-03-08 16:55:00,58.6,32.4,30.13,SE,128,6.0,7.0,37,0.00,,---,0.00,VWS V14.00,2013-03-08 22:55:00,
2013-03-08 16:56:00,59.9,31.5,30.12,SE,138,8.0,13.0,34,0.00,,---,0.00,VWS V14.00,2013-03-08 22:56:00,
2013-03-08 16:57:00,58.6,33.1,30.12,ESE,114,9.0,12.0,38,0.00,,---,0.00,VWS V14.00,2013-03-08 22:57:00,
2013-03-08 16:58:00,58.6,33.1,30.12,ESE,115,10.0,10.0,38,0.00,,---,0.00,VWS V14.00,2013-03-08 22:58:00,
2013-03-08 16:59:00,58.4,32.9,30.12,ESE,115,7.0,11.0,38,0.00,,---,0.00,VWS V14.00,2013-03-08 22:59:00,
2013-03-08 17:00:00,58.4,32.9,30.13,ESE,115,5.0,7.0,38,0.00,,---,0.00,VWS V14.00,2013-03-08 23:00:00,
2013-03-08 17:01:00,59.5,32.5,30.12,SE,138,9.0,14.0,36,0.00,,---,0.00,VWS V14.00,2013-03-08 23:01:00,
2013-03-08 17:02:00,58.4,32.9,30.13,ESE,115,2.0,5.0,38,0.00,,---,0.00,VWS V14.00,2013-03-08 23:02:00,
2013-03-08 17:03:00,58.4,32.9,30.13,ESE,117,7.0,10.0,38,0.00,,---,0.00,VWS V14.00,2013-03-08 23:03:00,
2013-03-08 17:04:00,58.4,32.9,30.13,ESE,118,4.0,10.0,38,0.00,,---,0.00,VWS V14.00,2013-03-08 23:04:00,
2013-03-08 17:05:00,58.4,32.9,30.13,ESE,118,5.0,6.0,38,0.00,,---,0.00,VWS V14.00,2013-03-08 23:05:00,
2013-03-08 17:06:00,59.8,32.1,30.12,SE,132,6.0,10.0,35,0.00,,---,0.00,VWS V14.00,2013-03-08 23:06:00,
2013-03-08 17:07:00,58.3,32.8,30.13,SE,129,9.0,13.0,38,0.00,,---,0.00,VWS V14.00,2013-03-08 23:07:00,
2013-03-08 17:08:00,58.3,32.8,30.13,SE,127,5.0,10.0,38,0.00,,---,0.00,VWS V14.00,2013-03-08 23:08:00,
2013-03-08 17:09:00,58.3,32.8,30.14,SE,130,7.0,7.0,38,0.00,,---,0.00,VWS V14.00,2013-03-08 23:09:00,
2013-03-08 17:10:00,58.3,32.8,30.14,ESE,123,11.0,12.0,38,0.00,,---,0.00,VWS V14.00,2013-03-08 23:10:00,
2013-03-08 17:11:00,59.5,31.9,30.12,SE,130,5.0,7.0,35,0.00,,---,0.00,VWS V14.00,2013-03-08 23:11:00,
2013-03-08 17:12:00,58.1,32.7,30.13,SE,133,7.0,10.0,38,0.00,,---,0.00,VWS V14.00,2013-03-08 23:12:00,
2013-03-08 17:13:00,58.1,32.7,30.13,SE,130,6.0,10.0,38,0.00,,---,0.00,VWS V14.00,2013-03-08 23:13:00,
2013-03-08 17:14:00,58.0,33.2,30.13,SE,130,6.0,10.0,39,0.00,,---,0.00,VWS V14.00,2013-03-08 23:14:00,
2013-03-08 17:15:00,58.0,33.2,30.13,SE,130,11.0,11.0,39,0.00,,---,0.00,VWS V14.00,2013-03-08 23:15:00,
2013-03-08 17:16:00,59.8,32.1,30.13,SE,144,6.0,6.0,35,0.00,,---,0.00,VWS V14.00,2013-03-08 23:16:00,
2013-03-08 17:17:00,57.8,32.4,30.13,SE,132,10.0,14.0,38,0.00,,---,0.00,VWS V14.00,2013-03-08 23:17:00,
2013-03-08 17:18:00,58.0,33.2,30.13,SE,132,8.0,11.0,39,0.00,,---,0.00,VWS V14.00,2013-03-08 23:18:00,
2013-03-08 17:19:00,58.0,33.2,30.13,SE,136,6.0,14.0,39,0.00,,---,0.00,VWS V14.00,2013-03-08 23:19:00,
2013-03-08 17:20:00,58.0,32.6,30.14,SE,137,12.0,13.0,38,0.00,,---,0.00,VWS V14.00,2013-03-08 23:20:00,
2013-03-08 17:21:00,59.6,31.9,30.14,SSE,150,3.0,4.0,35,0.00,,---,0.00,VWS V14.00,2013-03-08 23:21:00,
2013-03-08 17:22:00,58.1,32.7,30.14,SE,136,9.0,11.0,38,0.00,,---,0.00,VWS V14.00,2013-03-08 23:22:00,
2013-03-08 17:23:00,58.1,33.3,30.14,SE,134,11.0,12.0,39,0.00,,---,0.00,VWS V14.00,2013-03-08 23:23:00,
2013-03-08 17:24:00,58.0,33.2,30.14,SE,134,8.0,11.0,39,0.00,,---,0.00,VWS V14.00,2013-03-08 23:24:00,
2013-03-08 17:25:00,58.0,32.6,30.14,SE,132,9.0,13.0,38,0.00,,---,0.00,VWS V14.00,2013-03-08 23:25:00,
2013-03-08 17:26:00,59.6,31.9,30.13,SE,138,7.0,7.0,35,0.00,,---,0.00,VWS V14.00,2013-03-08 23:26:00,
2013-03-08 17:27:00,58.0,32.6,30.14,SE,132,10.0,10.0,38,0.00,,---,0.00,VWS V14.00,2013-03-08 23:27:00,
2013-03-08 17:28:00,58.0,32.6,30.14,SE,130,7.0,13.0,38,0.00,,---,0.00,VWS V14.00,2013-03-08 23:28:00,
2013-03-08 17:29:00,58.0,32.6,30.14,SE,130,7.0,7.0,38,0.00,,---,0.00,VWS V14.00,2013-03-08 23:29:00,
2013-03-08 17:30:00,58.0,32.6,30.14,SE,130,4.0,9.0,38,0.00,,---,0.00,VWS V14.00,2013-03-08 23:30:00,
2013-03-08 17:31:00,59.6,31.9,30.13,SE,139,8.0,8.0,35,0.00,,---,0.00,VWS V14.00,2013-03-08 23:31:00,
2013-03-08 17:32:00,57.8,33.0,30.14,SE,130,3.0,8.0,39,0.00,,---,0.00,VWS V14.00,2013-03-08 23:32:00,
2013-03-08 17:33:00,57.8,33.0,30.14,SE,131,4.0,6.0,39,0.00,,---,0.00,VWS V14.00,2013-03-08 23:33:00,
2013-03-08 17:34:00,57.6,32.8,30.14,SE,131,5.0,5.0,39,0.00,,---,0.00,VWS V14.00,2013-03-08 23:34:00,
2013-03-08 17:35:00,57.6,32.8,30.14,SE,130,5.0,10.0,39,0.00,,---,0.00,VWS V14.00,2013-03-08 23:35:00,
2013-03-08 17:36:00,59.2,33.0,30.14,ESE,119,10.0,12.0,37,0.00,,---,0.00,VWS V14.00,2013-03-08 23:36:00,
2013-03-08 17:37:00,57.6,32.8,30.14,SE,131,11.0,12.0,39,0.00,,---,0.00,VWS V14.00,2013-03-08 23:37:00,
2013-03-08 17:38:00,57.6,32.2,30.14,SE,130,12.0,12.0,38,0.00,,---,0.00,VWS V14.00,2013-03-08 23:38:00,
2013-03-08 17:39:00,57.8,33.0,30.14,SE,129,12.0,12.0,39,0.00,,---,0.00,VWS V14.00,2013-03-08 23:39:00,
2013-03-08 17:40:00,57.8,32.4,30.14,SE,130,9.0,12.0,38,0.00,,---,0.00,VWS V14.00,2013-03-08 23:40:00,
2013-03-08 17:41:00,59.2,32.3,30.14,ESE,123,9.0,10.0,36,0.00,,---,0.00,VWS V14.00,2013-03-08 23:41:00,
2013-03-08 17:42:00,57.6,33.5,30.14,SE,130,6.0,9.0,40,0.00,,---,0.00,VWS V14.00,2013-03-08 23:42:00,
2013-03-08 17:43:00,57.6,33.5,30.14,SE,129,5.0,12.0,40,0.00,,---,0.00,VWS V14.00,2013-03-08 23:43:00,
2013-03-08 17:44:00,57.5,33.4,30.14,SE,128,9.0,10.0,40,0.00,,---,0.00,VWS V14.00,2013-03-08 23:44:00,
2013-03-08 17:45:00,57.5,33.4,30.14,SE,128,11.0,11.0,40,0.00,,---,0.00,VWS V14.00,2013-03-08 23:45:00,
2013-03-08 17:46:00,58.9,32.7,30.14,ESE,121,13.0,13.0,37,0.00,,---,0.00,VWS V14.00,2013-03-08 23:46:00,
2013-03-08 17:47:00,57.5,32.8,30.14,SE,137,9.0,15.0,39,0.00,,---,0.00,VWS V14.00,2013-03-08 23:47:00,
2013-03-08 17:48:00,57.5,33.4,30.14,SE,139,12.0,12.0,40,0.00,,---,0.00,VWS V14.00,2013-03-08 23:48:00,
2013-03-08 17:49:00,57.5,32.8,30.14,SE,128,14.0,16.0,39,0.00,,---,0.00,VWS V14.00,2013-03-08 23:49:00,
2013-03-08 17:50:00,57.6,33.5,30.14,SE,128,11.0,14.0,40,0.00,,---,0.00,VWS V14.00,2013-03-08 23:50:00,
2013-03-08 17:51:00,58.6,32.4,30.14,ESE,123,9.0,11.0,37,0.00,,---,0.00,VWS V14.00,2013-03-08 23:51:00,
2013-03-08 17:52:00,57.6,32.8,30.14,SE,129,10.0,12.0,39,0.00,,---,0.00,VWS V14.00,2013-03-08 23:52:00,
2013-03-08 17:53:00,57.6,32.8,30.14,SE,128,6.0,10.0,39,0.00,,---,0.00,VWS V14.00,2013-03-08 23:53:00,
2013-03-08 17:54:00,57.6,33.5,30.14,SE,128,10.0,12.0,40,0.00,,---,0.00,VWS V14.00,2013-03-08 23:54:00,
2013-03-08 17:55:00,57.6,32.8,30.14,SE,128,11.0,11.0,39,0.00,,---,0.00,VWS V14.00,2013-03-08 23:55:00,
2013-03-08 17:56:00,58.6,32.4,30.13,SE,128,5.0,7.0,37,0.00,,---,0.00,VWS V14.00,2013-03-08 23:56:00,
2013-03-08 17:57:00,57.5,33.4,30.14,SE,129,12.0,13.0,40,0.00,,---,0.00,VWS V14.00,2013-03-08 23:57:00,
2013-03-08 17:58:00,57.5,33.4,30.14,SE,129,7.0,13.0,40,0.00,,---,0.00,VWS V14.00,2013-03-08 23:58:00,
2013-03-08 17:59:00,57.5,33.4,30.14,SE,130,6.0,10.0,40,0.00,,---,0.00,VWS V14.00,2013-03-08 23:59:00,
2013-03-08 18:00:00,57.5,33.4,30.14,SE,130,5.0,11.0,40,0.00,,---,0.00,VWS V14.00,2013-03-09 00:00:00,
2013-03-08 18:01:00,58.4,32.9,30.13,ESE,115,4.0,6.0,38,0.00,,---,0.00,VWS V14.00,2013-03-09 00:01:00,
2013-03-08 18:02:00,57.2,34.3,30.13,ESE,121,10.0,10.0,42,0.00,,---,0.00,VWS V14.00,2013-03-09 00:02:00,
2013-03-08 18:03:00,57.2,33.1,30.13,ESE,118,10.0,12.0,40,0.00,,---,0.00,VWS V14.00,2013-03-09 00:03:00,
2013-03-08 18:04:00,57.2,33.1,30.13,ESE,118,6.0,10.0,40,0.00,,---,0.00,VWS V14.00,2013-03-09 00:04:00,
2013-03-08 18:05:00,57.2,33.1,30.13,ESE,115,9.0,11.0,40,0.00,,---,0.00,VWS V14.00,2013-03-09 00:05:00,
2013-03-08 18:06:00,58.4,32.9,30.13,ESE,118,8.0,10.0,38,0.00,,---,0.00,VWS V14.00,2013-03-09 00:06:00,
2013-03-08 18:07:00,57.3,33.2,30.13,ESE,113,6.0,7.0,40,0.00,,---,0.00,VWS V14.00,2013-03-09 00:07:00,
2013-03-08 18:08:00,57.2,33.1,30.13,ESE,113,9.0,10.0,40,0.00,,---,0.00,VWS V14.00,2013-03-09 00:08:00,
2013-03-08 18:09:00,57.2,33.7,30.13,ESE,122,7.0,11.0,41,0.00,,---,0.00,VWS V14.00,2013-03-09 00:09:00,
2013-03-08 18:10:00,57.2,33.7,30.13,ESE,117,6.0,10.0,41,0.00,,---,0.00,VWS V14.00,2013-03-09 00:10:00,
2013-03-08 18:11:00,58.3,32.8,30.14,SE,134,4.0,11.0,38,0.00,,---,0.00,VWS V14.00,2013-03-09 00:11:00,
2013-03-08 18:12:00,57.0,33.5,30.13,ESE,118,6.0,9.0,41,0.00,,---,0.00,VWS V14.00,2013-03-09 00:12:00,
2013-03-08 18:13:00,57.0,33.5,30.13,ESE,118,8.0,8.0,41,0.00,,---,0.00,VWS V14.00,2013-03-09 00:13:00,
2013-03-08 18:14:00,57.0,33.5,30.13,ESE,118,6.0,11.0,41,0.00,,---,0.00,VWS V14.00,2013-03-09 00:14:00,
2013-03-08 18:15:00,57.0,33.5,30.13,ESE,121,9.0,11.0,41,0.00,,---,0.00,VWS V14.00,2013-03-09 00:15:00,
2013-03-08 18:16:00,58.0,33.2,30.13,SE,130,9.0,11.0,39,0.00,,---,0.00,VWS V14.00,2013-03-09 00:16:00,
2013-03-08 18:17:00,57.0,32.9,30.13,ESE,105,10.0,13.0,40,0.00,,---,0.00,VWS V14.00,2013-03-09 00:17:00,
2013-03-08 18:18:00,57.0,33.5,30.13,ESE,109,9.0,10.0,41,0.00,,---,0.00,VWS V14.00,2013-03-09 00:18:00,
2013-03-08 18:19:00,57.0,33.5,30.14,ESE,119,8.0,12.0,41,0.00,,---,0.00,VWS V14.00,2013-03-09 00:19:00,
2013-03-08 18:20:00,56.9,34.1,30.14,SE,124,11.0,12.0,42,0.00,,---,0.00,VWS V14.00,2013-03-09 00:20:00,
2013-03-08 18:21:00,58.0,32.6,30.14,SE,140,8.0,14.0,38,0.00,,---,0.00,VWS V14.00,2013-03-09 00:21:00,
2013-03-08 18:22:00,56.9,33.5,30.14,SE,135,8.0,12.0,41,0.00,,---,0.00,VWS V14.00,2013-03-09 00:22:00,
2013-03-08 18:23:00,57.0,33.5,30.14,SE,126,6.0,12.0,41,0.00,,---,0.00,VWS V14.00,2013-03-09 00:23:00,
2013-03-08 18:24:00,56.9,34.1,30.14,SE,127,5.0,11.0,42,0.00,,---,0.00,VWS V14.00,2013-03-09 00:24:00,
2013-03-08 18:25:00,56.9,34.1,30.14,SE,128,7.0,11.0,42,0.00,,---,0.00,VWS V14.00,2013-03-09 00:25:00,
2013-03-08 18:26:00,58.0,32.6,30.14,SE,132,7.0,10.0,38,0.00,,---,0.00,VWS V14.00,2013-03-09 00:26:00,
2013-03-08 18:27:00,56.7,33.9,30.14,ESE,123,12.0,13.0,42,0.00,,---,0.00,VWS V14.00,2013-03-09 00:27:00,
2013-03-08 18:28:00,56.9,33.5,30.14,ESE,122,6.0,12.0,41,0.00,,---,0.00,VWS V14.00,2013-03-09 00:28:00,
2013-03-08 18:29:00,56.9,34.1,30.14,ESE,122,5.0,7.0,42,0.00,,---,0.00,VWS V14.00,2013-03-09 00:29:00,
2013-03-08 18:30:00,56.7,33.9,30.14,ESE,122,1.0,6.0,42,0.00,,---,0.00,VWS V14.00,2013-03-09 00:30:00,
2013-03-08 18:31:00,58.0,33.8,30.14,SE,130,3.0,5.0,40,0.00,,---,0.00,VWS V14.00,2013-03-09 00:31:00,
2013-03-08 18:32:00,56.7,33.3,30.14,SE,125,13.0,13.0,41,0.00,,---,0.00,VWS V14.00,2013-03-09 00:32:00,
2013-03-08 18:33:00,56.9,33.5,30.14,SE,125,6.0,13.0,41,0.00,,---,0.00,VWS V14.00,2013-03-09 00:33:00,
2013-03-08 18:34:00,56.9,33.5,30.14,SE,125,6.0,10.0,41,0.00,,---,0.00,VWS V14.00,2013-03-09 00:34:00,
2013-03-08 18:35:00,56.9,33.5,30.14,SE,124,9.0,9.0,41,0.00,,---,0.00,VWS V14.00,2013-03-09 00:35:00,
2013-03-08 18:36:00,57.6,32.8,30.14,SE,130,6.0,6.0,39,0.00,,---,0.00,VWS V14.00,2013-03-09 00:36:00,
2013-03-08 18:37:00,56.9,33.5,30.14,SE,125,2.0,8.0,41,0.00,,---,0.00,VWS V14.00,2013-03-09 00:37:00,
2013-03-08 18:38:00,56.9,34.1,30.14,SE,125,5.0,7.0,42,0.00,,---,0.00,VWS V14.00,2013-03-09 00:38:00,
2013-03-08 18:39:00,56.7,33.9,30.14,SE,124,6.0,7.0,42,0.00,,---,0.00,VWS V14.00,2013-03-09 00:39:00,
2013-03-08 18:40:00,56.7,33.9,30.14,SE,125,7.0,7.0,42,0.00,,---,0.00,VWS V14.00,2013-03-09 00:40:00,
2013-03-08 18:41:00,57.8,33.0,30.14,SE,130,6.0,10.0,39,0.00,,---,0.00,VWS V14.00,2013-03-09 00:41:00,
2013-03-08 18:42:00,56.7,33.9,30.14,SE,125,5.0,9.0,42,0.00,,---,0.00,VWS V14.00,2013-03-09 00:42:00,
2013-03-08 18:43:00,56.7,33.3,30.14,SE,125,5.0,7.0,41,0.00,,---,0.00,VWS V14.00,2013-03-09 00:43:00,
2013-03-08 18:44:00,56.6,33.8,30.14,SE,125,7.0,7.0,42,0.00,,---,0.00,VWS V14.00,2013-03-09 00:44:00,
2013-03-08 18:45:00,56.6,33.8,30.14,ESE,123,6.0,11.0,42,0.00,,---,0.00,VWS V14.00,2013-03-09 00:45:00,
2013-03-08 18:46:00,57.5,33.4,30.14,SE,130,9.0,11.0,40,0.00,,---,0.00,VWS V14.00,2013-03-09 00:46:00,
2013-03-08 18:47:00,56.7,33.9,30.14,ESE,123,4.0,7.0,42,0.00,,---,0.00,VWS V14.00,2013-03-09 00:47:00,
2013-03-08 18:48:00,56.6,33.8,30.14,ESE,123,6.0,11.0,42,0.00,,---,0.00,VWS V14.00,2013-03-09 00:48:00,
2013-03-08 18:49:00,56.6,33.8,30.14,ESE,123,9.0,13.0,42,0.00,,---,0.00,VWS V14.00,2013-03-09 00:49:00,
2013-03-08 18:50:00,56.6,33.2,30.14,ESE,121,8.0,12.0,41,0.00,,---,0.00,VWS V14.00,2013-03-09 00:50:00,
2013-03-08 18:51:00,57.6,33.5,30.14,SE,128,12.0,14.0,40,0.00,,---,0.00,VWS V14.00,2013-03-09 00:51:00,
2013-03-08 18:52:00,56.7,33.3,30.14,ESE,121,6.0,9.0,41,0.00,,---,0.00,VWS V14.00,2013-03-09 00:52:00,
2013-03-08 18:53:00,56.7,33.9,30.14,ESE,121,6.0,9.0,42,0.00,,---,0.00,VWS V14.00,2013-03-09 00:53:00,
2013-03-08 18:54:00,56.6,33.8,30.14,ESE,122,5.0,9.0,42,0.00,,---,0.00,VWS V14.00,2013-03-09 00:54:00,
2013-03-08 18:55:00,56.6,33.8,30.14,ESE,121,8.0,10.0,42,0.00,,---,0.00,VWS V14.00,2013-03-09 00:55:00,
2013-03-08 18:56:00,57.6,33.5,30.14,SE,128,9.0,11.0,40,0.00,,---,0.00,VWS V14.00,2013-03-09 00:56:00,
2013-03-08 18:57:00,56.5,34.3,30.14,ESE,121,9.0,9.0,43,0.00,,---,0.00,VWS V14.00,2013-03-09 00:57:00,
2013-03-08 18:58:00,56.5,33.7,30.14,ESE,121,4.0,9.0,42,0.00,,---,0.00,VWS V14.00,2013-03-09 00:58:00,
2013-03-08 18:59:00,56.5,34.9,30.14,SE,135,6.0,9.0,44,0.00,,---,0.00,VWS V14.00,2013-03-09 00:59:00,
2013-03-08 19:00:00,56.5,33.7,30.14,SE,130,13.0,13.0,42,0.00,,---,0.00,VWS V14.00,2013-03-09 01:00:00,
2013-03-08 19:01:00,57.3,33.8,30.14,ESE,123,9.0,11.0,41,0.00,,---,0.00,VWS V14.00,2013-03-09 01:01:00,
2013-03-08 19:02:00,56.5,33.7,30.12,SE,128,6.0,9.0,42,0.00,,---,0.00,VWS V14.00,2013-03-09 01:02:00,
2013-03-08 19:03:00,56.6,33.8,30.12,SE,128,10.0,10.0,42,0.00,,---,0.00,VWS V14.00,2013-03-09 01:03:00,
2013-03-08 19:04:00,56.6,33.2,30.12,SE,128,10.0,10.0,41,0.00,,---,0.00,VWS V14.00,2013-03-09 01:04:00,
2013-03-08 19:05:00,56.6,33.2,30.12,SE,127,9.0,10.0,41,0.00,,---,0.00,VWS V14.00,2013-03-09 01:05:00,
2013-03-08 19:06:00,57.2,33.7,30.13,ESE,113,6.0,12.0,41,0.00,,---,0.00,VWS V14.00,2013-03-09 01:06:00,
2013-03-08 19:07:00,56.5,34.9,30.12,SE,127,5.0,7.0,44,0.00,,---,0.00,VWS V14.00,2013-03-09 01:07:00,
2013-03-08 19:08:00,56.3,34.7,30.12,SE,127,3.0,7.0,44,0.00,,---,0.00,VWS V14.00,2013-03-09 01:08:00,
2013-03-08 19:09:00,56.3,34.1,30.12,SE,126,5.0,10.0,43,0.00,,---,0.00,VWS V14.00,2013-03-09 01:09:00,
2013-03-08 19:10:00,56.3,33.5,30.12,SE,126,6.0,7.0,42,0.00,,---,0.00,VWS V14.00,2013-03-09 01:10:00,
2013-03-08 19:11:00,57.0,33.5,30.13,ESE,118,6.0,10.0,41,0.00,,---,0.00,VWS V14.00,2013-03-09 01:11:00,
2013-03-08 19:12:00,56.3,34.1,30.12,SE,128,10.0,11.0,43,0.00,,---,0.00,VWS V14.00,2013-03-09 01:12:00,
2013-03-08 19:13:00,56.3,33.5,30.12,SE,128,9.0,11.0,42,0.00,,---,0.00,VWS V14.00,2013-03-09 01:13:00,
2013-03-08 19:14:00,56.5,33.7,30.12,SE,126,10.0,14.0,42,0.00,,---,0.00,VWS V14.00,2013-03-09 01:14:00,
2013-03-08 19:15:00,56.5,34.3,30.12,SE,126,8.0,11.0,43,0.00,,---,0.00,VWS V14.00,2013-03-09 01:15:00,
2013-03-08 19:16:00,57.0,33.5,30.13,ESE,114,10.0,10.0,41,0.00,,---,0.00,VWS V14.00,2013-03-09 01:16:00,
2013-03-08 19:17:00,56.5,34.3,30.12,SE,126,5.0,6.0,43,0.00,,---,0.00,VWS V14.00,2013-03-09 01:17:00,
2013-03-08 19:18:00,56.3,33.5,30.12,SE,125,5.0,10.0,42,0.00,,---,0.00,VWS V14.00,2013-03-09 01:18:00,
2013-03-08 19:19:00,56.3,34.1,30.12,SE,124,7.0,9.0,43,0.00,,---,0.00,VWS V14.00,2013-03-09 01:19:00,
2013-03-08 19:20:00,56.3,33.5,30.12,ESE,123,7.0,12.0,42,0.00,,---,0.00,VWS V14.00,2013-03-09 01:20:00,
2013-03-08 19:21:00,56.9,34.1,30.14,ESE,123,10.0,11.0,42,0.00,,---,0.00,VWS V14.00,2013-03-09 01:21:00,
2013-03-08 19:22:00,56.5,33.7,30.12,ESE,115,9.0,10.0,42,0.00,,---,0.00,VWS V14.00,2013-03-09 01:22:00,
2013-03-08 19:23:00,56.5,33.7,30.12,ESE,112,6.0,11.0,42,0.00,,---,0.00,VWS V14.00,2013-03-09 01:23:00,
2013-03-08 19:24:00,56.6,33.8,30.12,ESE,112,6.0,8.0,42,0.00,,---,0.00,VWS V14.00,2013-03-09 01:24:00,
2013-03-08 19:25:00,56.6,33.8,30.12,ESE,110,6.0,10.0,42,0.00,,---,0.00,VWS V14.00,2013-03-09 01:25:00,
2013-03-08 19:26:00,56.9,34.1,30.14,SE,128,6.0,8.0,42,0.00,,---,0.00,VWS V14.00,2013-03-09 01:26:00,
2013-03-08 19:27:00,56.6,33.2,30.12,ESE,109,5.0,7.0,41,0.00,,---,0.00,VWS V14.00,2013-03-09 01:27:00,
2013-03-08 19:28:00,56.6,33.8,30.12,ESE,108,6.0,11.0,42,0.00,,---,0.00,VWS V14.00,2013-03-09 01:28:00,
2013-03-08 19:29:00,56.6,33.8,30.12,ESE,107,6.0,11.0,42,0.00,,---,0.00,VWS V14.00,2013-03-09 01:29:00,
2013-03-08 19:30:00,56.6,33.8,30.12,ESE,107,4.0,9.0,42,0.00,,---,0.00,VWS V14.00,2013-03-09 01:30:00,
2013-03-08 19:31:00,56.7,33.9,30.14,ESE,122,10.0,11.0,42,0.00,,---,0.00,VWS V14.00,2013-03-09 01:31:00,
2013-03-08 19:32:00,56.5,34.9,30.12,ESE,107,5.0,6.0,44,0.00,,---,0.00,VWS V14.00,2013-03-09 01:32:00,
2013-03-08 19:33:00,56.3,34.1,30.12,ESE,107,7.0,7.0,43,0.00,,---,0.00,VWS V14.00,2013-03-09 01:33:00,
2013-03-08 19:34:00,56.3,33.5,30.12,ESE,107,9.0,10.0,42,0.00,,---,0.00,VWS V14.00,2013-03-09 01:34:00,
2013-03-08 19:35:00,56.3,33.5,30.12,ESE,105,9.0,11.0,42,0.00,,---,0.00,VWS V14.00,2013-03-09 01:35:00,
2013-03-08 19:36:00,56.9,33.5,30.14,SE,125,9.0,10.0,41,0.00,,---,0.00,VWS V14.00,2013-03-09 01:36:00,
2013-03-08 19:37:00,56.3,33.5,30.12,ESE,107,7.0,10.0,42,0.00,,---,0.00,VWS V14.00,2013-03-09 01:37:00,
2013-03-08 19:38:00,56.3,34.1,30.12,ESE,107,8.0,10.0,43,0.00,,---,0.00,VWS V14.00,2013-03-09 01:38:00,
2013-03-08 19:39:00,56.3,34.1,30.12,ESE,108,9.0,12.0,43,0.00,,---,0.00,VWS V14.00,2013-03-09 01:39:00,
2013-03-08 19:40:00,56.3,33.5,30.12,ESE,112,6.0,12.0,42,0.00,,---,0.00,VWS V14.00,2013-03-09 01:40:00,
2013-03-08 19:41:00,56.7,33.3,30.14,SE,125,8.0,9.0,41,0.00,,---,0.00,VWS V14.00,2013-03-09 01:41:00,
2013-03-08 19:42:00,56.3,34.7,30.12,ESE,118,11.0,14.0,44,0.00,,---,0.00,VWS V14.00,2013-03-09 01:42:00,
2013-03-08 19:43:00,56.2,34.0,30.12,ESE,119,6.0,13.0,43,0.00,,---,0.00,VWS V14.00,2013-03-09 01:43:00,
2013-03-08 19:44:00,56.2,34.0,30.12,ESE,120,11.0,13.0,43,0.00,,---,0.00,VWS V14.00,2013-03-09 01:44:00,
2013-03-08 19:45:00,56.2,34.0,30.12,ESE,117,9.0,12.0,43,0.00,,---,0.00,VWS V14.00,2013-03-09 01:45:00,
2013-03-08 19:46:00,56.6,33.2,30.14,ESE,123,5.0,6.0,41,0.00,,---,0.00,VWS V14.00,2013-03-09 01:46:00,
2013-03-08 19:47:00,56.0,35.0,30.12,ESE,118,6.0,11.0,45,0.00,,---,0.00,VWS V14.00,2013-03-09 01:47:00,
2013-03-08 19:48:00,55.9,34.3,30.12,ESE,118,6.0,12.0,44,0.00,,---,0.00,VWS V14.00,2013-03-09 01:48:00,
2013-03-08 19:49:00,55.9,34.3,30.12,ESE,116,10.0,12.0,44,0.00,,---,0.00,VWS V14.00,2013-03-09 01:49:00,
2013-03-08 19:50:00,55.9,34.9,30.12,ESE,116,0.0,11.0,45,0.00,,---,0.00,VWS V14.00,2013-03-09 01:50:00,
2013-03-08 19:51:00,56.7,33.3,30.14,ESE,121,9.0,9.0,41,0.00,,---,0.00,VWS V14.00,2013-03-09 01:51:00,
2013-03-08 19:52:00,55.9,34.9,30.12,ESE,117,11.0,12.0,45,0.00,,---,0.00,VWS V14.00,2013-03-09 01:52:00,
2013-03-08 19:53:00,55.9,34.9,30.12,ESE,118,10.0,12.0,45,0.00,,---,0.00,VWS V14.00,2013-03-09 01:53:00,
2013-03-08 19:54:00,55.9,34.3,30.12,ESE,119,8.0,11.0,44,0.00,,---,0.00,VWS V14.00,2013-03-09 01:54:00,
2013-03-08 19:55:00,55.9,34.3,30.12,ESE,120,4.0,13.0,44,0.00,,---,0.00,VWS V14.00,2013-03-09 01:55:00,
2013-03-08 19:56:00,56.6,33.8,30.14,ESE,121,7.0,7.0,42,0.00,,---,0.00,VWS V14.00,2013-03-09 01:56:00,
2013-03-08 19:57:00,55.9,34.3,30.12,SE,138,7.0,9.0,44,0.00,,---,0.00,VWS V14.00,2013-03-09 01:57:00,
2013-03-08 19:58:00,55.9,34.3,30.12,SE,138,6.0,11.0,44,0.00,,---,0.00,VWS V14.00,2013-03-09 01:58:00,
2013-03-08 19:59:00,55.9,34.3,30.12,ESE,116,5.0,11.0,44,0.00,,---,0.00,VWS V14.00,2013-03-09 01:59:00,
2013-03-08 20:00:00,55.9,34.3,30.12,ESE,118,15.0,15.0,44,0.00,,---,0.00,VWS V14.00,2013-03-09 02:00:00,
2013-03-08 20:01:00,56.5,33.7,30.14,SE,129,11.0,13.0,42,0.00,,---,0.00,VWS V14.00,2013-03-09 02:01:00,
2013-03-08 20:02:00,55.9,34.3,30.12,ESE,121,7.0,13.0,44,0.00,,---,0.00,VWS V14.00,2013-03-09 02:02:00,
2013-03-08 20:03:00,55.7,34.7,30.12,SE,125,14.0,14.0,45,0.00,,---,0.00,VWS V14.00,2013-03-09 02:03:00,
2013-03-08 20:04:00,55.7,34.1,30.12,ESE,123,10.0,14.0,44,0.00,,---,0.00,VWS V14.00,2013-03-09 02:04:00,
2013-03-08 20:05:00,55.7,34.7,30.12,ESE,122,8.0,11.0,45,0.00,,---,0.00,VWS V14.00,2013-03-09 02:05:00,
2013-03-08 20:06:00,56.6,33.8,30.12,SE,127,4.0,9.0,42,0.00,,---,0.00,VWS V14.00,2013-03-09 02:06:00,
2013-03-08 20:07:00,55.4,35.0,30.12,ESE,121,11.0,14.0,46,0.00,,---,0.00,VWS V14.00,2013-03-09 02:07:00,
2013-03-08 20:08:00,55.4,34.4,30.11,ESE,121,5.0,11.0,45,0.00,,---,0.00,VWS V14.00,2013-03-09 02:08:00,
2013-03-08 20:09:00,55.4,35.0,30.12,ESE,121,6.0,9.0,46,0.00,,---,0.00,VWS V14.00,2013-03-09 02:09:00,
2013-03-08 20:10:00,55.3,34.9,30.11,ESE,121,9.0,10.0,46,0.00,,---,0.00,VWS V14.00,2013-03-09 02:10:00,
2013-03-08 20:11:00,56.3,33.5,30.12,SE,126,6.0,6.0,42,0.00,,---,0.00,VWS V14.00,2013-03-09 02:11:00,
2013-03-08 20:12:00,55.1,34.7,30.11,ESE,122,6.0,10.0,46,0.00,,---,0.00,VWS V14.00,2013-03-09 02:12:00,
2013-03-08 20:13:00,55.1,34.7,30.11,ESE,123,2.0,9.0,46,0.00,,---,0.00,VWS V14.00,2013-03-09 02:13:00,
2013-03-08 20:14:00,55.1,34.7,30.12,ESE,122,4.0,7.0,46,0.00,,---,0.00,VWS V14.00,2013-03-09 02:14:00,
2013-03-08 20:15:00,55.1,34.7,30.12,ESE,122,11.0,11.0,46,0.00,,---,0.00,VWS V14.00,2013-03-09 02:15:00,
2013-03-08 20:16:00,56.5,34.3,30.12,SE,126,5.0,11.0,43,0.00,,---,0.00,VWS V14.00,2013-03-09 02:16:00,
2013-03-08 20:17:00,55.3,34.9,30.12,ESE,123,7.0,9.0,46,0.00,,---,0.00,VWS V14.00,2013-03-09 02:17:00,
2013-03-08 20:18:00,55.3,34.9,30.12,ESE,123,7.0,10.0,46,0.00,,---,0.00,VWS V14.00,2013-03-09 02:18:00,
2013-03-08 20:19:00,55.3,34.3,30.12,ESE,123,6.0,10.0,45,0.00,,---,0.00,VWS V14.00,2013-03-09 02:19:00,
2013-03-08 20:20:00,55.3,34.3,30.12,SE,129,9.0,13.0,45,0.00,,---,0.00,VWS V14.00,2013-03-09 02:20:00,
2013-03-08 20:21:00,56.5,33.7,30.12,ESE,119,11.0,12.0,42,0.00,,---,0.00,VWS V14.00,2013-03-09 02:21:00,
2013-03-08 20:22:00,55.4,34.4,30.12,SE,126,4.0,10.0,45,0.00,,---,0.00,VWS V14.00,2013-03-09 02:22:00,
2013-03-08 20:23:00,55.4,34.4,30.12,SE,126,6.0,8.0,45,0.00,,---,0.00,VWS V14.00,2013-03-09 02:23:00,
2013-03-08 20:24:00,55.4,34.4,30.12,ESE,116,7.0,13.0,45,0.00,,---,0.00,VWS V14.00,2013-03-09 02:24:00,
2013-03-08 20:25:00,55.4,34.4,30.12,ESE,116,5.0,9.0,45,0.00,,---,0.00,VWS V14.00,2013-03-09 02:25:00,
2013-03-08 20:26:00,56.6,33.8,30.12,ESE,109,10.0,11.0,42,0.00,,---,0.00,VWS V14.00,2013-03-09 02:26:00,
2013-03-08 20:27:00,55.4,34.4,30.12,ESE,122,7.0,13.0,45,0.00,,---,0.00,VWS V14.00,2013-03-09 02:27:00,
2013-03-08 20:28:00,55.4,34.4,30.12,ESE,119,13.0,13.0,45,0.00,,---,0.00,VWS V14.00,2013-03-09 02:28:00,
2013-03-08 20:29:00,55.4,34.4,30.12,ESE,119,9.0,13.0,45,0.00,,---,0.00,VWS V14.00,2013-03-09 02:29:00,
2013-03-08 20:30:00,55.4,33.9,30.12,ESE,119,6.0,13.0,44,0.00,,---,0.00,VWS V14.00,2013-03-09 02:30:00,
2013-03-08 20:31:00,56.5,33.7,30.12,ESE,107,4.0,6.0,42,0.00,,---,0.00,VWS V14.00,2013-03-09 02:31:00,
2013-03-08 20:32:00,55.4,34.4,30.11,ESE,119,6.0,10.0,45,0.00,,---,0.00,VWS V14.00,2013-03-09 02:32:00,
2013-03-08 20:33:00,55.3,34.9,30.11,ESE,119,9.0,10.0,46,0.00,,---,0.00,VWS V14.00,2013-03-09 02:33:00,
2013-03-08 20:34:00,55.3,34.3,30.11,ESE,121,9.0,11.0,45,0.00,,---,0.00,VWS V14.00,2013-03-09 02:34:00,
2013-03-08 20:35:00,55.4,33.9,30.11,SE,125,10.0,11.0,44,0.00,,---,0.00,VWS V14.00,2013-03-09 02:35:00,
2013-03-08 20:36:00,56.3,33.5,30.12,ESE,105,6.0,9.0,42,0.00,,---,0.00,VWS V14.00,2013-03-09 02:36:00,
2013-03-08 20:37:00,55.4,34.4,30.12,ESE,122,4.0,10.0,45,0.00,,---,0.00,VWS V14.00,2013-03-09 02:37:00,
2013-03-08 20:38:00,55.4,34.4,30.12,ESE,122,7.0,7.0,45,0.00,,---,0.00,VWS V14.00,2013-03-09 02:38:00,
2013-03-08 20:39:00,55.4,34.4,30.12,ESE,122,7.0,10.0,45,0.00,,---,0.00,VWS V14.00,2013-03-09 02:39:00,
2013-03-08 20:40:00,55.3,34.3,30.12,ESE,122,6.0,11.0,45,0.00,,---,0.00,VWS V14.00,2013-03-09 02:40:00,
2013-03-08 20:41:00,56.2,34.0,30.12,ESE,109,13.0,15.0,43,0.00,,---,0.00,VWS V14.00,2013-03-09 02:41:00,
2013-03-08 20:42:00,55.4,33.9,30.12,ESE,123,6.0,9.0,44,0.00,,---,0.00,VWS V14.00,2013-03-09 02:42:00,
2013-03-08 20:43:00,55.4,34.4,30.12,ESE,123,4.0,9.0,45,0.00,,---,0.00,VWS V14.00,2013-03-09 02:43:00,
2013-03-08 20:44:00,55.4,34.4,30.12,ESE,123,9.0,9.0,45,0.00,,---,0.00,VWS V14.00,2013-03-09 02:44:00,
2013-03-08 20:45:00,55.4,33.9,30.12,ESE,123,4.0,9.0,44,0.00,,---,0.00,VWS V14.00,2013-03-09 02:45:00,
2013-03-08 20:46:00,56.2,34.0,30.12,ESE,117,4.0,9.0,43,0.00,,---,0.00,VWS V14.00,2013-03-09 02:46:00,
2013-03-08 20:47:00,55.3,34.3,30.12,ESE,123,3.0,9.0,45,0.00,,---,0.00,VWS V14.00,2013-03-09 02:47:00,
2013-03-08 20:48:00,55.3,34.3,30.11,ESE,123,6.0,6.0,45,0.00,,---,0.00,VWS V14.00,2013-03-09 02:48:00,
2013-03-08 20:49:00,55.3,34.3,30.11,ESE,123,5.0,6.0,45,0.00,,---,0.00,VWS V14.00,2013-03-09 02:49:00,
2013-03-08 20:50:00,55.3,34.3,30.11,ESE,123,10.0,10.0,45,0.00,,---,0.00,VWS V14.00,2013-03-09 02:50:00,
2013-03-08 20:51:00,55.9,34.9,30.12,ESE,116,2.0,3.0,45,0.00,,---,0.00,VWS V14.00,2013-03-09 02:51:00,
2013-03-08 20:52:00,55.3,34.3,30.11,ESE,123,9.0,9.0,45,0.00,,---,0.00,VWS V14.00,2013-03-09 02:52:00,
2013-03-08 20:53:00,55.3,33.8,30.11,ESE,123,5.0,13.0,44,0.00,,---,0.00,VWS V14.00,2013-03-09 02:53:00,
2013-03-08 20:54:00,55.3,34.3,30.11,ESE,123,2.0,7.0,45,0.00,,---,0.00,VWS V14.00,2013-03-09 02:54:00,
2013-03-08 20:55:00,55.3,34.3,30.11,ESE,123,9.0,10.0,45,0.00,,---,0.00,VWS V14.00,2013-03-09 02:55:00,
2013-03-08 20:56:00,55.9,34.3,30.12,SE,145,15.0,15.0,44,0.00,,---,0.00,VWS V14.00,2013-03-09 02:56:00,
2013-03-08 20:57:00,55.3,34.3,30.11,SE,124,11.0,14.0,45,0.00,,---,0.00,VWS V14.00,2013-03-09 02:57:00,
2013-03-08 20:58:00,55.3,34.3,30.11,ESE,121,9.0,14.0,45,0.00,,---,0.00,VWS V14.00,2013-03-09 02:58:00,
2013-03-08 20:59:00,55.3,34.3,30.10,ESE,121,6.0,10.0,45,0.00,,---,0.00,VWS V14.00,2013-03-09 02:59:00,
2013-03-08 21:00:00,55.3,34.9,30.10,ESE,121,7.0,12.0,46,0.00,,---,0.00,VWS V14.00,2013-03-09 03:00:00,
2013-03-08 21:01:00,55.9,34.3,30.12,SE,124,15.0,15.0,44,0.00,,---,0.00,VWS V14.00,2013-03-09 03:01:00,
2013-03-08 21:02:00,55.3,34.3,30.10,ESE,120,7.0,9.0,45,0.00,,---,0.00,VWS V14.00,2013-03-09 03:02:00,
2013-03-08 21:03:00,55.1,34.7,30.10,ESE,121,11.0,11.0,46,0.00,,---,0.00,VWS V14.00,2013-03-09 03:03:00,
2013-03-08 21:04:00,55.1,34.7,30.10,ESE,117,14.0,15.0,46,0.00,,---,0.00,VWS V14.00,2013-03-09 03:04:00,
2013-03-08 21:05:00,55.1,34.2,30.10,ESE,115,15.0,19.0,45,0.00,,---,0.00,VWS V14.00,2013-03-09 03:05:00,
2013-03-08 21:06:00,55.6,34.6,30.12,ESE,122,8.0,8.0,45,0.00,,---,0.00,VWS V14.00,2013-03-09 03:06:00,
2013-03-08 21:07:00,55.3,34.3,30.10,ESE,123,12.0,15.0,45,0.00,,---,0.00,VWS V14.00,2013-03-09 03:07:00,
2013-03-08 21:08:00,55.3,34.3,30.10,ESE,121,11.0,14.0,45,0.00,,---,0.00,VWS V14.00,2013-03-09 03:08:00,
2013-03-08 21:09:00,55.3,34.3,30.10,ESE,121,6.0,14.0,45,0.00,,---,0.00,VWS V14.00,2013-03-09 03:09:00,
2013-03-08 21:10:00,55.1,34.7,30.10,ESE,121,9.0,10.0,46,0.00,,---,0.00,VWS V14.00,2013-03-09 03:10:00,
2013-03-08 21:11:00,55.1,34.7,30.11,ESE,121,8.0,10.0,46,0.00,,---,0.00,VWS V14.00,2013-03-09 03:11:00,
2013-03-08 21:12:00,55.1,34.2,30.10,ESE,121,13.0,13.0,45,0.00,,---,0.00,VWS V14.00,2013-03-09 03:12:00,
2013-03-08 21:13:00,55.1,34.2,30.10,ESE,121,8.0,13.0,45,0.00,,---,0.00,VWS V14.00,2013-03-09 03:13:00,
2013-03-08 21:14:00,55.1,34.7,30.10,ESE,121,6.0,10.0,46,0.00,,---,0.00,VWS V14.00,2013-03-09 03:14:00,
2013-03-08 21:15:00,55.0,34.6,30.10,ESE,121,7.0,11.0,46,0.00,,---,0.00,VWS V14.00,2013-03-09 03:15:00,
2013-03-08 21:16:00,55.1,34.7,30.12,ESE,123,6.0,12.0,46,0.00,,---,0.00,VWS V14.00,2013-03-09 03:16:00,
2013-03-08 21:17:00,55.0,34.6,30.10,ESE,122,7.0,10.0,46,0.00,,---,0.00,VWS V14.00,2013-03-09 03:17:00,
2013-03-08 21:18:00,55.0,34.6,30.10,ESE,122,10.0,10.0,46,0.00,,---,0.00,VWS V14.00,2013-03-09 03:18:00,
2013-03-08 21:19:00,55.1,34.2,30.10,SE,128,7.0,17.0,45,0.00,,---,0.00,VWS V14.00,2013-03-09 03:19:00,
2013-03-08 21:20:00,55.1,34.2,30.10,SE,127,6.0,10.0,45,0.00,,---,0.00,VWS V14.00,2013-03-09 03:20:00,
2013-03-08 21:21:00,55.3,34.3,30.12,SE,128,5.0,9.0,45,0.00,,---,0.00,VWS V14.00,2013-03-09 03:21:00,
2013-03-08 21:22:00,55.1,34.7,30.10,SE,126,11.0,11.0,46,0.00,,---,0.00,VWS V14.00,2013-03-09 03:22:00,
2013-03-08 21:23:00,55.1,34.2,30.10,SE,126,5.0,11.0,45,0.00,,---,0.00,VWS V14.00,2013-03-09 03:23:00,
2013-03-08 21:24:00,55.1,33.6,30.10,SE,126,11.0,11.0,44,0.00,,---,0.00,VWS V14.00,2013-03-09 03:24:00,
2013-03-08 21:25:00,55.1,34.2,30.10,SE,129,6.0,14.0,45,0.00,,---,0.00,VWS V14.00,2013-03-09 03:25:00,
2013-03-08 21:26:00,55.4,34.4,30.12,ESE,116,6.0,9.0,45,0.00,,---,0.00,VWS V14.00,2013-03-09 03:26:00,
2013-03-08 21:27:00,55.1,34.7,30.10,SE,128,6.0,11.0,46,0.00,,---,0.00,VWS V14.00,2013-03-09 03:27:00,
2013-03-08 21:28:00,55.1,35.2,30.10,SE,128,7.0,9.0,47,0.00,,---,0.00,VWS V14.00,2013-03-09 03:28:00,
2013-03-08 21:29:00,55.0,35.2,30.10,SE,128,9.0,9.0,47,0.00,,---,0.00,VWS V14.00,2013-03-09 03:29:00,
2013-03-08 21:30:00,55.0,34.6,30.10,SE,128,3.0,9.0,46,0.00,,---,0.00,VWS V14.00,2013-03-09 03:30:00,
2013-03-08 21:31:00,55.4,33.9,30.12,ESE,119,9.0,10.0,44,0.00,,---,0.00,VWS V14.00,2013-03-09 03:31:00,
2013-03-08 21:32:00,55.0,34.6,30.10,SE,128,5.0,9.0,46,0.00,,---,0.00,VWS V14.00,2013-03-09 03:32:00,
2013-03-08 21:33:00,55.0,34.6,30.10,SE,126,5.0,12.0,46,0.00,,---,0.00,VWS V14.00,2013-03-09 03:33:00,
2013-03-08 21:34:00,55.0,34.6,30.10,SE,126,6.0,7.0,46,0.00,,---,0.00,VWS V14.00,2013-03-09 03:34:00,
2013-03-08 21:35:00,55.0,35.2,30.10,SE,126,2.0,8.0,47,0.00,,---,0.00,VWS V14.00,2013-03-09 03:35:00,
2013-03-08 21:36:00,55.4,33.9,30.11,SE,127,6.0,10.0,44,0.00,,---,0.00,VWS V14.00,2013-03-09 03:36:00,
2013-03-08 21:37:00,55.0,34.6,30.10,SE,126,9.0,9.0,46,0.00,,---,0.00,VWS V14.00,2013-03-09 03:37:00,
2013-03-08 21:38:00,55.0,34.6,30.10,SE,128,10.0,11.0,46,0.00,,---,0.00,VWS V14.00,2013-03-09 03:38:00,
2013-03-08 21:39:00,55.1,34.2,30.10,SE,124,9.0,14.0,45,0.00,,---,0.00,VWS V14.00,2013-03-09 03:39:00,
2013-03-08 21:40:00,55.1,34.2,30.10,SE,124,4.0,11.0,45,0.00,,---,0.00,VWS V14.00,2013-03-09 03:40:00,
2013-03-08 21:41:00,55.3,34.3,30.12,ESE,122,5.0,7.0,45,0.00,,---,0.00,VWS V14.00,2013-03-09 03:41:00,
2013-03-08 21:42:00,55.3,34.3,30.10,SE,125,11.0,12.0,45,0.00,,---,0.00,VWS V14.00,2013-03-09 03:42:00,
2013-03-08 21:43:00,55.3,34.3,30.10,SE,124,9.0,14.0,45,0.00,,---,0.00,VWS V14.00,2013-03-09 03:43:00,
2013-03-08 21:44:00,55.3,34.3,30.10,SE,125,4.0,10.0,45,0.00,,---,0.00,VWS V14.00,2013-03-09 03:44:00,
2013-03-08 21:45:00,55.3,34.3,30.10,SE,125,0.0,5.0,45,0.00,,---,0.00,VWS V14.00,2013-03-09 03:45:00,
2013-03-08 21:46:00,55.4,34.4,30.12,ESE,123,5.0,5.0,45,0.00,,---,0.00,VWS V14.00,2013-03-09 03:46:00,
2013-03-08 21:47:00,55.3,33.8,30.10,SE,146,5.0,7.0,44,0.00,,---,0.00,VWS V14.00,2013-03-09 03:47:00,
2013-03-08 21:48:00,55.3,34.3,30.10,SE,146,0.0,6.0,45,0.00,,---,0.00,VWS V14.00,2013-03-09 03:48:00,
2013-03-08 21:49:00,55.3,34.3,30.10,SE,146,0.0,3.0,45,0.00,,---,0.00,VWS V14.00,2013-03-09 03:49:00,
2013-03-08 21:50:00,55.3,34.3,30.10,SE,146,1.0,1.0,45,0.00,,---,0.00,VWS V14.00,2013-03-09 03:50:00,
2013-03-08 21:51:00,55.3,34.3,30.11,ESE,123,10.0,13.0,45,0.00,,---,0.00,VWS V14.00,2013-03-09 03:51:00,
2013-03-08 21:52:00,55.3,34.3,30.10,SE,146,2.0,4.0,45,0.00,,---,0.00,VWS V14.00,2013-03-09 03:52:00,
2013-03-08 21:53:00,55.3,34.3,30.10,SE,145,5.0,7.0,45,0.00,,---,0.00,VWS V14.00,2013-03-09 03:53:00,
2013-03-08 21:54:00,55.3,34.3,30.10,SE,145,3.0,6.0,45,0.00,,---,0.00,VWS V14.00,2013-03-09 03:54:00,
2013-03-08 21:55:00,55.1,34.2,30.10,SE,145,2.0,5.0,45,0.00,,---,0.00,VWS V14.00,2013-03-09 03:55:00,
2013-03-08 21:56:00,55.3,34.3,30.11,ESE,123,7.0,10.0,45,0.00,,---,0.00,VWS V14.00,2013-03-09 03:56:00,
2013-03-08 21:57:00,55.1,34.2,30.10,SE,144,2.0,5.0,45,0.00,,---,0.00,VWS V14.00,2013-03-09 03:57:00,
2013-03-08 21:58:00,55.1,34.2,30.10,SE,144,7.0,7.0,45,0.00,,---,0.00,VWS V14.00,2013-03-09 03:58:00,
2013-03-08 21:59:00,55.1,34.2,30.10,SE,144,2.0,7.0,45,0.00,,---,0.00,VWS V14.00,2013-03-09 03:59:00,
2013-03-08 22:00:00,55.1,34.2,30.10,SE,144,1.0,3.0,45,0.00,,---,0.00,VWS V14.00,2013-03-09 04:00:00,
2013-03-08 22:01:00,55.1,34.2,30.10,ESE,121,11.0,14.0,45,0.00,,---,0.00,VWS V14.00,2013-03-09 04:01:00,
2013-03-08 22:02:00,55.1,34.2,30.09,SE,144,5.0,6.0,45,0.00,,---,0.00,VWS V14.00,2013-03-09 04:02:00,
2013-03-08 22:03:00,55.1,34.2,30.09,SE,144,0.0,5.0,45,0.00,,---,0.00,VWS V14.00,2013-03-09 04:03:00,
2013-03-08 22:04:00,55.1,34.2,30.09,SE,138,6.0,12.0,45,0.00,,---,0.00,VWS V14.00,2013-03-09 04:04:00,
2013-03-08 22:05:00,55.1,34.2,30.09,SE,138,6.0,8.0,45,0.00,,---,0.00,VWS V14.00,2013-03-09 04:05:00,
2013-03-08 22:06:00,55.1,34.2,30.10,ESE,115,11.0,15.0,45,0.00,,---,0.00,VWS V14.00,2013-03-09 04:06:00,
2013-03-08 22:07:00,55.1,34.2,30.09,SE,138,4.0,9.0,45,0.00,,---,0.00,VWS V14.00,2013-03-09 04:07:00,
2013-03-08 22:08:00,55.1,34.2,30.09,SE,138,11.0,11.0,45,0.00,,---,0.00,VWS V14.00,2013-03-09 04:08:00,
2013-03-08 22:09:00,55.1,34.7,30.09,SE,136,6.0,11.0,46,0.00,,---,0.00,VWS V14.00,2013-03-09 04:09:00,
2013-03-08 22:10:00,55.0,34.6,30.09,SE,136,4.0,6.0,46,0.00,,---,0.00,VWS V14.00,2013-03-09 04:10:00,
2013-03-08 22:11:00,55.1,34.7,30.10,ESE,121,10.0,11.0,46,0.00,,---,0.00,VWS V14.00,2013-03-09 04:11:00,
2013-03-08 22:12:00,55.0,34.6,30.08,SE,135,4.0,7.0,46,0.00,,---,0.00,VWS V14.00,2013-03-09 04:12:00,
2013-03-08 22:13:00,55.0,34.1,30.08,SE,134,11.0,12.0,45,0.00,,---,0.00,VWS V14.00,2013-03-09 04:13:00,
2013-03-08 22:14:00,55.0,34.6,30.08,SE,126,8.0,15.0,46,0.00,,---,0.00,VWS V14.00,2013-03-09 04:14:00,
2013-03-08 22:15:00,55.0,34.6,30.08,SE,125,10.0,14.0,46,0.00,,---,0.00,VWS V14.00,2013-03-09 04:15:00,
2013-03-08 22:16:00,55.0,34.6,30.10,ESE,121,5.0,7.0,46,0.00,,---,0.00,VWS V14.00,2013-03-09 04:16:00,
2013-03-08 22:17:00,55.0,34.1,30.08,SE,126,12.0,15.0,45,0.00,,---,0.00,VWS V14.00,2013-03-09 04:17:00,
2013-03-08 22:18:00,55.0,35.2,30.08,SE,126,7.0,12.0,47,0.00,,---,0.00,VWS V14.00,2013-03-09 04:18:00,
2013-03-08 22:19:00,54.8,34.4,30.08,SE,127,10.0,17.0,46,0.00,,---,0.00,VWS V14.00,2013-03-09 04:19:00,
2013-03-08 22:20:00,55.0,34.6,30.08,SE,131,7.0,15.0,46,0.00,,---,0.00,VWS V14.00,2013-03-09 04:20:00,
2013-03-08 22:21:00,55.1,34.2,30.10,SE,127,4.0,6.0,45,0.00,,---,0.00,VWS V14.00,2013-03-09 04:21:00,
2013-03-08 22:22:00,55.0,34.6,30.08,SE,131,9.0,13.0,46,0.00,,---,0.00,VWS V14.00,2013-03-09 04:22:00,
2013-03-08 22:23:00,55.0,34.6,30.08,SE,128,12.0,13.0,46,0.00,,---,0.00,VWS V14.00,2013-03-09 04:23:00,
2013-03-08 22:24:00,55.0,34.6,30.07,SE,126,11.0,14.0,46,0.00,,---,0.00,VWS V14.00,2013-03-09 04:24:00,
2013-03-08 22:25:00,55.0,34.1,30.07,SE,130,9.0,16.0,45,0.00,,---,0.00,VWS V14.00,2013-03-09 04:25:00,
2013-03-08 22:26:00,55.1,34.2,30.10,SE,129,9.0,9.0,45,0.00,,---,0.00,VWS V14.00,2013-03-09 04:26:00,
2013-03-08 22:27:00,55.0,34.6,30.07,SE,127,10.0,14.0,46,0.00,,---,0.00,VWS V14.00,2013-03-09 04:27:00,
2013-03-08 22:28:00,55.0,34.6,30.08,SE,128,7.0,10.0,46,0.00,,---,0.00,VWS V14.00,2013-03-09 04:28:00,
2013-03-08 22:29:00,55.0,34.1,30.08,SE,130,6.0,10.0,45,0.00,,---,0.00,VWS V14.00,2013-03-09 04:29:00,
2013-03-08 22:30:00,55.0,34.1,30.08,SE,130,6.0,11.0,45,0.00,,---,0.00,VWS V14.00,2013-03-09 04:30:00,
2013-03-08 22:31:00,55.0,35.2,30.10,SE,128,4.0,5.0,47,0.00,,---,0.00,VWS V14.00,2013-03-09 04:31:00,
2013-03-08 22:32:00,55.0,34.1,30.08,SE,142,4.0,15.0,45,0.00,,---,0.00,VWS V14.00,2013-03-09 04:32:00,
2013-03-08 22:33:00,55.0,34.1,30.08,SE,143,5.0,11.0,45,0.00,,---,0.00,VWS V14.00,2013-03-09 04:33:00,
2013-03-08 22:34:00,55.0,34.6,30.07,SE,146,9.0,13.0,46,0.00,,---,0.00,VWS V14.00,2013-03-09 04:34:00,
2013-03-08 22:35:00,55.0,34.1,30.07,SE,142,7.0,12.0,45,0.00,,---,0.00,VWS V14.00,2013-03-09 04:35:00,
2013-03-08 22:36:00,55.0,34.6,30.10,SE,126,6.0,7.0,46,0.00,,---,0.00,VWS V14.00,2013-03-09 04:36:00,
2013-03-08 22:37:00,55.0,34.6,30.07,SE,141,9.0,12.0,46,0.00,,---,0.00,VWS V14.00,2013-03-09 04:37:00,
2013-03-08 22:38:00,55.0,34.6,30.07,SE,140,7.0,11.0,46,0.00,,---,0.00,VWS V14.00,2013-03-09 04:38:00,
2013-03-08 22:39:00,54.8,34.4,30.07,SE,141,8.0,10.0,46,0.00,,---,0.00,VWS V14.00,2013-03-09 04:39:00,
2013-03-08 22:40:00,54.8,35.0,30.07,SE,141,6.0,11.0,47,0.00,,---,0.00,VWS V14.00,2013-03-09 04:40:00,
2013-03-08 22:41:00,55.1,34.2,30.10,SE,124,6.0,6.0,45,0.00,,---,0.00,VWS V14.00,2013-03-09 04:41:00,
2013-03-08 22:42:00,54.8,34.4,30.07,SE,142,9.0,11.0,46,0.00,,---,0.00,VWS V14.00,2013-03-09 04:42:00,
2013-03-08 22:43:00,54.8,34.4,30.07,SE,142,8.0,10.0,46,0.00,,---,0.00,VWS V14.00,2013-03-09 04:43:00,
2013-03-08 22:44:00,54.8,34.4,30.07,SE,139,12.0,13.0,46,0.00,,---,0.00,VWS V14.00,2013-03-09 04:44:00,
2013-03-08 22:45:00,54.8,34.4,30.07,ESE,117,8.0,13.0,46,0.00,,---,0.00,VWS V14.00,2013-03-09 04:45:00,
2013-03-08 22:46:00,55.3,34.3,30.10,SE,126,5.0,5.0,45,0.00,,---,0.00,VWS V14.00,2013-03-09 04:46:00,
2013-03-08 22:47:00,54.8,34.4,30.07,SSE,152,7.0,12.0,46,0.00,,---,0.00,VWS V14.00,2013-03-09 04:47:00,
2013-03-08 22:48:00,54.8,34.4,30.07,SSE,151,2.0,8.0,46,0.00,,---,0.00,VWS V14.00,2013-03-09 04:48:00,
2013-03-08 22:49:00,54.8,34.4,30.07,SSE,151,2.0,9.0,46,0.00,,---,0.00,VWS V14.00,2013-03-09 04:49:00,
2013-03-08 22:50:00,54.8,34.4,30.07,SSE,150,3.0,7.0,46,0.00,,---,0.00,VWS V14.00,2013-03-09 04:50:00,
2013-03-08 22:51:00,55.3,34.3,30.10,SE,146,6.0,6.0,45,0.00,,---,0.00,VWS V14.00,2013-03-09 04:51:00,
2013-03-08 22:52:00,54.8,34.4,30.07,SSE,148,7.0,11.0,46,0.00,,---,0.00,VWS V14.00,2013-03-09 04:52:00,
2013-03-08 22:53:00,54.8,34.4,30.07,SSE,147,5.0,11.0,46,0.00,,---,0.00,VWS V14.00,2013-03-09 04:53:00,
2013-03-08 22:54:00,54.8,34.4,30.07,SSE,147,5.0,6.0,46,0.00,,---,0.00,VWS V14.00,2013-03-09 04:54:00,
2013-03-08 22:55:00,54.7,34.3,30.07,SSE,147,4.0,9.0,46,0.00,,---,0.00,VWS V14.00,2013-03-09 04:55:00,
2013-03-08 22:56:00,55.1,34.2,30.10,SE,145,0.0,2.0,45,0.00,,---,0.00,VWS V14.00,2013-03-09 04:56:00,
2013-03-08 22:57:00,54.7,34.9,30.06,SE,132,5.0,12.0,47,0.00,,---,0.00,VWS V14.00,2013-03-09 04:57:00,
2013-03-08 22:58:00,54.7,34.3,30.06,SE,131,10.0,11.0,46,0.00,,---,0.00,VWS V14.00,2013-03-09 04:58:00,
2013-03-08 22:59:00,54.7,34.3,30.06,SSE,147,7.0,10.0,46,0.00,,---,0.00,VWS V14.00,2013-03-09 04:59:00,
2013-03-08 23:00:00,55.1,34.2,30.10,SE,144,1.0,3.0,45,0.00,,---,0.00,VWS V14.00,2013-03-09 05:00:00,
2013-03-08 23:01:00,54.7,34.3,30.06,SE,146,3.0,7.0,46,0.00,,---,0.00,VWS V14.00,2013-03-09 05:01:00,
2013-03-08 23:02:00,54.7,34.9,30.06,SE,142,5.0,10.0,47,0.00,,---,0.00,VWS V14.00,2013-03-09 05:02:00,
2013-03-08 23:03:00,54.7,34.9,30.06,SE,142,7.0,7.0,47,0.00,,---,0.00,VWS V14.00,2013-03-09 05:03:00,
2013-03-08 23:04:00,54.7,34.9,30.06,SE,141,5.0,10.0,47,0.00,,---,0.00,VWS V14.00,2013-03-09 05:04:00,
2013-03-08 23:05:00,55.1,34.2,30.09,SE,138,7.0,7.0,45,0.00,,---,0.00,VWS V14.00,2013-03-09 05:05:00,
2013-03-08 23:06:00,54.7,34.9,30.06,SE,139,11.0,11.0,47,0.00,,---,0.00,VWS V14.00,2013-03-09 05:06:00,
2013-03-08 23:07:00,54.7,34.3,30.05,SE,142,10.0,14.0,46,0.00,,---,0.00,VWS V14.00,2013-03-09 05:07:00,
2013-03-08 23:08:00,54.7,34.3,30.05,SE,130,14.0,14.0,46,0.00,,---,0.00,VWS V14.00,2013-03-09 05:08:00,
2013-03-08 23:09:00,54.8,35.0,30.05,SE,133,10.0,14.0,47,0.00,,---,0.00,VWS V14.00,2013-03-09 05:09:00,
2013-03-08 23:10:00,55.0,34.6,30.09,SE,136,5.0,6.0,46,0.00,,---,0.00,VWS V14.00,2013-03-09 05:10:00,
2013-03-08 23:11:00,54.7,34.9,30.05,SE,127,14.0,14.0,47,0.00,,---,0.00,VWS V14.00,2013-03-09 05:11:00,
2013-03-08 23:12:00,54.7,34.9,30.05,SE,137,7.0,14.0,47,0.00,,---,0.00,VWS V14.00,2013-03-09 05:12:00,
2013-03-08 23:13:00,54.7,34.9,30.05,SE,140,5.0,18.0,47,0.00,,---,0.00,VWS V14.00,2013-03-09 05:13:00,
2013-03-08 23:14:00,54.7,34.9,30.05,SE,142,18.0,18.0,47,0.00,,---,0.00,VWS V14.00,2013-03-09 05:14:00,
2013-03-08 23:15:00,55.0,34.6,30.08,SE,125,11.0,14.0,46,0.00,,---,0.00,VWS V14.00,2013-03-09 05:15:00,
2013-03-08 23:16:00,54.8,35.0,30.05,SE,135,5.0,10.0,47,0.00,,---,0.00,VWS V14.00,2013-03-09 05:16:00,
2013-03-08 23:17:00,54.8,35.0,30.05,SE,130,10.0,11.0,47,0.00,,---,0.00,VWS V14.00,2013-03-09 05:17:00,
2013-03-08 23:18:00,54.8,35.0,30.05,SE,131,8.0,12.0,47,0.00,,---,0.00,VWS V14.00,2013-03-09 05:18:00,
2013-03-08 23:19:00,54.8,35.0,30.05,SE,130,6.0,13.0,47,0.00,,---,0.00,VWS V14.00,2013-03-09 05:19:00,
2013-03-08 23:20:00,55.0,34.6,30.08,SE,131,6.0,15.0,46,0.00,,---,0.00,VWS V14.00,2013-03-09 05:20:00,
2013-03-08 23:21:00,54.8,35.0,30.05,SE,124,4.0,6.0,47,0.00,,---,0.00,VWS V14.00,2013-03-09 05:21:00,
2013-03-08 23:22:00,54.8,34.4,30.05,SE,130,10.0,10.0,46,0.00,,---,0.00,VWS V14.00,2013-03-09 05:22:00,
2013-03-08 23:23:00,54.8,34.4,30.05,SE,129,6.0,11.0,46,0.00,,---,0.00,VWS V14.00,2013-03-09 05:23:00,
2013-03-08 23:24:00,54.8,35.0,30.05,SE,134,5.0,10.0,47,0.00,,---,0.00,VWS V14.00,2013-03-09 05:24:00,
2013-03-08 23:25:00,55.0,34.1,30.07,SE,128,12.0,16.0,45,0.00,,---,0.00,VWS V14.00,2013-03-09 05:25:00,
2013-03-08 23:26:00,55.0,34.6,30.05,SE,144,6.0,9.0,46,0.00,,---,0.00,VWS V14.00,2013-03-09 05:26:00,
2013-03-08 23:27:00,55.0,34.6,30.05,SE,140,5.0,9.0,46,0.00,,---,0.00,VWS V14.00,2013-03-09 05:27:00,
2013-03-08 23:28:00,54.8,35.0,30.05,SE,138,7.0,10.0,47,0.00,,---,0.00,VWS V14.00,2013-03-09 05:28:00,
2013-03-08 23:29:00,54.8,35.0,30.05,SE,144,11.0,13.0,47,0.00,,---,0.00,VWS V14.00,2013-03-09 05:29:00,
2013-03-08 23:30:00,55.0,34.1,30.08,SE,131,7.0,11.0,45,0.00,,---,0.00,VWS V14.00,2013-03-09 05:30:00,
2013-03-08 23:31:00,54.8,34.4,30.05,SE,144,2.0,11.0,46,0.00,,---,0.00,VWS V14.00,2013-03-09 05:31:00,
2013-03-08 23:32:00,55.0,34.6,30.05,SSE,149,5.0,13.0,46,0.00,,---,0.00,VWS V14.00,2013-03-09 05:32:00,
2013-03-08 23:33:00,55.0,35.2,30.05,SE,144,7.0,7.0,47,0.00,,---,0.00,VWS V14.00,2013-03-09 05:33:00,
2013-03-08 23:34:00,55.0,35.2,30.06,SE,143,4.0,13.0,47,0.00,,---,0.00,VWS V14.00,2013-03-09 05:34:00,
2013-03-08 23:35:00,55.0,34.1,30.07,SE,142,10.0,12.0,45,0.00,,---,0.00,VWS V14.00,2013-03-09 05:35:00,
2013-03-08 23:36:00,55.0,35.2,30.05,SE,129,10.0,15.0,47,0.00,,---,0.00,VWS V14.00,2013-03-09 05:36:00,
2013-03-08 23:37:00,55.0,35.2,30.06,SE,143,7.0,13.0,47,0.00,,---,0.00,VWS V14.00,2013-03-09 05:37:00,
2013-03-08 23:38:00,55.0,35.2,30.06,SSE,161,5.0,13.0,47,0.00,,---,0.00,VWS V14.00,2013-03-09 05:38:00,
2013-03-08 23:39:00,55.0,34.6,30.06,SSE,150,7.0,9.0,46,0.00,,---,0.00,VWS V14.00,2013-03-09 05:39:00,
2013-03-08 23:40:00,54.8,35.0,30.07,SE,141,4.0,11.0,47,0.00,,---,0.00,VWS V14.00,2013-03-09 05:40:00,
2013-03-08 23:41:00,55.0,34.6,30.06,SE,133,13.0,13.0,46,0.00,,---,0.00,VWS V14.00,2013-03-09 05:41:00,
2013-03-08 23:42:00,55.1,35.2,30.05,SE,126,7.0,13.0,47,0.00,,---,0.00,VWS V14.00,2013-03-09 05:42:00,
2013-03-08 23:43:00,55.1,34.7,30.05,SE,130,4.0,11.0,46,0.00,,---,0.00,VWS V14.00,2013-03-09 05:43:00,
2013-03-08 23:44:00,55.1,35.2,30.05,SE,131,2.0,6.0,47,0.00,,---,0.00,VWS V14.00,2013-03-09 05:44:00,
2013-03-08 23:45:00,54.8,34.4,30.07,ESE,116,9.0,13.0,46,0.00,,---,0.00,VWS V14.00,2013-03-09 05:45:00,
2013-03-08 23:46:00,55.1,35.2,30.05,SSE,154,3.0,9.0,47,0.00,,---,0.00,VWS V14.00,2013-03-09 05:46:00,
2013-03-08 23:47:00,55.1,34.7,30.05,SSE,161,10.0,10.0,46,0.00,,---,0.00,VWS V14.00,2013-03-09 05:47:00,
2013-03-08 23:48:00,55.1,34.7,30.05,SE,138,15.0,15.0,46,0.00,,---,0.00,VWS V14.00,2013-03-09 05:48:00,
2013-03-08 23:49:00,55.1,34.7,30.05,SSE,155,11.0,15.0,46,0.00,,---,0.00,VWS V14.00,2013-03-09 05:49:00,
2013-03-08 23:50:00,54.8,34.4,30.07,SSE,150,4.0,7.0,46,0.00,,---,0.00,VWS V14.00,2013-03-09 05:50:00,
2013-03-08 23:51:00,55.1,34.7,30.05,SSE,148,4.0,12.0,46,0.00,,---,0.00,VWS V14.00,2013-03-09 05:51:00,
2013-03-08 23:52:00,55.1,34.7,30.05,SSE,150,14.0,14.0,46,0.00,,---,0.00,VWS V14.00,2013-03-09 05:52:00,
2013-03-08 23:53:00,55.1,34.7,30.06,SSE,156,6.0,14.0,46,0.00,,---,0.00,VWS V14.00,2013-03-09 05:53:00,
2013-03-08 23:54:00,55.1,34.7,30.06,SE,146,5.0,11.0,46,0.00,,---,0.00,VWS V14.00,2013-03-09 05:54:00,
2013-03-08 23:55:00,54.7,34.9,30.07,SSE,147,5.0,9.0,47,0.00,,---,0.00,VWS V14.00,2013-03-09 05:55:00,
2013-03-08 23:56:00,55.1,34.7,30.05,SSE,159,4.0,7.0,46,0.00,,---,0.00,VWS V14.00,2013-03-09 05:56:00,
2013-03-08 23:57:00,55.1,34.7,30.05,SSE,159,5.0,5.0,46,0.00,,---,0.00,VWS V14.00,2013-03-09 05:57:00,
2013-03-08 23:58:00,55.0,34.6,30.05,SSE,159,2.0,5.0,46,0.00,,---,0.00,VWS V14.00,2013-03-09 05:58:00,
2013-03-08 23:59:00,55.0,35.2,30.06,SSE,159,1.0,3.0,47,0.00,,---,0.00,VWS V14.00,2013-03-09 05:59:00,